     2              OBSERVATION DATA    GPS                 RINEX VERSION / TYPE
ASRINEXO V2.9.7 UX USGS/MENLO_PARK 26-APR-01 16:32          PGM / RUN BY / DATE
                                                            COMMENT
BIT 2 OF LLI (+4) FLAGS DATA COLLECTED UNDER "AS" CONDITION COMMENT
BIT 2 OF LLI (+4) FLAGS DATA COLLECTED UNDER "AS" CONDITION COMMENT
BIT 2 OF LLI (+4) FLAGS DATA COLLECTED UNDER "AS" CONDITION COMMENT
BIT 2 OF LLI (+4) FLAGS DATA COLLECTED UNDER "AS" CONDITION COMMENT
BIT 2 OF LLI (+4) FLAGS DATA COLLECTED UNDER "AS" CONDITION COMMENT
BIT 2 OF LLI (+4) FLAGS DATA COLLECTED UNDER "AS" CONDITION COMMENT
BIT 2 OF LLI (+4) FLAGS DATA COLLECTED UNDER "AS" CONDITION COMMENT
BIT 2 OF LLI (+4) FLAGS DATA COLLECTED UNDER "AS" CONDITION COMMENT
Original Marker Name: saec Sawmill_Ecc_1973_NCER            COMMENT
Campaign Name: USGS Profiles                                COMMENT
4-Character Station Name: SAEC                              COMMENT
6-Character Antenna Code: DMRCHT                            COMMENT
Vertical Measurement Point: BCR                             COMMENT
Vertical Offset to Rinex Ref. Point: 0.0348                 COMMENT
Radial Measurement Point: ECF                               COMMENT
Radial Offset to Rinex Ref. Point: 0.1897                   COMMENT
Antenna Height from Field Measurement: 1.5030 m             COMMENT
Additional Antenna Identification Info.:                    COMMENT
Turborogue and Ashtech Choke Ring                           COMMENT
Original XYZ: -2510599.9374 -4612179.7449 3610875.9213      COMMENT
New XYZ position is based on association with SCEC monument COMMENT
E1E9M1W6+0051. Position of that monument is believed to be  COMMENT
valid to within 1 m horizontally; vertical accuracy         COMMENT
should be no worse than 3-times this value.                 COMMENT
                                                            COMMENT
Revised Rinex header created by UCSD GPS archive for        COMMENT
GSAC on 07-Jun-2001 (2001:158) 17:17:36 GMT                 COMMENT
For assistance contact dagnew@ucsd.edu                      COMMENT
or anderson@python.ucsd.edu                                 COMMENT
                                                            COMMENT
SAWMILL ECC 1973                                            MARKER NAME
JMS US GEOLOGICAL SURVEY                                    OBSERVER / AGENCY
O4597 ASHTECH Z-XII3 CC00                                   REC # / TYPE / VERS
CR519993705 DORNE-MARGOL. TYPE T                            ANT # / TYPE
 -2510616.4898 -4612185.6675  3610871.6126                  APPROX POSITION XYZ
        1.4562        0.0000        0.0000                  ANTENNA: DELTA H/E/N
     1     1     0                                          WAVELENGTH FACT L1/2
     5    C1    L1    L2    P1    P2                        # / TYPES OF OBSERV
    30                                                      INTERVAL
  2001     4    19    16     0    0.000000                  TIME OF FIRST OBS
  2001     4    19    22    24   30.000000                  TIME OF LAST OBS
                                                            END OF HEADER
 01  4 19 16  0  0.0000000  0  6 24 26 02 04 07 09
  23276931.946     -247991.191 8   -183051.49246  23276930.826    23276941.9654
  24656949.935      245002.20644                  24656947.820    24656959.2924
  22222463.044      252794.114 8    184241.54247  22222461.760    22222469.5074
  21092891.311      -80896.144 9    -60686.47147  21092890.566    21092898.0184
  21682791.870                                    21682788.688    21682719.0364
  21811399.429      -72667.952 9    -53494.92547  21811398.673    21811405.7964
 01  4 19 16  0 30.0010000  0  7 24 26 02 04 05 07 09
  23273718.591    -1840296.742 8  -1423808.96846  23273717.600    23273728.7694
  24688177.765    -1081053.73417   -854721.88245  24688176.751    24688188.6264
  22246648.005    -1195536.119 8   -944327.53747  22246646.197    22246653.9834
  21099165.271    -1623346.387 9  -1262595.68247  21099164.562    21099171.9254
  24705738.953    -1308100.05444                  24705736.644    24705745.9694
  21709591.878    -1130297.78457                  21709590.433    21709597.4854
  21818160.644    -1612556.997 9  -1253408.46147  21818160.012    21818167.0684
 01  4 19 16  1  0.0010000  0  7 24 26 02 04 05 07 09
  23254297.165    -1942357.280 8  -1503336.57946  23254296.126    23254307.2724
  24703168.589    -1002273.909 7   -793335.12945  24703167.893    24703179.8204
  22254635.411    -1153560.662 8   -911619.45047  22254633.858    22254641.7054
  21089297.050    -1675203.647 9  -1303003.87047  21089296.424    21089303.7904
  24689537.620    -1778898.13417  -1374431.04345  24689538.498    24689547.4044
  21720177.035    -1104964.78019  -1086953.37247  21720175.615    21720182.7344
  21808771.073    -1661899.875 9  -1291857.45047  21808770.352    21808777.3934
 01  4 19 16  1 30.0010000  0  7 24 26 02 04 05 07 09
  23234910.993    -2044232.204 8  -1582719.55946  23234909.997    23234921.1004
  24718166.170     -923461.159 7   -731922.70745  24718165.800    24718177.3414
  22262670.355    -1111336.533 8   -878717.60847  22262668.905    22262676.8064
  21079530.740    -1726526.086 9  -1342995.30947  21079530.115    21079537.4754
  24673334.415    -1864050.157 7  -1440783.22745  24673333.397    24673343.4574
  21730791.819    -1049183.687 9  -1043487.61847  21730790.397    21730797.6264
  21799474.270    -1710755.102 9  -1329926.45447  21799473.558    21799480.5374
 01  4 19 16  2  0.0010000  0  7 24 26 02 04 05 07 09
  23215561.236    -2145915.405 8  -1661953.14846  23215560.302    23215571.3104
  24733170.109     -844614.724 7   -670484.02945  24733169.484    24733181.4494
  22270753.431    -1068859.663 8   -845618.81947  22270752.049    22270759.9634
  21069867.170    -1777308.460 9  -1382565.92647  21069866.555    21069873.9014
  24657126.351    -1949225.325 7  -1507153.40645  24657125.557    24657135.0714
  21741436.547     -993244.894 9   -999898.97847  21741435.168    21741442.4704
  21790271.334    -1759117.562 9  -1367611.48947  21790270.580    21790277.4114
 01  4 19 16  2 30.0010000  0  7 24 26 02 04 05 07 09
  23196248.746    -2247402.697 8  -1741034.11246  23196247.872    23196258.8254
  24748180.085     -765736.898 7   -609020.90945  24748179.611    24748191.3244
  22278884.899    -1026128.617 8   -812321.97147  22278883.550    22278891.5144
  21060306.771    -1827548.223 9  -1421713.74247  21060306.174    21060313.5234
  24640913.962    -2034422.250 7  -1573540.56045  24640913.091    24640923.0104
  21752111.217     -937149.160 9   -956188.02747  21752109.828    21752117.1364
  21781162.646    -1806984.468 9  -1404910.39147  21781161.865    21781168.6204
 01  4 19 16  3  0.0010000  0  7 24 26 02 04 05 07 09
  23176974.239    -2348690.688 8  -1819959.74246  23176973.326    23176984.3334
  24763195.873     -686829.412 7   -547534.66345  24763195.396    24763206.8054
  22287064.883     -983142.054 8   -778826.02047  22287063.607    22287071.7294
  21050850.175    -1877242.402 9  -1460436.41447  21050849.660    21050856.9854
  24624697.883    -2119639.405 7  -1639943.47245  24624696.888    24624706.7504
  21762815.689     -880896.747 9   -912355.03947  21762814.337    21762821.6474
  21772148.720    -1854353.008 9  -1441820.93147  21772147.936    21772154.7574
 01  4 19 16  3 30.0010000  0  7 24 26 02 04 05 07 09
  23157738.410    -2449775.609 8  -1898727.14346  23157737.472    23157748.4674
  24778216.715     -607894.500 7   -486027.04445  24778216.268    24778227.8794
  22295293.788     -939898.936 8   -745130.15647  22295292.481    22295300.7324
  21041498.002    -1926388.472 9  -1498732.01047  21041497.484    21041504.8044
  24608478.076    -2204875.449 7  -1706361.09945  24608476.666    24608486.8404
  21773549.764     -824488.429 9   -868400.53947  21773548.476    21773555.8224
  21763230.018    -1901220.731 9  -1478341.22647  21763229.230    21763236.1464
 01  4 19 16  4  0.0010000  0  7 24 26 02 04 05 07 09
  23138541.823    -2550654.742 8  -1977334.20846  23138540.901    23138551.8284
  24793242.228     -528934.993 7   -424500.27845  24793241.796    24793253.5924
  22303571.538     -896398.748 8   -711233.96547  22303570.309    22303578.5694
  21032250.444    -1974984.361 9  -1536598.87647  21032249.946    21032257.2294
  24592254.873    -2290129.700 7  -1772792.90445  24592253.428    24592263.3974
  21784313.271     -767925.833 9   -824325.82847  21784311.995    21784319.3644
  21754407.103    -1947585.713 9  -1514469.77947  21754406.318    21754413.2624
 01  4 19 16  4 30.0010000  0  7 24 26 02 04 05 07 09
  23119384.890    -2651325.353 8  -2055778.77846  23119383.914    23119394.8594
  24808271.855     -449953.688 7   -362956.50345  24808271.401    24808283.3384
  22311898.560     -852640.902 8   -677137.00747  22311897.265    22311905.5844
  21023107.919    -2023028.422 9  -1574035.75547  21023107.456    21023114.6714
  24576028.314    -2375401.571 8  -1839238.45445  24576026.771    24576036.6154
  21795105.913     -711210.309 9   -780131.95147  21795104.633    21795112.0004
  21745680.111    -1993446.612 9  -1550205.54347  21745679.319    21745686.2044
 01  4 19 16  5  0.0010000  0  7 24 26 02 04 05 07 09
  23100267.938    -2751784.355 8  -2134058.45546  23100267.118    23100278.0824
  24823305.212     -370953.301 7   -301397.85845  24823304.873    24823316.5974
  22320274.544     -808624.708 8   -642838.75147  22320273.306    22320281.6894
  21014070.907    -2070518.453 9  -1611040.91347  21014070.442    21014077.5854
  24559798.518    -2460690.115 8  -1905697.00045  24559797.126    24559806.7634
  21805927.347     -654342.903 9   -735819.73347  21805926.122    21805933.5264
  21737049.392    -2038801.290 9  -1585546.84647  21737048.654    21737055.4784
 01  4 19 16  5 30.0010000  0  7 24 26 02 04 05 07 09
  23081191.998    -2852028.863 8  -2212170.98746  23081191.184    23081202.2194
  24838341.785     -291936.585 7   -239826.49245  24838341.573    24838353.1234
  22328699.864     -764349.602 8   -608338.74047  22328698.653    22328707.0874
  21005139.616    -2117452.672 9  -1647612.98147  21005139.145    21005146.3094
  24543565.475    -2545994.729 7  -1972168.05345  24543564.044    24543573.7634
  21816777.392     -597325.152 9   -691390.34947  21816776.250    21816783.7084
  21728515.395    -2083648.039 9  -1620492.36047  21728514.622    21728521.4914
 01  4 19 16  6  0.0010000  0  7 24 26 02 04 05 07 09
  23062157.186    -2952056.630 8  -2290114.63646  23062156.462    23062167.5744
  24853380.919     -212906.816 7   -178244.95645  24853380.532    24853392.2024
  22337174.606     -719815.340 8   -573636.79147  22337173.406    22337181.8294
  20996314.280    -2163829.795 9  -1683750.94747  20996313.844    20996321.0324
  24527329.564    -2631315.189 7  -2038651.47245  24527328.094    24527337.7294
  21827655.939     -540158.798 9   -646845.17647  21827654.729    21827662.2044
  21720078.284    -2127985.395 9  -1655040.95247  21720077.513    21720084.3734
 01  4 19 16  6 30.0010000  0  7 24 26 02 04 05 07 09
  23043164.190    -3051865.365 8  -2367887.60146  23043163.390    23043174.5674
  24868421.720     -133867.517 8   -116656.00845  24868421.320    24868433.1074
  22345698.590     -675022.213 8   -538733.13547  22345697.405    22345705.8154
  20987595.189    -2209648.846 9  -1719454.05847  20987594.751    20987601.9504
  24511090.711    -2716651.527 7  -2105147.24745  24511089.156    24511098.7714
  21838562.268     -482845.920 9   -602185.80447  21838561.049    21838568.5354
  21711738.291    -2171812.609 9  -1689192.02347  21711737.507    21711744.3054
 01  4 19 16  7  0.0010000  0  7 24 26 02 04 05 07 09
  23024213.539    -3151451.175 8  -2445486.86746  23024212.839    23024224.0214
  24883464.226      -54820.292 8    -55060.89145  24883463.756    24883475.2634
  22354272.133     -629968.516 8   -503626.44247  22354270.980    22354279.3754
  20978982.950    -2254906.643 9  -1754719.84547  20978982.513    20978989.6864
  24494849.092    -2802001.758 8  -2171653.87645  24494847.599    24494857.2484
  21849496.439     -425386.681 9   -557412.39547  21849495.249    21849502.7474
  21703495.924    -2215126.581 9  -1722943.18147  21703495.183    21703501.9664
 01  4 19 16  7 30.0010000  0  7 24 26 02 04 05 07 09
  23005305.917    -3250811.166 8  -2522910.15446  23005305.219    23005316.3654
  24898507.679       24231.644 7      6537.91845  24898507.032    24898518.3834
  22362895.347     -584654.337 8   -468316.76347  22362894.120    22362902.5134
  20970477.626    -2299602.109 9  -1789547.43947  20970477.181    20970484.3704
  24478604.891    -2887365.568 7  -2238171.06145  24478603.476    24478612.7324
  21860458.115     -367782.927 9   -512526.38647  21860456.930    21860464.4734
  21695351.459    -2257926.326 9  -1756293.63147  21695350.691    21695357.4374
 01  4 19 16  8  0.0010000  0  7 24 26 02 04 05 07 09
  22986441.720    -3349942.863 8  -2600155.55646  22986441.038    22986452.1404
  24913551.297      103285.781 7     68138.42845  24913550.648    24913562.0634
  22371568.037     -539078.926 8   -432803.53047  22371566.817    22371575.3164
  20962079.707    -2343733.089 9  -1823935.18047  20962079.324    20962086.5324
  24462358.199    -2972742.070 8  -2304698.12645  24462356.913    24462365.8394
  21871447.062     -310035.767 9   -467528.63747  21871445.883    21871453.4504
  21687305.204    -2300209.797 9  -1789241.79647  21687304.461    21687311.2384
 01  4 19 16  8 30.0010000  0  7 24 26 02 04 05 07 09
  22967621.719    -3448842.831 8  -2677220.37446  22967620.987    22967632.0234
  24928594.718      182339.416 7    129738.52945  24928593.984    24928605.5444
  22380290.517     -493241.487 8   -397086.11947  22380289.368    22380297.9064
  20953789.589    -2387297.891 9  -1857881.73447  20953789.213    20953796.4314
  24446109.241    -3058130.397 8  -2371234.42245  24446107.882    24446116.8364
  21882463.055     -252146.380 9   -422420.05347  21882461.897    21882469.4254
  21679357.502    -2341975.292 9  -1821786.33747  21679356.754    21679363.5794
 01  4 19 16  9  0.0010000  0  7 24 26 02 04 05 07 09
  22948846.065    -3547508.964 8  -2754102.98946  22948845.365    22948856.4614
  24943637.572      261389.424 8    191335.84545  24943636.829    24943648.3124
  22389063.090     -447142.064 8   -361164.56746  22389061.885    22389070.3434
  20945607.528    -2430295.120 9  -1891386.02947  20945607.138    20945614.3034
  24429858.130    -3143530.160 7  -2437779.64945  24429856.633    24429865.8554
  21893505.840     -194116.457 9   -377201.96247  21893504.692    21893512.1574
  21671508.541    -2383221.546 9  -1853926.27647  21671507.837    21671514.7364
 01  4 19 16  9 30.0010000  0  7 24 26 02 04 05 07 09
  22930115.454    -3645938.427 8  -2830801.17546  22930114.782    22930125.9164
  24958679.226      340432.729 7    252927.92445  24958678.466    24958689.8774
  22397885.456     -400780.361 8   -325038.64146  22397884.337    22397892.7494
  20937533.624    -2472723.484 9  -1924447.04647  20937533.267    20937540.3924
  24413604.701    -3228941.000 7  -2504333.48745  24413603.464    24413612.7014
  21904575.120     -135947.606 9   -331875.61947  21904573.929    21904581.3524
  21663758.746    -2423947.147 9  -1885660.51647  21663758.042    21663764.9434
 01  4 19 16 10  0.0010000  0  7 24 26 02 04 05 07 09
  22911430.519    -3744128.252 8  -2907312.62146  22911429.838    22911440.9884
  24973719.031      419466.928 7    314512.90545  24973718.344    24973729.6374
  22406757.988     -354155.705 8   -288707.81546  22406756.825    22406765.1534
  20929568.457    -2514580.938 9  -1957063.20247  20929568.062    20929575.1854
  24397349.534    -3314361.680 7  -2570894.98845  24397348.427    24397357.8224
  21915670.609      -77640.751 9   -286441.73647  21915669.418    21915676.8894
  21656108.342    -2464150.354 9  -1916987.69447  21656107.649    21656114.5074
 01  4 19 16 10 30.0010000  0  7 24 26 02 04 05 07 09
  22892791.689    -3842076.171 8  -2983635.57046  22892790.951    22892802.0524
  24988756.585      498488.676 7    376088.19545  24988755.893    24988767.2324
  22415680.409     -307268.157 8   -252172.14746  22415679.258    22415687.5404
  20921712.047    -2555866.562 9  -1989233.77947  20921711.650    20921718.7854
  24381092.731    -3399792.105 7  -2637464.07545  24381091.651    24381100.9584
  21926791.952      -19197.828 9   -240901.82347  21926790.769    21926798.2914
  21648557.666    -2503830.141 9  -1947907.01247  21648556.956    21648563.7344
 01  4 19 16 11  0.0010000  0  7 24 26 02 04 05 07 09
  22874199.420    -3939779.390 8  -3059767.83946  22874198.672    22874209.6364
  25003791.370      577495.398 8    437651.76045  25003790.666    25003801.7974
  22424652.939     -260117.139 8   -215431.18046  22424651.857    22424660.1564
  20913964.767    -2596578.670 9  -2020957.46747  20913964.404    20913971.4654
  24364834.324    -3485231.191 7  -2704039.92045  24364833.207    24364842.2974
  21937939.023       39379.959 9   -195256.82747  21937937.811    21937945.3094
  21641106.792    -2542984.560 9  -1978416.95147  21641106.094    21641112.9084
 01  4 19 16 11 30.0010000  0  7 24 26 02 04 05 07 09
  22855654.176    -4037235.013 8  -3135707.18046  22855653.460    22855664.3324
  25018822.436      656484.086 7    499201.26845  25018821.780    25018833.0294
  22433675.858     -212702.355 8   -178484.68046  22433674.720    22433682.9314
  20906326.892    -2636715.789 9  -2052233.10747  20906326.531    20906333.5754
  24348573.904    -3570678.485 7  -2770622.15445  24348572.934    24348582.0124
  21949111.407       98091.019 9   -149507.98947  21949110.207    21949117.6994
  21633756.111    -2581612.526 9  -2008516.67147  21633755.453    21633762.2484
 01  4 19 16 12  0.0010000  0  7 24 26 02 04 05 07 09
  22837156.861    -4134438.952 8  -3211450.39346  22837156.086    22837166.9624
  25033849.875      735453.446 7    560735.72545  25033849.247    25033860.6534
  22442749.156     -165022.000 8   -141331.23446  22442748.019    22442756.3144
  20898798.953    -2676275.135 9  -2083058.53447  20898798.593    20898805.6904
  24332312.307    -3656131.902 7  -2837209.16845  24332311.551    24332320.6284
  21960309.063      156935.657 9   -103655.06947  21960307.935    21960315.4704
  21626506.254    -2619711.006 9  -2038203.79947  21626505.572    21626512.3764
 01  4 19 16 12 30.0010000  0  7 24 26 02 04 05 07 09
  22818707.831    -4231389.211 8  -3286995.94246  22818707.038    22818717.8984
  25048872.761      814399.943 7    622252.36145  25048872.256    25048883.7674
  22451872.819     -117076.217 8   -103970.95846  22451871.753    22451880.2904
  20891381.177    -2715255.822 9  -2113433.05847  20891380.818    20891387.9124
  24316049.981    -3741591.294 8  -2903800.81445  24316049.170    24316058.3904
  21971531.799      215911.701 9    -57699.75847  21971530.716    21971538.2924
  21619357.196    -2657279.317 9  -2067477.80047  21619356.521    21619363.3264
 01  4 19 16 13  0.0010000  0  7 24 26 02 04 05 07 09
  22800307.501    -4328083.491 8  -3362342.02946  22800306.706    22800317.5864
  25063890.853      893320.098 7    683748.48045  25063890.319    25063901.7344
  22461047.036      -68865.684 8    -66404.39046  22461045.941    22461054.5914
  20884073.640    -2753657.245 9  -2143356.21047  20884073.287    20884080.3594
  24299786.728    -3827056.802 8  -2970397.25245  24299785.718    24299794.9614
  21982779.244      275017.146 9    -11643.62747  21982778.179    21982785.7744
  21612309.262    -2694316.788 9  -2096338.16847  21612308.590    21612315.3314
 01  4 19 16 13 30.0010000  0  7 24 26 02 04 05 07 09
  22781956.253    -4424519.374 8  -3437486.76346  22781955.500    22781966.4294
  25078903.408      972211.050 7    745221.82845  25078902.915    25078914.2854
  22470271.831      -20389.946 8    -28631.16846  22470270.695    22470279.3394
  20876876.540    -2791478.228 9  -2172827.06647  20876876.140    20876883.2264
  24283522.159    -3912527.488 8  -3036997.70945  24283521.139    24283530.4074
  21994051.161      334250.581 9     34512.23847  21994050.036    21994057.6224
  21605362.598    -2730822.031 9  -2124783.80647  21605361.889    21605368.6254
 01  4 19 16 14  0.0010000  0  7 24 26 02 04 05 07 09
  22763654.968    -4520693.552 8  -3512427.56746  22763654.130    22763665.0364
  25093909.939     1051070.689 7    806670.76745  25093909.619    25093920.7104
  22479547.234       28351.922 8      9349.41546  22479546.044    22479554.7794
  20869790.193    -2828716.461 9  -2201843.83547  20869789.825    20869796.9574
  24267256.593    -3998002.195 8  -3103601.30945  24267255.738    24267265.1164
  22005347.170      393611.316 9     80767.30447  22005346.036    22005353.6644
  21598517.597    -2766792.760 9  -2152812.94847  21598516.888    21598523.5934
 01  4 19 16 14 30.0010000  0  7 24 26 02 04 05 07 09
  22745403.794    -4616603.555 8  -3587162.53346  22745402.986    22745413.7954
  25108909.912     1129895.816 7    868092.81445  25108909.584    25108920.9114
  22488873.232       77360.030 8     47537.45946  22488872.058    22488880.8324
  20862814.992    -2865371.218 9  -2230405.94847  20862814.664    20862821.7424
  24250990.749    -4083480.540 8  -3170207.74545  24250989.849    24250999.0774
  22016667.153      453097.645 9    127120.24447  22016665.999    22016673.6364
  21591774.425    -2802228.053 9  -2180424.86247  21591773.766    21591780.5134
 01  4 19 16 15  0.0010000  0  7 24 26 02 04 05 07 09
  22727203.454    -4712246.163 8  -3661689.14146  22727202.725    22727213.4364
  25123903.069     1208684.309 7    929486.31045  25123902.574    25123914.0644
  22498250.101      126635.167 8     85933.59146  22498248.926    22498257.7114
  20855951.245    -2901440.527 9  -2258511.86347  20855950.906    20855957.9464
  24234724.456    -4168961.047 8  -3236815.86945  24234723.471    24234732.6754
  22028010.905      512708.876 9    173570.51247  22028009.726    22028017.2944
  21585133.552    -2837126.268 9  -2207618.28047  21585132.903    21585139.6514
 01  4 19 16 15 30.0010000  0  7 24 26 02 04 05 07 09
  22709054.600    -4807618.380 8  -3736005.05246  22709053.869    22709064.5264
  25138888.451     1287433.796 7    990849.40345  25138888.100    25138899.6894
  22507677.879      176178.036 8    124538.33346  22507676.729    22507685.5284
  20849199.200    -2936922.763 9  -2286160.33147  20849198.850    20849205.8374
  24218457.622    -4254442.493 7  -3303424.72545  24218456.672    24218465.9144
  22039378.098      572444.139 9    220117.43047  22039376.997    22039384.5944
  21578595.268    -2871485.519 9  -2234391.73447  21578594.620    21578601.3514
 01  4 19 16 16  0.0010000  0  7 24 26 02 04 05 07 09
  22690957.935    -4902716.491 8  -3810107.38846  22690957.197    22690967.8974
  25153866.413     1366142.251 7   1052180.53145  25153866.051    25153877.5924
  22517156.792      225989.718 8    163352.53646  22517155.667    22517164.5484
  20842559.235    -2971815.848 9  -2313349.71347  20842558.937    20842565.8984
  24202190.914    -4339923.454 7  -3370033.20845  24202190.092    24202199.3084
  22050768.863      632302.819 9    266760.50147  22050767.771    22050775.3984
  21572159.877    -2905303.738 9  -2260743.60847  21572159.255    21572165.9694
 01  4 19 16 16 30.0010000  0  7 24 26 02 04 05 07 09
  22672913.497    -4997539.423 8  -3883995.29246  22672912.859    22672923.6024
  25168835.645     1444805.410 7   1113476.35545  25168835.267    25168847.0494
  22526686.636      276069.149 8    202375.38646  22526685.520    22526694.4004
  20836031.331    -3006119.972 9  -2340080.15847  20836031.046    20836038.0194
  24185924.319    -4425404.503 7  -3436641.75645  24185923.554    24185932.8774
  22062182.652      692282.150 9    313497.60447  22062181.539    22062189.1404
  21565827.463    -2938581.157 9  -2286674.07247  21565826.789    21565833.4884
 01  4 19 16 17  0.0010000  0  7 24 26 02 04 05 07 09
  22654922.056    -5092084.704 8  -3957666.84746  22654921.404    22654932.2464
  25183795.821     1523420.504 7   1174734.73245  25183795.372    25183807.0964
  22536267.478      326416.579 8    241607.05946  22536266.387    22536275.3104
  20829615.759    -3039834.186 9  -2366350.94747  20829615.457    20829622.4074
  24169657.976    -4510885.031 7  -3503249.88845  24169657.164    24169666.5184
  22073619.142      752380.803 9    360327.67547  22073617.992    22073625.5544
  21559598.077    -2971316.604 9  -2312182.23147  21559597.441    21559604.1574
 01  4 19 16 17 30.0010000  0  7 24 26 02 04 05 07 09
  22636984.172    -5186348.798 8  -4031119.30446  22636983.502    22636994.3404
  25198746.092     1601984.964 7   1235953.63545  25198745.850    25198757.3044
  22545899.523      377032.688 8    281048.08346  22545898.429    22545907.2814
  20823312.711    -3072956.830 9  -2392160.77247  20823312.421    20823319.3374
  24153392.000    -4596363.902 7  -3569856.73645  24153391.045    24153400.4204
  22085078.038      812597.725 8    407249.90547  22085076.879    22085084.4944
  21553472.126    -3003508.481 9  -2337266.82247  21553471.522    21553478.2854
 01  4 19 16 18  0.0010000  0  6 24 02 04 05 07 09
  22619100.156    -5280329.593 8  -4104351.00246  22619099.523    22619110.3354
  22555582.742      427917.580 8    320698.54946  22555581.595    22555590.4104
  20817122.515    -3105486.677 9  -2417508.67547  20817122.196    20817129.0924
  24137126.368    -4681839.939 7  -3636461.37845  24137125.416    24137134.7624
  22096559.206      872931.816 8    454263.44247  22096558.101    22096565.7494
  21547449.873    -3035155.525 9  -2361926.86747  21547449.311    21547456.0654
 01  4 19 16 18 30.0010000  0  6 24 02 04 05 07 09
  22601272.340    -5374015.281 8  -4177352.74346  22601271.665    22601282.3934
  22565318.746      479080.299 8    360565.49646  22565317.635    22565326.3894
  20811046.877    -3137413.978 9  -2442387.06447  20811046.582    20811053.4784
  24120863.058    -4767303.751 7  -3703056.49045  24120862.145    24120871.6084
  22108064.162      933390.523 9    501374.08547  22108063.066    22108070.7094
  21541533.302    -3066247.844 9  -2386154.65847  21541532.687    21541539.4344
 01  4 19 16 19  0.0010000  0  6 24 02 04 05 07 09
  22583498.821    -5467415.327 8  -4250131.91246  22583498.170    22583508.8134
  22575105.391      530508.758 8    400639.51946  22575104.270    22575112.9864
  20805083.799    -3168750.059 9  -2466804.76647  20805083.531    20805090.4244
  24104599.993    -4852766.899 7  -3769651.08645  24104599.103    24104608.4144
  22119590.257      993960.068 8    548571.09047  22119589.157    22119596.7484
  21535720.084    -3096796.658 9  -2409958.94447  21535719.462    21535726.2054
 01  4 19 16 19 30.0010000  0  6 24 02 04 05 07 09
  22565780.226    -5560526.054 8  -4322685.63846  22565779.666    22565790.3834
  22584942.975      582205.204 8    440922.35246  22584941.900    22584950.5784
  20799233.711    -3199492.186 9  -2490759.64547  20799233.500    20799240.3794
  24088337.573    -4938226.817 7  -3836243.17245  24088336.632    24088345.9094
  22131137.509     1054641.237 8    595855.07447  22131136.443    22131144.0694
  21530010.846    -3126798.800 9  -2433337.24847  21530010.214    21530017.0104
 01  4 19 16 20  0.0010000  0  6 24 02 04 05 07 09
  22548117.620    -5653343.272 8  -4395010.64646  22548117.084    22548127.8434
  22594831.783      634171.188 8    481415.22446  22594830.784    22594839.3974
  20793497.320    -3229637.141 9  -2514249.19247  20793497.082    20793503.9654
  24072075.956    -5023681.326 7  -3902831.03045  24072075.010    24072084.4054
  22142705.997     1115434.021 8    643226.03447  22142704.934    22142712.6184
  21524406.074    -3156251.976 9  -2456287.78547  21524405.504    21524412.3064
 01  4 19 16 20 30.0010000  0  6 24 02 04 05 07 09
  22530511.625    -5745863.190 8  -4467104.00546  22530511.082    22530521.7804
  22604772.170      686407.613 8    522118.81846  22604771.152    22604779.7614
  20787874.704    -3259184.204 9  -2537272.85547  20787874.454    20787881.3524
  24055815.701    -5109128.652 7  -3969413.30745  24055814.876    24055824.2284
  22154295.675     1176337.867 8    690683.52747  22154294.621    22154302.3254
  21518906.218    -3185154.221 9  -2478809.03047  21518905.651    21518912.4344
 01  4 19 16 21  0.0010000  0  6 24 02 04 05 07 09
  22512962.673    -5838083.691 8  -4538964.03746  22512962.051    22512972.6634
  22614763.981      738914.187 8    563032.92146  22614762.925    22614771.5684
  20782366.037    -3288132.372 9  -2559829.84847  20782365.768    20782372.6894
  24039557.068    -5194568.591 8  -4035989.81645  24039556.191    24039565.5814
  22165906.129     1237351.019 8    738226.20147  22165905.063    22165912.7974
  21513511.371    -3213504.871 9  -2500900.45047  21513510.746    21513517.4854
 01  4 19 16 21 30.0010000  0  6 24 02 04 05 07 09
  22495471.081    -5930002.325 8  -4610588.86946  22495470.490    22495480.9684
  22624807.213      791691.331 8    604157.84846  22624806.122    22624814.8274
  20776971.515    -3316480.612 9  -2581919.35847  20776971.282    20776978.2164
  24023300.178    -5279999.940 8  -4102559.64145  24023299.316    24023308.2184
  22177537.209     1298472.570 8    785853.33847  22177536.171    22177543.8974
  21508221.542    -3241302.652 9  -2522561.06647  21508220.969    21508227.8024
 01  4 19 16 22  0.0010000  0  6 24 02 04 05 07 09
  22478037.597    -6021616.093 8  -4681976.12746  22478036.969    22478047.3474
  22634902.067      844739.452 8    645493.91746  22634900.983    22634909.7234
  20771691.535    -3344227.687 9  -2603540.43847  20771691.257    20771698.0984
  24007045.037    -5365421.815 8  -4169122.08745  24007044.000    24007052.7924
  22189188.705     1359701.383 8    833564.07247  22189187.695    22189195.4004
  21503037.197    -3268546.456 9  -2543790.01547  21503036.637    21503043.4464
 01  4 19 16 22 30.0010000  0  6 24 02 04 05 07 09
  22460662.673    -6112921.542 8  -4753123.13846  22460662.057    22460672.4324
  22645048.561      898059.448 8    687041.83846  22645047.539    22645056.3184
  20766526.153    -3371372.192 9  -2624691.97947  20766525.813    20766532.6964
  23990791.810    -5450832.484 8  -4235675.77645  23990790.812    23990799.5914
  22200860.599     1421037.154 8    881358.15947  22200859.585    22200867.2584
  21497958.693    -3295234.490 9  -2564585.89647  21497958.093    21497964.8414
 01  4 19 16 23  0.0010000  0  6 24 02 04 05 07 09
  22443346.932    -6203915.940 8  -4824027.77746  22443346.365    22443356.7734
  22655246.791      951651.674 8    728801.87746  22655245.780    22655254.7134
  20761475.563    -3397912.748 9  -2645372.91347  20761475.300    20761482.2504
  23974540.973    -5536231.050 8  -4302220.04445  23974539.862    23974548.8674
  22212552.631     1482478.510 8    929234.51147  22212551.540    22212559.1704
  21492986.064    -3321365.825 9  -2584947.98647  21492985.476    21492992.1814
 01  4 19 16 23 30.0010000  0  6 24 02 04 05 07 09
  22426090.759    -6294597.289 8  -4894688.47447  22426090.161    22426100.7174
  22665497.020     1005516.392 8    770774.25746  22665495.984    22665504.9144
  20756540.048    -3423849.037 9  -2665582.98847  20756539.767    20756546.7404
  23958292.589    -5621616.544 8  -4368754.13045  23958291.580    23958300.5844
  22224264.420     1544024.232 8    977192.18147  22224263.303    22224270.9544
  21488119.675    -3346939.425 9  -2604875.48247  21488119.085    21488125.7234
 01  4 19 16 24  0.0010000  0  6 24 02 04 05 07 09
  22408894.648    -6384962.620 8  -4965102.92747  22408894.086    22408904.7034
  22675799.156     1059653.755 8    812959.08446  22675798.111    22675807.0604
  20751719.707    -3449180.133 9  -2685321.49247  20751719.464    20751726.3924
  23942046.747    -5706988.316 8  -4435277.53445  23942045.796    23942054.8454
  22235995.740     1605673.111 8   1025230.24147  22235994.681    22236002.3724
  21483359.469    -3371954.470 9  -2624367.74547  21483358.900    21483365.5754
 01  4 19 16 24 30.0010000  0  6 24 02 04 05 07 09
  22391759.053    -6475010.167 8  -5035269.75547  22391758.528    22391769.0734
  22686152.777     1114062.876 8    855355.66446  22686151.824    22686160.9024
  20747014.550    -3473905.885 9  -2704588.29947  20747014.281    20747021.2204
  23925803.772    -5792346.219 8  -4501790.12645  23925802.751    23925811.8014
  22247746.352     1667423.026 8   1073347.01247  22247745.356    22247753.0254
  21478705.555    -3396410.634 9  -2643424.51247  21478705.022    21478711.7794
 01  4 19 16 25  0.0010000  0  6 24 02 04 05 07 09
  22374684.771    -6564736.514 8  -5105186.30447  22374684.179    22374694.6114
  22696558.415     1168744.961 8    897964.94346  22696557.520    22696566.6804
  20742424.693    -3498025.123 9  -2723382.50147  20742424.478    20742431.4544
  23909563.749    -5877688.479 8  -4568290.53145  23909562.654    23909571.6354
  22259516.309     1729273.867 8   1121542.42447  22259515.278    22259522.8684
  21474158.375    -3420306.334 9  -2662044.55147  21474157.830    21474164.6194
 01  4 19 16 25 30.0010000  0  6 24 02 04 05 07 09
  22357671.967    -6654139.031 8  -5174850.51447  22357671.396    22357681.7824
  22707016.150     1223699.823 8    940786.77246  22707015.170    22707024.3904
  20737950.550    -3521536.922 9  -2741703.36847  20737950.336    20737957.3014
  23893326.632    -5963014.259 8  -4634778.08145  23893325.545    23893334.6714
  22271305.135     1791224.086 8   1169815.28147  22271304.097    22271311.6714
  21469718.096    -3443640.419 9  -2680226.97347  21469717.544    21469724.2964
 01  4 19 16 26  0.0010000  0  6 24 02 04 05 07 09
  22340721.442    -6743214.804 8  -5244260.11447  22340720.851    22340731.1834
  22717525.989     1278928.340 8    983821.83646  22717524.954    22717534.1834
  20733592.311    -3544439.698 9  -2759549.67347  20733592.063    20733599.0114
  23877093.076    -6048321.808 8  -4701251.43545  23877092.023    23877101.1534
  22283112.754     1853273.437 8   1218165.38547  22283111.753    22283119.3224
  21465384.978    -3466411.427 9  -2697970.62847  21465384.404    21465391.1654
 01  4 19 16 26 30.0010000  0  6 24 02 04 05 07 09
  22323833.310    -6831962.201 8  -5313413.84847  22323832.733    22323843.0864
  22728087.778     1334429.985 8   1027069.72146  22728086.713    22728096.0514
  20729349.879    -3566733.895 9  -2776921.76347  20729349.640    20729356.5764
  23860863.154    -6133611.080 8  -4767710.55045  23860862.048    23860870.9964
  22294938.855     1915419.748 8   1266591.03047  22294937.845    22294945.4234
  21461158.906    -3488619.549 9  -2715275.67947  21461158.349    21461165.1394
 01  4 19 16 27  0.0010000  0  6 24 02 04 05 07 09
  22307008.182    -6920377.946 8  -5382309.13247  22307007.680    22307018.0654
  22738701.568     1390205.621 8   1070531.11546  22738700.545    22738709.9444
  20725223.514    -3588417.823 9  -2793818.31447  20725223.296    20725230.2024
  23844636.935    -6218880.302 8  -4834154.02845  23844635.852    23844644.7144
  22306783.337     1977662.700 8   1315091.97047  22306782.326    22306789.9834
  21457040.341    -3510263.067 9  -2732140.77647  21457039.771    21457046.5524
 01  4 19 16 27 30.0010000  0  6 24 02 04 05 07 09
  22290246.868    -7008458.664 8  -5450943.36347  22290246.404    22290256.7764
  22749367.728     1446255.968 8   1114206.56746  22749366.761    22749376.1254
  20721213.590    -3609490.354 9  -2810238.45347  20721213.343    20721220.2324
  23828414.705    -6304127.880 8  -4900580.64745  23828413.703    23828422.6764
  22318646.154     2040001.888 8   1363667.89947  22318645.133    22318652.8514
  21453029.413    -3531340.651 9  -2748564.88247  21453028.857    21453035.6034
 01  4 19 16 28  0.0010000  0  6 24 02 04 05 07 09
  22273549.691    -7096202.520 8  -5519315.09547  22273549.223    22273559.6424
  22760086.157     1502580.303 8   1158095.51346  22760085.100    22760094.4874
  20717319.929    -3629951.754 9  -2826182.38247  20717319.708    20717326.5664
  23812196.573    -6389353.786 8  -4966990.38945  23812195.630    23812204.7364
  22330526.901     2102435.294 8   1412317.25647  22330525.908    22330533.6274
  21449126.260    -3551852.190 9  -2764547.92247  21449125.689    21449132.3914
 01  4 19 16 28 30.0010000  0  6 24 02 04 05 07 09
  22256917.148    -7183607.334 8  -5587422.64447  22256916.607    22256927.0174
  22770856.640     1559178.488 8   1202197.86046  22770855.575    22770864.9554
  20713542.607    -3649801.691 9  -2841649.84547  20713542.363    20713549.2424
  23795982.906    -6474557.230 8  -5033382.62945  23795981.935    23795991.0164
  22342425.295     2164961.464 8   1461038.88647  22342424.321    22342432.0664
  21445330.857    -3571797.236 9  -2780089.53847  21445330.307    21445337.0164
 01  4 19 16 29  0.0010000  0  6 24 02 04 05 07 09
  22240349.423    -7270670.901 8  -5655264.27147  22240348.847    22240359.2134
  22781679.106     1616050.356 8   1246513.44446  22781678.192    22781687.4374
  20709881.675    -3669039.992 9  -2856640.71247  20709881.467    20709888.2934
  23779773.801    -6559737.435 8  -5099756.74445  23779772.776    23779781.6624
  22354341.068     2227579.056 8   1509831.75647  22354340.062    22354347.8444
  21441643.335    -3591175.396 9  -2795189.42147  21441642.790    21441649.5094
 01  4 19 16 29 30.0010000  0  6 24 02 04 05 07 09
  22223847.160    -7357390.151 8  -5722837.61347  22223846.602    22223856.9024
  22792553.887     1673196.782 8   1291042.96446  22792552.974    22792562.2024
  20706337.447    -3687665.163 9  -2871153.82047  20706337.231    20706344.0284
  23763569.384    -6644892.575 8  -5166111.33845  23763568.354    23763576.9954
  22366274.288     2290287.802 8   1558695.65747  22366273.251    22366281.0254
  21438064.027    -3609985.242 9  -2809846.46847  21438063.437    21438070.1524
 01  4 19 16 30  0.0010000  0  6 24 02 04 05 07 09
  22207411.018    -7443762.112 8  -5790140.33647  22207410.490    22207420.6914
  22803480.882     1730617.960 8   1335786.57646  22803479.999    22803489.1934
  20702910.049    -3705676.334 9  -2885188.48647  20702909.824    20702916.6234
  23747369.761    -6730021.760 8  -5232445.70145  23747368.819    23747377.3354
  22378224.609     2353086.701 8   1607629.82047  22378223.548    22378231.2784
  21434592.951    -3628225.654 9  -2824059.79047  21434592.380    21434599.1464
 01  4 19 16 30 30.0010000  0  6 24 02 04 05 07 09
  22191041.542    -7529784.325 8  -5857170.52147  22191041.002    22191051.1684
  22814460.396     1788314.538 8   1380744.79246  22814459.508    22814468.6244
  20699599.566    -3723072.959 9  -2898744.28647  20699599.375    20699606.1834
  23731175.185    -6815123.203 8  -5298758.45445  23731174.290    23731183.0324
  22390191.838     2415975.200 8   1656633.79847  22390190.794    22390198.6004
  21431230.438    -3645895.626 9  -2837828.62147  21431229.908    21431236.7114
 01  4 19 16 31  0.0010000  0  6 24 02 04 05 07 09
  22174739.030    -7615454.384 8  -5923926.30547  22174738.508    22174748.6354
  22825492.147     1846286.052 8   1425917.24246  22825491.261    22825500.3584
  20696406.099    -3739854.995 9  -2911821.18647  20696405.856    20696412.6394
  23714986.013    -6900196.385 8  -5365049.20945  23714985.277    23714994.0834
  22402175.731     2478951.688 8   1705706.33247  22402174.777    22402182.6474
  21427976.621    -3662994.791 9  -2851152.66647  21427976.091    21427982.8494
 01  4 19 16 31 30.0010000  0  6 24 02 04 05 07 09
  22158504.128    -7700769.519 9  -5990405.51447  22158503.567    22158513.6244
  22836576.237     1904532.482 8   1471303.90346  22836575.268    22836584.4324
  20693329.587    -3756022.002 9  -2924418.85347  20693329.386    20693336.1514
  23698802.797    -6985240.090 8  -5431316.98345  23698802.060    23698810.8174
  22414176.369     2542015.088 8   1754846.58747  22414175.399    22414183.2984
  21424831.472    -3679522.830 9  -2864031.67647  21424830.928    21424837.6594
 01  4 19 16 32  0.0010000  0  6 24 02 04 05 07 09
  22142336.861    -7785728.952 9  -6056607.56047  22142336.300    22142346.2544
  22847712.355     1963053.046 8   1516904.19246  22847711.378    22847720.6734
  20690370.033    -3771574.505 9  -2936537.67847  20690369.795    20690376.5664
  23682625.505    -7070254.224 8  -5497561.70645  23682624.580    23682633.1884
  22426193.159     2605163.447 8   1804053.04747  22426192.160    22426200.0804
  21421795.038    -3695479.609 9  -2876465.55347  21421794.470    21421801.1794
 01  4 19 16 32 30.0010000  0  6 24 02 04 05 07 09
  22126237.905    -7870329.304 9  -6122529.79647  22126237.335    22126247.2204
  22858900.773     2021848.241 8   1562718.46846  22858899.803    22858909.2134
  20687527.642    -3786511.257 9  -2948176.69547  20687527.403    20687534.1904
  23666453.961    -7155237.161 8  -5563782.10545  23666452.836    23666461.4984
  22438225.887     2668396.314 8   1853325.37046  22438224.980    22438232.9754
  21418867.471    -3710864.311 9  -2888453.65247  21418866.917    21418873.5784
 01  4 19 16 33  0.0010000  0  6 24 02 04 05 07 09
  22110207.985    -7954566.802 9  -6188169.29447  22110207.402    22110217.2524
  22870141.554     2080919.174 8   1608747.61446  22870140.611    22870150.1834
  20684802.601    -3800831.302 9  -2959335.16547  20684802.379    20684809.1714
  23650288.438    -7240186.894 8  -5629976.65745  23650287.367    23650296.0164
  22450274.790     2731713.473 8   1902663.36246  22450273.858    22450281.8934
  21416049.032    -3725675.332 9  -2899994.73347  21416048.488    21416055.1664
 01  4 19 16 33 30.0010000  0  6 24 02 04 05 07 09
  22094247.457    -8038439.398 9  -6253524.44347  22094246.881    22094256.7174
  22881434.845     2140266.005 8   1654991.74246  22881433.992    22881443.7284
  20682195.014    -3814534.235 9  -2970012.76347  20682194.805    20682201.6244
  23634129.291    -7325102.408 8  -5696144.54345  23634128.404    23634136.9684
  22462339.593     2795114.146 8   1952066.43846  22462338.626    22462346.6454
  21413339.911    -3739911.970 9  -2911088.23847  21413339.393    21413346.1054
 01  4 19 16 34  0.0010000  0  6 24 02 04 05 07 09
  22078356.853    -8121944.874 9  -6318593.53447  22078356.242    22078366.0444
  22892780.814     2199888.945 8   1701450.99646  22892779.938    22892789.8224
  20679704.903    -3827619.596 9  -2980209.14047  20679704.708    20679711.6054
  23617976.870    -7409982.618 8  -5762284.91745  23617976.075    23617984.6964
  22474420.076     2858597.149 8   2001533.66446  22474419.133    22474427.1284
  21410740.284    -3753573.618 9  -2921733.70047  21410739.713    21410746.4264
 01  4 19 16 34 30.0010000  0  6 24 02 04 05 07 09
  22062536.454    -8205081.435 9  -6383375.14747  22062535.815    22062545.6024
  22904179.101     2259786.817 8   1748124.49846  22904178.208    22904188.1964
  20677332.166    -3840088.400 9  -2989925.08447  20677332.001    20677338.8854
  23601831.501    -7494827.319 8  -5828397.60445  23601830.743    23601839.2564
  22486515.844     2922160.586 8   2051063.57446  22486514.919    22486522.8714
  21408249.864    -3766660.918 9  -2931931.61847  21408249.307    21408256.0334
 01  4 19 16 35  0.0010000  0  6 24 02 04 05 07 09
  22046786.673    -8287846.254 9  -6447867.10447  22046786.088    22046795.8804
  22915629.750     2319959.584 8   1795012.20546  22915628.800    22915638.9074
  20675076.914    -3851940.052 9  -2999160.12448  20675076.742    20675083.5834
  23585693.227    -7579635.198 8  -5894481.62845  23585692.405    23585700.8604
  22498626.682     2985803.384 8   2100655.30546  22498625.765    22498633.6794
  21405868.805    -3779173.386 9  -2941681.61547  21405868.286    21405875.0404
 01  4 19 16 35 30.0010000  0  6 24 02 04 05 07 09
  22031107.964    -8370237.346 8  -6512067.84547  22031107.432    22031117.2824
  22927132.771     2380407.893 8   1842114.61946  22927131.827    22927142.0344
  20672939.196    -3863173.951 9  -3007913.80548  20672939.022    20672945.8204
  23569562.057    -7664404.825 8  -5960535.83045  23569561.232    23569569.7244
  22510752.736     3049525.255 8   2150308.65046  22510751.790    22510759.5914
  21403597.371    -3791109.996 9  -2950982.90447  21403596.868    21403603.5844
 01  4 19 16 36  0.0010000  0  6 24 02 04 05 07 09
  22015501.045    -8452251.566 9  -6575974.91847  22015500.576    22015510.4704
  22938688.374     2441132.103 8   1889432.01446  22938687.477    22938697.5904
  20670919.095    -3873789.749 9  -3016185.84248  20670918.911    20670925.7254
  23553438.362    -7749134.664 8  -6026559.03245  23553437.575    23553446.1534
  22522893.751     3113325.354 8   2200022.96146  22522892.636    22522900.4144
  21401435.710    -3802469.805 9  -2959834.72547  21401435.175    21401441.9194
 01  4 19 16 36 30.0010000  0  6 24 02 04 05 07 09
  21999966.237    -8533887.133 9  -6639586.94047  21999965.731    21999975.6534
  22950296.376     2502131.618 8   1936963.92546  22950295.490    22950305.5774
  20669016.641    -3883787.504 9  -3023976.29148  20669016.448    20669023.2354
  23537322.455    -7833823.932 8  -6092550.61545  23537321.701    23537330.3494
  22535049.176     3177202.311 8   2249797.15546  22535048.091    22535055.8504
  21399383.729    -3813252.952 9  -2968237.20347  21399383.225    21399389.9994
 01  4 19 16 37  0.0010000  0  6 24 02 04 05 07 09
  21984503.812    -8615142.331 9  -6702902.57847  21984503.305    21984513.2144
  22961956.734     2563406.076 8   1984710.07746  22961955.778    22961965.8844
  20667231.671    -3893167.649 9  -3031285.48748  20667231.453    20667238.2524
  23521214.545    -7918471.986 8  -6158510.09945  23521213.803    23521222.3754
  22547218.945     3241154.567 8   2299630.03846  22547217.856    22547225.6664
  21397441.503    -3823459.541 9  -2976190.41347  21397441.020    21397447.7954
 01  4 19 16 37 30.0010000  0  6 24 02 04 05 07 09
  21969114.458    -8696013.391 9  -6765918.89147  21969113.939    21969123.8264
  22973669.487     2624956.502 8   2032671.27646  22973668.620    22973678.7554
  20665564.413    -3901929.252 9  -3038112.70948  20665564.198    20665570.9554
  23505114.839    -8003076.768 8  -6224435.86345  23505113.968    23505122.5804
  22559403.084     3305182.274 8   2349521.71746  22559402.011    22559409.8374
  21395609.325    -3833088.160 9  -2983693.26247  21395608.808    21395615.6244
 01  4 19 16 38  0.0010000  0  6 24 02 04 05 07 09
  21953798.611    -8776498.290 9  -6828634.30447  21953798.102    21953807.9884
  22985434.772     2686782.286 8   2080847.04546  22985433.895    22985444.0084
  20664014.800    -3910072.430 9  -3044458.03348  20664014.590    20664021.3194
  23489023.342    -8087637.413 8  -6290327.22945  23489022.518    23489031.2274
  22571601.210     3369284.072 8   2399471.12646  22571600.216    22571608.0574
  21393886.992    -3842138.966 9  -2990745.86047  21393886.501    21393893.3354
 01  4 19 16 38 30.0010000  0  6 24 02 04 05 07 09
  21938556.699    -8856594.719 9  -6891047.01947  21938556.234    21938566.0754
  22997252.402     2748883.755 8   2129237.62446  22997251.594    22997261.6564
  20662582.983    -3917596.766 9  -3050321.14548  20662582.782    20662589.5304
  23472940.573    -8172152.423 8  -6356183.03345  23472939.792    23472948.5794
  22583813.423     3433459.401 8   2449477.82646  22583812.432    22583820.2774
  21392274.850    -3850610.973 9  -2997347.45447  21392274.366    21392281.2604
 01  4 19 16 39  0.0010000  0  6 24 02 04 05 07 09
  21923389.208    -8936300.544 9  -6953155.37047  21923388.704    21923398.4814
  23009122.451     2811260.561 8   2177842.75146  23009121.616    23009131.7154
  20661268.911    -3924502.474 9  -3055702.20848  20661268.701    20661275.4354
  23456866.755    -8256620.754 8  -6422002.44845  23456866.000    23456874.7634
  22596039.385     3497707.130 8   2499540.94146  22596038.428    22596046.2704
  21390772.832    -3858504.322 9  -3003498.14547  21390772.336    21390779.1884
 01  4 19 16 39 30.0010000  0  6 24 02 04 05 07 09
  21908295.966    -9015615.152 9  -7014958.87847  21908295.513    21908305.3014
  23021044.616     2873910.841 8   2226660.97946  23021043.723    23021053.7334
  20660072.172    -3930791.491 9  -3060602.73548  20660071.970    20660078.6554
  23440801.837    -8341042.887 8  -6487785.87345  23440800.912    23440809.7164
  22608278.591     3562024.490 8   2549658.31646  22608277.615    22608285.5284
  21389380.610    -3865820.555 9  -3009199.12947  21389380.110    21389386.9404
 01  4 19 16 40  0.0010000  0  6 24 02 04 05 07 09
  21893278.228    -9094533.443 9  -7076453.57647  21893277.769    21893287.6114
  23033019.320     2936837.328 8   2275694.43246  23033018.472    23033028.4174
  20658993.298    -3936460.973 9  -3065020.50748  20658993.097    20658999.7464
  23424746.309    -8425415.193 8  -6553530.48045  23424745.456    23424754.0904
  22620531.263     3626413.243 8   2599831.31846  22620530.353    22620538.3514
  21388098.760    -3872556.834 9  -3014448.21047  21388098.278    21388105.0484
 01  4 19 16 40 30.0010000  0  6 24 02 04 05 07 09
  21878336.194    -9173053.924 9  -7137638.28847  21878335.763    21878345.5624
  23045046.407     3000039.508 8   2324942.70846  23045045.576    23045055.5784
  20658032.189    -3941511.383 9  -3068955.88548  20658032.022    20658038.6514
  23408700.543    -8509736.572 8  -6619235.40745  23408699.684    23408708.1514
  22632797.322     3690872.081 8   2650058.91946  22632796.481    22632804.5554
  21386927.339    -3878713.166 9  -3019245.38247  21386926.809    21386933.5764
 01  4 19 16 41  0.0010000  0  6 24 02 04 05 07 09
  21863470.523    -9251174.025 9  -7198511.02647  21863470.025    21863479.6984
  23057125.857     3063517.012 8   2374405.50746  23057125.035    23057135.1684
  20657188.757    -3945943.394 9  -3072409.38548  20657188.626    20657195.2634
  23392664.504    -8594006.255 8  -6684900.03945  23392663.655    23392672.0404
  22645076.710     3755399.732 8   2700340.14146  22645075.770    22645083.8494
  21385866.261    -3884289.592 9  -3023590.67547  21385865.733    21385872.4864
 01  4 19 16 41 30.0010000  0  6 24 02 04 05 07 09
  21848681.306    -9328891.825 9  -7259070.27947  21848680.803    21848690.3764
  23069257.724     3127269.712 8   2424082.77446  23069256.856    23069267.1084
  20656463.138    -3949756.591 9  -3075380.69948  20656462.978    20656469.6414
  23376638.569    -8678222.989 8  -6750523.41646  23376637.781    23376645.9994
  22657368.932     3819995.349 8   2750674.33146  22657368.000    22657376.0324
  21384915.466    -3889285.783 9  -3027483.84047  21384914.991    21384921.7994
 01  4 19 16 42  0.0010000  0  6 24 02 04 05 07 09
  21833969.058    -9406204.760 9  -7319314.05347  21833968.578    21833978.1504
  23081442.042     3191297.601 8   2473974.46546  23081441.140    23081451.3084
  20655855.109    -3952951.533 9  -3077870.26347  20655854.969    20655861.6794
  23360623.065    -8762385.378 8  -6816104.45446  23360622.258    23360630.4234
  22669673.905     3884658.223 8   2801060.93946  22669672.972    22669681.0534
  21384075.206    -3893701.479 9  -3030924.67447  21384074.733    21384081.5694
 01  4 19 16 42 30.0010000  0  6 24 02 04 05 07 09
  21819334.126    -9483111.395 9  -7379241.23647  21819333.680    21819343.2034
  23093678.622     3255600.218 8   2524080.22346  23093677.709    23093687.7724
  20655364.755    -3955528.580 9  -3079878.34847  20655364.579    20655371.2824
  23344617.977    -8846492.627 8  -6881642.53246  23344617.108    23344625.3254
  22681991.334     3949387.122 8   2851498.99246  22681990.425    22681998.6254
  21383345.346    -3897537.092 9  -3033913.49547  21383344.858    21383351.7034
 01  4 19 16 43  0.0010000  0  6 24 02 04 05 07 09
  21804777.191    -9559608.786 9  -7438849.52447  21804776.727    21804786.0974
  23105967.587     3320177.748 8   2574400.18346  23105966.662    23105976.6884
  20654991.978    -3957487.388 9  -3081404.68647  20654991.817    20654998.5224
  23328623.677    -8930542.899 8  -6947136.21246  23328622.790    23328631.1224
  22694321.346     4014181.507 8   2901988.07846  22694320.449    22694328.6914
  21382725.913    -3900792.326 9  -3036450.07547  21382725.427    21382732.2834
 01  4 19 16 43 30.0010000  0  6 24 02 04 05 07 09
  21790298.542    -9635694.850 9  -7498137.29647  21790298.011    21790307.2564
  23118308.763     3385030.137 8   2624934.32646  23118307.768    23118317.9104
  20654736.753    -3958828.451 9  -3082449.66647  20654736.623    20654743.3514
  23312640.401    -9014535.020 8  -7012584.57546  23312639.535    23312647.8934
  22706663.624     4079040.471 8   2952527.49046  22706662.714    22706670.9664
  21382216.984    -3903466.987 9  -3038534.25847  21382216.499    21382223.3664
 01  4 19 16 44  0.0010000  0  6 24 02 04 05 07 09
  21775898.523    -9711367.159 9  -7557102.66347  21775898.000    21775907.2064
  23130702.118     3450157.740 8   2675682.91046  23130701.238    23130711.4544
  20654599.249    -3959551.206 9  -3083012.84848  20654599.119    20654605.8394
  23296668.556    -9098467.249 8  -7077986.26346  23296667.713    23296676.0944
  22719018.122     4143963.714 8   3003116.97946  22719017.271    22719025.4844
  21381818.602    -3905560.490 9  -3040165.59547  21381818.135    21381824.9984
 01  4 19 16 44 30.0010000  0  6 24 02 04 05 07 09
  21761577.607    -9786623.760 9  -7615744.10347  21761577.114    21761586.3134
  23143147.910     3515559.504 8   2726645.14146  23143146.923    23143157.1724
  20654579.107    -3959657.030 9  -3083095.29448  20654578.963    20654585.7144
  23280708.233    -9182338.962 8  -7143340.79846  23280707.371    23280715.7654
  22731384.608     4208949.635 8   3053755.31046  22731383.730    22731391.9744
  21381530.836    -3907073.209 9  -3041344.36647  21381530.324    21381537.1654
 01  4 19 16 45  0.0010000  0  6 24 02 04 05 07 09
  21747336.203    -9861462.348 9  -7674059.81947  21747335.723    21747344.9714
  23155645.844     3581235.402 8   2777820.96346  23155644.840    23155655.1034
  20654676.356    -3959145.907 9  -3082697.01348  20654676.215    20654683.0074
  23264759.778    -9266148.809 8  -7208647.12346  23264758.893    23264767.2274
  22743762.814     4273997.566 8   3104441.95846  22743761.932    22743770.2434
  21381353.498    -3908005.147 9  -3042070.58547  21381353.017    21381359.8824
 01  4 19 16 45 30.0010000  0  6 24 02 04 05 07 09
  21733174.756    -9935881.237 9  -7732048.49947  21733174.286    21733183.4904
  23168195.793     3647185.171 8   2829210.20346  23168194.772    23168205.1574
  20654890.986    -3958018.223 9  -3081818.29648  20654890.847    20654897.6514
  23248823.420    -9349895.256 8  -7273904.04446  23248822.485    23248830.6854
  22756152.690     4339106.563 8   3155176.19446  22756151.834    22756160.1594
  21381286.648    -3908356.570 9  -3042344.44747  21381286.164    21381293.0704
 01  4 19 16 46  0.0010000  0  6 24 02 04 05 07 09
  21719093.584   -10009878.145 9  -7789708.36047  21719093.065    21719102.3194
  23180797.876     3713409.297 8   2880813.22046  23180796.938    23180807.5164
  20655222.929    -3956273.913 9  -3080459.08948  20655222.787    20655229.5614
  23232899.302    -9433576.839 8  -7339110.42946  23232898.399    23232906.5514
  22768554.220     4404276.213 8   3205957.67746  22768553.308    22768561.5824
  21381330.389    -3908126.916 9  -3042165.53247  21381329.903    21381336.8294
 01  4 19 16 46 30.0010000  0  6 24 02 04 05 07 09
  21705093.195   -10083450.159 9  -7847037.14247  21705092.727    21705101.9954
  23193452.136     3779907.776 8   2932630.02146  23193451.297    23193461.9884
  20655672.264    -3953913.090 9  -3078619.48448  20655672.066    20655678.8664
  23216987.874    -9517191.712 8  -7404264.82446  23216987.004    23216995.1644
  22780967.044     4469506.151 8   3256786.14346  22780966.165    22780974.4774
  21381484.739    -3907316.016 9  -3041533.69247  21381484.296    21381491.2204
 01  4 19 16 47  0.0010000  0  6 24 02 04 05 07 09
  21691174.027   -10156595.544 9  -7904033.48247  21691173.573    21691182.8704
  23206158.632     3846680.145 8   2984660.24546  23206157.801    23206168.5174
  20656238.684    -3950936.562 9  -3076300.11248  20656238.504    20656245.2794
  23201089.308    -9600738.786 8  -7469366.40746  23201088.491    23201096.6474
  22793391.187     4534795.274 8   3307660.72946  22793390.314    22793398.6564
  21381749.763    -3905924.001 9  -3040449.03847  21381749.293    21381756.1584
 01  4 19 16 47 30.0010000  0  6 24 02 04 05 07 09
  21677336.487   -10229312.406 9  -7960695.91347  21677336.052    21677345.2714
  23218917.055     3913725.893 8   3036903.48846  23218916.229    23218927.1394
  20656922.296    -3947344.626 9  -3073501.20348  20656922.080    20656928.8354
  23185203.786    -9684217.083 8  -7534414.37946  23185202.978    23185211.2184
  22805826.483     4600142.372 8   3358580.47546  22805825.506    22805833.8524
  21382125.150    -3903951.509 9  -3038912.06447  21382124.663    21382131.5334
 01  4 19 16 48  0.0010000  0  6 24 02 04 05 07 09
  21663580.894   -10301598.946 9  -8017023.02147  21663580.396    21663589.5624
  23231727.510     3981044.774 8   3089359.55946  23231726.710    23231737.7424
  20657722.716    -3943138.271 9  -3070223.52848  20657722.536    20657729.2534
  23169331.657    -9767625.386 8  -7599407.81946  23169330.896    23169339.1534
  22818272.616     4665546.741 8   3409544.85846  22818271.629    22818280.0064
  21382610.849    -3901398.759 9  -3036922.94847  21382610.397    21382617.3264
 01  4 19 16 48 30.0010000  0  6 24 02 04 05 07 09
  21649907.412   -10373453.409 9  -8073013.44947  21649906.921    21649916.0514
  23244589.994     4048635.843 8   3142027.73146  23244589.085    23244600.1374
  20658639.888    -3938318.299 9  -3066467.70848  20658639.751    20658646.4514
  23153473.095    -9850962.872 8  -7664346.07546  23153472.315    23153480.5164
  22830729.268     4731006.800 8   3460552.63246  22830728.305    22830736.6944
  21383206.964    -3898266.469 9  -3034482.24047  21383206.494    21383213.4194
 01  4 19 16 49  0.0010000  0  6 24 02 04 05 07 09
  21636316.616   -10444873.130 9  -8128665.12047  21636316.140    21636325.2794
  23257504.254     4116499.575 8   3194908.35746  23257503.315    23257514.4344
  20659673.870    -3932884.984 9  -3062233.95848  20659673.706    20659680.4094
  23137628.333    -9934227.463 8  -7729227.54346  23137627.614    23137635.7614
  22843196.638     4796522.552 8   3511603.80246  22843195.644    22843203.9544
  21383913.415    -3894554.149 9  -3031589.56147  21383912.925    21383919.8554
 01  4 19 16 49 30.0010000  0  6 24 02 04 05 07 09
  21622808.883   -10515856.649 9  -8183976.89447  21622808.402    21622817.5384
  23270470.301     4184635.357 8   3248000.97146  23270469.339    23270480.4494
  20660824.427    -3926838.356 9  -3057522.30848  20660824.309    20660831.0104
  23121797.709   -10017418.006 8  -7794051.30646  23121797.023    23121805.0874
  22855674.347     4862092.938 8   3562697.55346  22855673.366    22855681.5394
  21384730.146    -3890262.181 9  -3028245.21147  21384729.690    21384736.6224
 01  4 19 16 50  0.0010000  0  6 24 02 04 05 07 09
  21609384.519   -10586401.446 9  -8238946.81247  21609384.065    21609393.2094
  23283488.147     4253043.340 8   3301305.70846  23283487.117    23283498.0584
  20662091.600    -3920179.464 9  -3052333.56648  20662091.482    20662098.1554
  23105981.500   -10100532.765 8  -7858816.00946  23105980.762    23105988.8484
  22868162.306     4927717.674 8   3613833.66046  22868161.341    22868169.5494
  21385657.261    -3885390.350 9  -3024449.02147  21385656.818    21385663.7284
 01  4 19 16 50 30.0010000  0  6 24 02 04 05 07 09
  21596044.172   -10656504.851 9  -8293572.78347  21596043.740    21596052.9334
  23296557.665     4321723.924 8   3354822.84946  23296556.689    23296567.5604
  20663475.418    -3912907.966 9  -3046667.46748  20663475.244    20663481.9064
  23090180.073   -10183569.912 8  -7923520.24146  23090179.262    23090187.3544
  22880660.635     4993396.445 8   3665011.85946  22880659.678    22880667.9034
  21386694.838    -3879938.547 9  -3020200.90847  21386694.330    21386701.2404
 01  4 19 16 51  0.0010000  0  6 24 02 04 05 07 09
  21582788.289   -10726164.854 9  -8347853.24947  21582787.837    21582797.0434
  23309678.938     4390676.583 8   3408551.99246  23309677.946    23309688.8994
  20664975.531    -3905024.546 9  -3040524.55147  20664975.385    20664982.0514
  23074393.720   -10266528.045 8  -7988162.90846  23074392.840    23074400.9144
  22893169.034     5059128.459 8   3716231.54746  22893168.100    22893176.3944
  21387842.576    -3873907.088 9  -3015501.10547  21387842.115    21387848.9974
 01  4 19 16 51 30.0010000  0  6 24 02 04 05 07 09
  21569616.984   -10795380.702 9  -8401787.61747  21569616.475    21569625.6364
  23322851.764     4459900.501 8   3462492.50546  23322850.916    23322861.9624
  20666591.805    -3896530.737 9  -3033906.00547  20666591.686    20666598.3474
  23058622.545   -10349406.443 8  -8052743.43646  23058621.618    23058629.6234
  22905687.272     5124912.229 8   3767491.57346  22905686.373    22905694.7284
  21389100.512    -3867296.943 9  -3010350.38547  21389100.034    21389106.9354
 01  4 19 16 52  0.0010000  0  6 24 02 04 05 07 09
  21556530.611   -10864149.689 9  -8455373.78447  21556530.135    21556539.3174
  23336076.409     4529395.364 8   3516644.14446  23336075.500    23336086.6384
  20668324.147    -3887426.965 9  -3026812.16147  20668324.047    20668330.7614
  23042866.767   -10432203.531 8  -8117260.61946  23042865.836    23042873.8544
  22918215.313     5190747.315 8   3818791.57846  22918214.390    22918222.7394
  21390468.496    -3860108.308 9  -3004748.89247  21390468.007    21390474.9174
 01  4 19 16 52 30.0010000  0  6 24 02 04 05 07 09
  21543529.535   -10932470.135 9  -8508610.43847  21543529.115    21543538.2804
  23349352.533     4599160.656 8   3571006.51646  23349351.619    23349362.8014
  20670172.444    -3877714.010 9  -3019243.63247  20670172.347    20670179.0734
  23027126.667   -10514917.816 8  -8181713.27246  23027125.842    23027133.7894
  22930752.767     5256632.720 8   3870130.78646  22930751.911    22930760.3154
  21391946.433    -3852341.566 9  -2998696.93047  21391945.984    21391952.9374
 01  4 19 16 53  0.0010000  0  6 24 02 04 05 07 09
  21530614.402   -11000339.440 9  -8561495.55047  21530614.006    21530623.1244
  23362680.201     4669197.066 8   3625580.14146  23362679.303    23362690.5714
  20672136.738    -3867391.782 9  -3011200.34547  20672136.598    20672143.3894
  23011402.803   -10597547.008 8  -8246099.61346  23011401.988    23011409.9274
  22943299.956     5322568.827 8   3921509.50246  22943299.204    22943307.6574
  21393534.540    -3843996.283 9  -2992194.15547  21393534.094    21393541.0374
 01  4 19 16 53 30.0010000  0  6 24 02 04 05 07 09
  21517785.314   -11067756.829 9  -8614028.52047  21517784.877    21517793.9954
  23376059.128     4739502.970 8   3680363.74846  23376058.191    23376069.5304
  20674216.628    -3856462.039 9  -3002683.67247  20674216.498    20674223.2734
  22995695.237   -10680090.875 8  -8310419.48646  22995694.402    22995702.3234
  22955856.659     5388553.797 8   3972926.27546  22955855.852    22955864.2164
  21395232.538    -3835074.007 9  -2985241.78047  21395232.049    21395238.9804
 01  4 19 16 54  0.0010000  0  6 24 02 04 05 07 09
  21505042.840   -11134718.876 9  -8666206.67247  21505042.379    21505051.5244
  23389489.498     4810079.264 8   3735358.05746  23389488.683    23389499.9884
  20676412.244    -3844924.453 9  -2993693.34848  20676412.088    20676418.8144
  22980004.298   -10762546.906 8  -8374670.89746  22980003.504    22980011.4344
  22968422.609     5454587.939 8   4024381.40046  22968421.772    22968430.2084
  21397040.316    -3825573.889 9  -2977839.13547  21397039.867    21397046.8624
 01  4 19 16 54 30.0010000  0  6 24 02 04 05 07 09
  21492387.067   -11201225.092 9  -8718029.63547  21492386.620    21492395.7504
  23402971.387     4880924.855 8   3790562.20546  23402970.410    23402981.6564
  20678723.111    -3832780.697 9  -2984230.68448  20678722.948    20678729.7374
  22964330.348   -10844914.423 8  -8438853.34846  22964329.486    22964337.3994
  22980997.607     5520669.885 8   4075873.76246  22980996.758    22981005.2354
  21398957.952    -3815497.076 9  -2969987.11747  21398957.500    21398964.5084
 01  4 19 16 55  0.0010000  0  6 24 02 04 05 07 09
  21479818.491   -11267273.160 9  -8769495.60447  21479818.061    21479827.1044
  23416504.148     4952039.233 8   3845975.80146  23416503.202    23416514.5194
  20681149.183    -3820031.669 9  -2974296.38448  20681149.058    20681155.8304
  22948673.427   -10927192.036 8  -8502965.74946  22948672.595    22948680.5094
  22993581.655     5586798.872 8   4127402.78746  22993580.765    22993589.1924
  21400985.172    -3804844.122 9  -2961686.16147  21400984.706    21400991.7024
 01  4 19 16 55 30.0010000  0  6 24 02 04 05 07 09
  21467337.600   -11332860.689 9  -8820602.70747  21467337.142    21467346.1264
  23430088.054     5023422.815 8   3901599.15946  23430087.148    23430098.7464
  20683690.504    -3806677.398 9  -2963890.46347  20683690.319    20683697.0324
  22933033.973   -11009377.729 8  -8567006.51046  22933033.151    22933041.1504
  23006174.607     5652974.798 8   4178968.37546  23006173.667    23006182.1624
  21403122.053    -3793615.010 9  -2952936.25547  21403121.577    21403128.5424
 01  4 19 16 56  0.0010000  0  6 24 02 04 05 07 09
  21454944.576   -11397985.889 9  -8871349.55547  21454944.141    21454953.1454
  23443723.174     5095075.481 8   3957432.20046  23443722.278    23443734.0604
  20686346.736    -3792718.663 9  -2953013.53547  20686346.570    20686353.3094
  22917412.490   -11091469.319 8  -8630973.94746  22917411.626    22917419.6574
  23018776.459     5719197.385 8   4230570.32746  23018775.514    23018784.0014
  21405368.487    -3781810.136 9  -2943737.69847  21405368.012    21405374.9834
 01  4 19 16 56 30.0010000  0  6 24 02 04 05 07 09
  21442639.903   -11462647.261 9  -8921734.98047  21442639.480    21442648.4614
  23457409.453     5166996.059 8   4013474.00446  23457408.533    23457420.2754
  20689117.729    -3778156.973 9  -2941666.77547  20689117.582    20689124.2994
  22901809.115   -11173465.897 8  -8694867.36546  22901808.228    22901816.1734
  23031386.893     5785465.212 8   4282207.52446  23031385.983    23031394.4034
  21407724.284    -3769430.547 9  -2934091.31447  21407723.811    21407730.8024
 01  4 19 16 57  0.0010000  0  6 24 02 04 05 07 09
  21430423.701   -11526843.680 9  -8971758.09947  21430423.257    21430432.2474
  23471146.537     5239183.804 8   4069723.99946  23471145.564    23471157.3394
  20692003.234    -3762993.828 9  -2929851.34847  20692003.084    20692009.8114
  22886223.909   -11255366.654 8  -8758686.09946  22886223.007    22886230.9454
  23044005.759     5851777.385 8   4333879.28746  23044004.777    23044013.2104
  21410189.221    -3756477.232 9  -2923997.86547  21410188.785    21410195.8514
 01  4 19 16 57 30.0010000  0  6 24 02 04 05 07 09
  21418296.463   -11590572.618 9  -9021416.95047  21418296.032    21418304.9814
  23484934.384     5311638.865 8   4126182.28646  23484933.419    23484945.2994
  20695003.010    -3747229.590 9  -2917567.53547  20695002.898    20695009.6664
  22870657.294   -11337169.467 8  -8822428.52146  22870656.454    22870664.3194
  23056632.941     5918133.746 8   4385585.47146  23056632.045    23056640.5164
  21412763.421    -3742950.232 9  -2913457.39947  21412762.963    21412770.0374
 01  4 19 16 58  0.0010000  0  6 24 02 04 05 07 09
  21406258.581   -11653832.114 9  -9070709.99947  21406258.156    21406267.0414
  23498772.984     5384361.252 8   4182848.87046  23498772.088    23498784.1234
  20698117.170    -3730864.688 9  -2904815.66947  20698117.072    20698123.8584
  22855109.842   -11418872.304 8  -8886093.04946  22855108.917    22855116.7514
  23069268.575     5984534.116 8   4437325.96446  23069267.688    23069276.1694
  21415446.743    -3728849.700 9  -2902470.02147  21415446.275    21415453.3634
 01  4 19 16 58 30.0010000  0  6 24 02 04 05 07 09
  21394310.377   -11716620.636 9  -9119636.05847  21394309.917    21394318.7234
  23512662.394     5457350.145 8   4239723.11645  23512661.523    23512673.7194
  20701345.390    -3713900.322 9  -2891596.68947  20701345.297    20701352.0374
  22839581.526   -11500474.126 8  -8949678.85046  22839580.567    22839588.3784
  23081912.317     6050977.384 8   4489099.89046  23081911.455    23081919.8774
  21418238.927    -3714176.663 9  -2891036.53847  21418238.472    21418245.5534
 01  4 19 16 59  0.0010000  0  6 24 02 04 05 07 09
  21382452.030   -11778936.374 9  -9168193.71747  21382451.557    21382460.3534
  23526602.512     5530605.298 8   4296804.84345  23526601.612    23526613.8054
  20704687.492    -3696337.843 9  -2877911.65047  20704687.363    20704694.0984
  22824072.796   -11581973.230 8  -9013184.61446  22824071.874    22824079.6154
  23094564.188     6117463.075 8   4540906.86446  23094563.346    23094571.7244
  21421139.959    -3698931.888 9  -2879157.55147  21421139.494    21421146.5504
 01  4 19 16 59 30.0010000  0  6 24 02 04 05 07 09
  21370683.840   -11840778.234 9  -9216382.11347  21370683.404    21370692.2274
  23540593.230     5604125.718 8   4354093.27145  23540592.297    23540604.4564
  20708143.101    -3678178.470 9  -2863761.49647  20708142.981    20708149.7424
  22808583.813   -11663368.433 8  -9076609.42046  22808582.877    22808590.5904
  23107223.986     6183990.111 8   4592746.03846  23107223.092    23107231.5094
  21424149.622    -3683116.203 9  -2866833.69547  21424149.120    21424156.2134
 01  4 19 17  0  0.0010000  0  6 24 02 04 05 07 09
  21359006.240   -11902144.069 9  -9264199.58947  21359005.808    21359014.6734
  23554634.426     5677911.295 8   4411588.31545  23554633.456    23554645.6484
  20711712.102    -3659423.028 9  -2849146.87647  20711712.010    20711718.7994
  22793114.882   -11744657.903 8  -9139951.83446  22793113.946    22793121.6934
  23119891.558     6250558.344 8   4644617.33246  23119890.663    23119899.0864
  21427267.788    -3666730.163 9  -2854065.41147  21427267.341    21427274.4864
 01  4 19 17  0 30.0010000  0  6 24 02 04 05 07 09
  21347419.497   -11963032.563 9  -9311645.11147  21347419.069    21347427.9534
  23568725.720     5751961.192 8   4469289.33245  23568724.811    23568737.1614
  20715394.287    -3640073.093 9  -2834069.00847  20715394.191    20715400.9784
  22777666.260   -11825840.332 8  -9203210.84646  22777665.390    22777673.1584
  23132566.739     6317166.604 8   4696519.80446  23132565.847    23132574.3174
  21430494.353    -3649774.727 9  -2840853.43947  21430493.918    21430501.0574
 01  4 19 17  1  0.0010000  0  6 24 02 04 05 07 09
  21335924.116   -12023441.005 9  -9358716.56147  21335923.678    21335932.5214
  23582867.554     5826276.090 8   4527196.84245  23582866.581    23582879.0024
  20719189.589    -3620128.734 9  -2818527.95947  20719189.474    20719196.2614
  22762238.637   -11906912.921 8  -9266384.26646  22762237.751    22762245.5394
  23145249.740     6383815.825 8   4748454.18846  23145248.828    23145257.4584
  21433829.372    -3632249.609 9  -2827197.56247  21433828.909    21433835.9904
 01  4 19 17  1 30.0010000  0  6 24 02 04 05 07 09
  21324520.108   -12083369.147 9  -9405413.75347  21324519.662    21324528.5114
  23597059.435     5900853.764 8   4585309.11745  23597058.536    23597070.8504
  20723097.582    -3599592.052 9  -2802525.35147  20723097.458    20723104.2724
  22746831.837   -11987875.771 8  -9329472.15846  22746830.957    22746838.8164
  23157940.057     6450503.578 8   4800418.59446  23157939.142    23157947.8554
  21437272.318    -3614156.931 9  -2813099.42547  21437271.856    21437279.0054
 01  4 19 17  2  0.0010000  0  6 24 02 04 05 07 09
  21313207.984   -12142814.257 9  -9451734.56147  21313207.554    21313216.4144
  23611301.461     5975695.074 8   4643626.81345  23611300.556    23611312.8914
  20727118.242    -3578463.576 9  -2786061.61047  20727118.105    20727124.8714
  22731446.437   -12068726.074 8  -9392472.36246  22731445.638    22731453.4554
  23170637.717     6517230.736 8   4852413.72446  23170636.912    23170645.6464
  21440823.330    -3595496.502 9  -2798558.88647  21440822.867    21440830.0404
 01  4 19 17  2 30.0010000  0  6 24 02 04 05 07 09
  21301988.109   -12201774.907 9  -9497677.87147  21301987.691    21301996.5394
  23625593.635     6050799.177 8   4702149.28745  23625592.632    23625604.9264
  20731251.228    -3556744.740 9  -2769137.84847  20731251.054    20731257.8814
  22716082.767   -12149462.496 8  -9455383.83746  22716081.983    22716089.7044
  23183342.848     6583996.418 8   4904438.87346  23183342.036    23183350.7224
  21444482.164    -3576269.411 9  -2783576.80047  21444481.684    21444488.9154
 01  4 19 17  3  0.0010000  0  6 24 02 04 05 07 09
  21290860.600   -12260250.190 9  -9543242.97747  21290860.164    21290868.9964
  23639935.369     6126165.084 8   4760875.75445  23639934.423    23639946.8384
  20735496.225    -3534437.021 9  -2751755.21847  20735496.075    20735502.9024
  22700741.042   -12230083.754 8  -9518205.56146  22700740.245    22700747.9534
  23196055.084     6650799.429 8   4956493.09646  23196054.256    23196063.0394
  21448248.565    -3556477.012 9  -2768154.21247  21448248.127    21448255.3704
 01  4 19 17  3 30.0010000  0  6 24 02 04 05 07 09
  21279825.915   -12318237.810 9  -9588428.08247  21279825.473    21279834.3004
  23654327.134     6201792.794 8   4819806.24145  23654326.130    23654338.4844
  20739853.258    -3511541.149 9  -2733914.28747  20739853.068    20739859.8184
  22685421.643   -12310587.837 8  -9580935.97946  22685420.830    22685428.5994
  23208774.306     6717639.825 8   5008576.45146  23208773.571    23208782.4464
  21452122.496    -3536119.654 9  -2752291.40347  21452122.045    21452129.2664
 01  4 19 17  4  0.0010000  0  6 24 02 04 05 07 09
  21268884.219   -12375736.661 9  -9633232.33047  21268883.788    21268892.5464
  23668768.589     6277681.518 8   4878940.11145  23668767.443    23668779.7974
  20744321.811    -3488058.928 9  -2715616.45947  20744321.625    20744328.3604
  22670124.754   -12390973.443 8  -9643574.08446  22670123.890    22670131.7964
  23221500.626     6784516.884 8   5060688.37946  23221499.980    23221508.7474
  21456103.726    -3515198.497 9  -2735989.26647  21456103.279    21456110.4564
 01  4 19 17  4 30.0010000  0  6 24 02 04 05 07 09
  21258035.970   -12432744.762 9  -9677654.17547  21258035.498    21258044.1954
  23683259.510     6353830.967 8   4938277.17645  23683258.380    23683270.7254
  20748901.767    -3463991.207 9  -2696862.40447  20748901.584    20748908.3174
  22654850.705   -12471238.488 8  -9706118.24046  22654849.914    22654857.8814
  23234234.045     6851430.300 8   5112828.64946  23234233.275    23234241.9224
  21460192.091    -3493714.237 9  -2719248.34647  21460191.648    21460198.8384
 01  4 19 17  5  0.0010000  0  6 24 02 04 05 07 09
  21247281.177   -12489261.629 9  -9721693.24847  21247280.694    21247289.3024
  23697800.011     6430240.208 8   4997816.65245  23697798.815    23697811.1524
  20753592.789    -3439339.833 9  -2677653.55247  20753592.627    20753599.3594
  22639599.937   -12551381.807 8  -9768567.55746  22639599.151    22639607.1574
  23246974.119     6918379.055 8   5164996.45246  23246973.286    23246981.8614
  21464387.404    -3471668.084 9  -2702069.58947  21464386.924    21464394.1724
 01  4 19 17  5 30.0010000  0  6 24 02 04 05 07 09
  21236620.298   -12545284.752 9  -9765347.57647  21236619.814    21236628.4274
  23712389.540     6506908.980 8   5057558.36745  23712388.514    23712400.9414
  20758394.729    -3414105.641 9  -2657990.55447  20758394.553    20758401.2804
  22624372.672   -12631401.577 8  -9830920.58646  22624371.923    22624379.8744
  23259720.782     6985362.919 8   5217191.61246  23259719.931    23259728.5554
  21468689.437    -3449060.735 9  -2684453.53347  21468688.996    21468696.3164
 01  4 19 17  6  0.0010000  0  6 24 02 04 05 07 09
  21226053.623   -12600812.622 9  -9808615.99947  21226053.169    21226061.8024
  23727028.485     6583836.929 8   5117502.03345  23727027.600    23727040.0894
  20763307.270    -3388289.888 9  -2637874.39747  20763307.142    20763313.8984
  22609169.364   -12711295.661 8  -9893175.68146  22609168.628    22609176.4954
  23272474.225     7052381.876 8   5269414.11146  23272473.332    23272481.9614
  21473098.141    -3425892.856 9  -2666400.70547  21473097.714    21473105.0704
 01  4 19 17  6 30.0010000  0  6 24 02 04 05 07 09
  21215581.368   -12655844.406 9  -9851497.86347  21215580.939    21215589.5604
  23741716.789     6661022.799 8   5177646.67345  23741715.801    23741728.2754
  20768330.176    -3361894.449 9  -2617306.53647  20768330.024    20768336.7634
  22593990.179   -12791062.964 8  -9955331.99346  22593989.437    22593997.1894
  23285233.994     7119434.531 8   5321662.84746  23285233.069    23285241.6784
  21477613.254    -3402166.132 9  -2647912.41647  21477612.808    21477620.1594
 01  4 19 17  7  0.0010000  0  6 24 02 04 05 07 09
  21205203.788   -12710378.764 9  -9893992.11847  21205203.363    21205212.0014
  23756453.895     6738466.120 8   5237991.91745  23756453.020    23756465.3954
  20773463.050    -3334920.843 9  -2596288.15147  20773462.901    20773469.6964
  22578835.423   -12870701.812 8 -10017388.21146  22578834.628    22578842.3684
  23298000.205     7186520.692 8   5373937.70646  23297999.220    23298007.7914
  21482234.576    -3377881.632 9  -2628989.48947  21482234.108    21482241.4104
 01  4 19 17  7 30.0010000  0  6 24 02 04 05 07 09
  21194921.220   -12764413.957 9  -9936097.41947  21194920.792    21194929.4614
  23771239.935     6816166.410 8   5298537.39445  23771239.073    23771251.4054
  20778705.761    -3307369.998 9  -2574819.97347  20778705.651    20778712.4854
  22563705.352   -12950210.452 8 -10079342.96846  22563704.553    22563712.3414
  23310772.702     7253639.991 8   5426238.39546  23310771.718    23310780.2914
  21486961.869    -3353040.043 9  -2609632.47647  21486961.396    21486968.6944
 01  4 19 17  8  0.0010000  0  6 24 02 04 05 07 09
  21184733.940   -12817948.172 9  -9977812.34647  21184733.514    21184742.1904
  23786074.651     6894123.566 8   5359283.02745  23786073.834    23786086.3334
  20784058.154    -3279243.188 9  -2552902.99247  20784058.046    20784064.8234
  22548600.568   -13029586.485 8 -10141194.39346  22548599.739    22548607.5814
  23323551.448     7320792.345 8   5478564.82946  23323550.452    23323559.0874
  21491794.970    -3327642.175 9  -2589841.99347  21491794.500    21491801.8524
 01  4 19 17  8 30.0010000  0  6 24 02 04 05 07 09
  21174642.308   -12870979.988 9 -10019135.79447  21174641.861    21174650.4434
  23800958.377     6972336.855 8   5420228.25445  23800957.579    23800970.0174
  20789519.841    -3250541.928 9  -2530538.38847  20789519.715    20789526.4724
  22533521.255   -13108828.542 8 -10202941.42646  22533520.468    22533528.2974
  23336336.401     7387977.283 8   5530916.64846  23336335.381    23336344.0274
  21496733.678    -3301689.143 9  -2569618.92247  21496733.251    21496740.5744
 01  4 19 17  9  0.0010000  0  6 24 02 04 05 07 09
  21164646.340   -12923509.183 9 -10060067.58747  21164645.871    21164654.4094
  23815890.606     7050805.034 8   5481372.08445  23815889.742    23815902.1814
  20795090.455    -3221268.178 9  -2507727.68847  20795090.348    20795097.1124
  22518467.671   -13187935.443 8 -10264583.13346  22518466.900    22518474.7874
  23349127.279     7455193.919 8   5583293.17146  23349126.306    23349135.0274
  21501777.738    -3275182.718 9  -2548964.63447  21501777.289    21501784.6424
 01  4 19 17  9 30.0010000  0  6 24 02 04 05 07 09
  21154746.408   -12975533.263 9 -10100605.78847  21154745.984    21154754.5414
  23830871.159     7129527.823 8   5542714.30045  23830870.341    23830882.8394
  20800769.815    -3191423.156 9  -2484471.84847  20800769.717    20800776.4444
  22503440.323   -13266904.825 8 -10326117.69346  22503439.573    22503447.4384
  23361924.066     7522442.096 8   5635694.27546  23361923.257    23361932.0174
  21506927.011    -3248123.527 9  -2527879.61547  21506926.535    21506933.9294
 01  4 19 17 10  0.0010000  0  6 24 02 04 05 07 09
  21144942.799   -13027051.404 9 -10140749.73947  21144942.371    21144950.9454
  23845899.955     7208504.718 8   5604254.50245  23845899.208    23845911.9284
  20806557.649    -3161008.041 9  -2460771.77647  20806557.540    20806564.2764
  22488439.487   -13345735.017 8 -10387543.78646  22488438.678    22488446.5184
  23374726.878     7589721.450 8   5688119.69246  23374726.094    23374734.9894
  21512181.231    -3220512.576 9  -2506364.66147  21512180.777    21512188.1944
 01  4 19 17 10 30.0010000  0  6 24 02 04 05 07 09
  21135235.805   -13078061.996 9 -10180498.20047  21135235.351    21135243.9144
  23860977.125     7287734.566 8   5665991.84345  23860976.329    23860989.1084
  20812453.587    -3130024.840 9  -2436629.03647  20812453.478    20812460.2254
  22473465.263   -13424424.786 8 -10448860.45746  22473464.454    22473472.2554
  23387535.568     7657031.074 8   5740568.68346  23387534.697    23387543.7474
  21517540.167    -3192351.547 9  -2484421.06747  21517539.717    21517547.1054
 01  4 19 17 11  0.0010000  0  6 24 02 04 05 07 09
  21125625.488   -13128564.211 9 -10219850.53447  21125625.074    21125633.6174
  23876102.313     7367216.985 8   5727925.96845  23876101.409    23876114.2904
  20818457.332    -3098475.120 9  -2412044.85647  20818457.212    20818463.9934
  22458518.168   -13502971.967 8 -10510066.02346  22458517.382    22458525.1534
  23400350.098     7724370.897 8   5793041.19946  23400349.075    23400358.1364
  21523003.584    -3163641.434 9  -2462049.62347  21523003.135    21523010.4984
 01  4 19 17 11 30.0010000  0  6 24 02 04 05 07 09
  21116112.178   -13178557.013 9 -10258805.91447  21116111.770    21116120.2384
  23891275.390     7446950.956 8   5790056.10145  23891274.574    23891287.4274
  20824568.536    -3066360.701 9  -2387020.64947  20824568.371    20824575.2104
  22443598.530   -13581375.173 8 -10571159.41146  22443597.751    22443605.4844
  23413170.139     7791740.186 8   5845536.67346  23413169.110    23413178.1574
  21528571.248    -3134383.812 9  -2439251.54647  21528570.780    21528578.0984
 01  4 19 17 12  0.0010000  0  6 24 02 04 05 07 09
  21106696.025   -13228039.242 9 -10297363.44747  21106695.589    21106704.0524
  23906496.323     7526935.660 8   5852381.61145  23906495.407    23906508.2554
  20830786.846    -3033683.194 9  -2361557.66647  20830786.706    20830793.5254
  22428706.604   -13659632.783 8 -10632139.34946  22428705.830    22428713.5104
  23425995.598     7859138.227 8   5898054.55346  23425994.581    23426003.6854
  21534242.749    -3104580.091 9  -2416027.93847  21534242.294    21534249.6554
 01  4 19 17 12 30.0010000  0  6 24 02 04 05 07 09
  21097377.372   -13277008.898 9 -10335521.57647  21097376.940    21097385.4534
  23921764.972     7607170.912 8   5914902.34545  23921764.117    23921776.7924
  20837112.155    -3000443.856 9  -2335656.90047  20837111.977    20837118.7744
  22413842.890   -13737742.581 8 -10693004.11146  22413842.040    22413849.6484
  23438826.448     7926565.359 8   5950595.10346  23438825.519    23438834.6684
  21540018.014    -3074230.978 9  -2392379.34847  21540017.556    21540024.9524
 01  4 19 17 13  0.0010000  0  6 24 02 04 05 07 09
  21088156.403   -13325465.215 9 -10373279.69648  21088156.003    21088164.5014
  23937081.006     7687655.804 8   5977617.60145  23937080.144    23937092.9444
  20843544.006    -2966644.384 9  -2309319.66347  20843543.845    20843550.6074
  22399007.615   -13815702.895 8 -10753752.38146  22399006.661    22399014.2614
  23451662.956     7994020.935 8   6003157.81946  23451662.002    23451671.0144
  21545896.793    -3043337.960 9  -2368306.93147  21545896.336    21545903.7784
 01  4 19 17 13 30.0010000  0  6 24 02 04 05 07 09
  21079033.288   -13373407.561 9 -10410637.31947  21079032.829    21079041.3074
  23952444.291     7768389.414 8   6040526.65245  23952443.398    23952456.2334
  20850082.076    -2932286.827 9  -2282547.55347  20850081.909    20850088.6434
  22384200.901   -13893512.212 8 -10814383.00046  22384199.951    22384207.6284
  23464504.863     8061504.305 8   6055742.19746  23464503.813    23464512.6394
  21551878.773    -3011902.635 9  -2343811.93347  21551878.335    21551885.8234
 01  4 19 17 14  0.0010000  0  6 24 02 04 05 07 09
  21070008.377   -13420833.237 9 -10447592.34847  21070007.987    21070016.4204
  23967854.886     7849372.048 8   6103629.75545  23967853.950    23967866.8854
  20856726.153    -2897371.925 9  -2255341.14647  20856725.979    20856732.7004
  22369423.359   -13971167.769 8 -10874893.79346  22369422.501    22369430.2874
  23477351.848     8129016.041 8   6108348.68446  23477350.938    23477359.7184
  21557964.005    -2979925.257 9  -2318894.57247  21557963.532    21557970.9674
 01  4 19 17 14 30.0010000  0  6 24 02 04 05 07 09
  21061081.925   -13467742.235 9 -10484144.75747  21061081.467    21061089.8784
  23983312.590     7930601.855 8   6166925.44845  23983311.648    23983324.4544
  20863475.866    -2861902.053 9  -2227702.29047  20863475.676    20863482.4294
  22354675.348   -14048668.700 8 -10935284.10646  22354674.531    22354682.3794
  23490204.214     8196555.008 8   6160976.38146  23490203.300    23490212.0174
  21564151.847    -2947408.284 9  -2293556.73647  21564151.369    21564158.8074
 01  4 19 17 15  0.0010000  0  6 24 02 04 05 07 09
  21052254.117   -13514132.582 9 -10520293.04048  21052253.658    21052262.0814
  23998817.433     8012079.012 8   6230413.87145  23998816.364    23998829.3134
  20870330.937    -2825878.357 9  -2199631.89747  20870330.781    20870337.5304
  22339957.360   -14126012.419 8 -10995551.91546  22339956.510    22339964.2864
  23503061.750     8264121.374 8   6213625.41146  23503060.859    23503069.4814
  21570442.142    -2914352.329 9  -2267798.92247  21570441.714    21570449.1704
 01  4 19 17 15 30.0010000  0  6 24 02 04 05 07 09
  21043524.932   -13560004.312 9 -10556037.19348  21043524.501    21043532.9004
  24014368.938     8093801.968 7   6294093.83445  24014367.879    24014380.9324
  20877290.969    -2789303.498 9  -2171132.01647  20877290.762    20877297.4774
  22325269.538   -14203197.798 8 -11055696.33846  22325268.598    22325276.3554
  23515924.079     8331714.088 8   6266294.99046  23515923.295    23515931.9794
  21576834.720    -2880759.517 9  -2241622.76647  21576834.268    21576841.7774
 01  4 19 17 16  0.0010000  0  6 24 02 04 05 07 09
  21034894.777   -13605356.094 9 -10591376.20048  21034894.346    21034902.6914
  24029966.943     8175769.967 7   6357964.73545  24029965.831    24029979.2334
  20884355.501    -2752178.937 9  -2142203.79747  20884355.312    20884362.0644
  22310612.109   -14280222.899 8 -11115715.86446  22310611.165    22310618.9984
  23528791.593     8399332.943 8   6318984.94046  23528790.806    23528799.6014
  21583329.143    -2846631.289 9  -2215029.41347  21583328.682    21583336.1944
 01  4 19 17 16 30.0010000  0  6 24 02 04 05 07 09
  21026363.874   -13650185.911 9 -10626308.47848  21026363.452    21026371.8334
  24045611.490     8257983.002 7   6422026.58745  24045610.560    24045624.0024
  20891524.461    -2714505.726 9  -2112848.06247  20891524.279    20891531.0724
  22295985.672   -14357085.130 8 -11175608.48646  22295984.771    22295992.6084
  23541664.142     8466978.376 8   6371695.59046  23541663.355    23541672.2404
  21589925.301    -2811968.231 9  -2188019.30947  21589924.886    21589932.4664
 01  4 19 17 17  0.0010000  0  6 24 02 04 05 07 09
  21017932.330   -13694493.763 9 -10660834.03848  21017931.908    21017940.2714
  24061302.447     8340439.162 8   6486277.85345  24061301.497    24061315.2414
  20898797.276    -2676286.686 9  -2083067.00847  20898797.124    20898803.9454
  22281390.436   -14433783.683 8 -11235373.57146  22281389.545    22281397.3514
  23554541.511     8534649.018 8   6424425.87945  23554540.630    23554549.5634
  21596622.866    -2776772.771 9  -2160594.35047  21596622.429    21596630.0524
 01  4 19 17 17 30.0010000  0  6 24 02 04 05 07 09
  21009600.311   -13738278.938 9 -10694952.31348  21009599.867    21009608.1904
  24077039.825     8423137.833 8   6550718.09645  24077038.763    24077052.3444
  20906173.668    -2637523.493 9  -2052861.93847  20906173.527    20906180.3484
  22266826.667   -14510316.603 8 -11295009.59346  22266825.807    22266833.5874
  23567423.522     8602344.740 8   6477175.72045  23567422.653    23567431.6224
  21603421.487    -2741046.299 9  -2132755.60747  21603421.033    21603428.6684
 01  4 19 17 18  0.0010000  0  6 24 02 04 05 07 09
  21001367.928   -13781540.175 9 -10728662.33048  21001367.476    21001375.7734
  24092823.224     8506078.075 8   6615346.57045  24092822.046    24092835.6474
  20913653.268    -2598218.150 9  -2022234.41247  20913653.129    20913659.9534
  22252294.686   -14586682.538 8 -11354515.49246  22252293.828    22252301.5944
  23580310.364     8670064.860 8   6529944.57545  23580309.452    23580318.4324
  21610320.820    -2704790.579 9  -2104504.46747  21610320.337    21610327.9934
 01  4 19 17 18 30.0010000  0  6 24 02 04 05 07 09
  20993235.513   -13824276.111 9 -10761963.01948  20993235.066    20993243.3574
  24108652.506     8589259.877 7   6680163.27445  24108651.338    24108664.9844
  20921235.841    -2558372.010 9  -1991185.48547  20921235.690    20921242.4644
  22237794.981   -14662878.669 8 -11413889.06846  22237794.136    22237801.9674
  23593201.797     8737809.962 8   6582732.90545  23593200.927    23593210.0764
  21617320.686    -2668006.285 9  -2075841.45147  21617320.250    21617327.9044
 01  4 19 17 19  0.0010000  0  6 24 02 04 05 07 09
  20985203.261   -13866486.109 9 -10794853.88848  20985202.796    20985211.0164
  24124527.373     8672682.095 8   6745167.30545  24124526.168    24124540.2304
  20928920.918    -2517986.970 9  -1959716.64347  20928920.730    20928927.4864
  22223327.957   -14738903.233 8 -11473128.95846  22223327.141    22223335.0094
  23606097.744     8805579.353 8   6635540.14045  23606097.039    23606106.4074
  21624420.841    -2630695.315 9  -2046768.03847  21624420.365    21624428.0134
 01  4 19 17 19 30.0010000  0  6 24 02 04 05 07 09
  20977271.227   -13908169.035 9 -10827334.05748  20977270.758    20977278.9454
  24140447.975     8756343.884 8   6810358.01445  24140446.765    24140460.8564
  20936708.108    -2477065.011 9  -1927829.41747  20936707.939    20936714.6734
  22208893.942   -14814754.249 8 -11532233.62446  22208893.183    22208901.0434
  23618998.594     8873372.772 8   6688366.10945  23618997.708    23619007.0734
  21631620.907    -2592859.196 9  -2017285.42447  21631620.441    21631628.0644
 01  4 19 17 20  0.0010000  0  6 24 02 04 05 07 09
  20969439.479   -13949324.967 9 -10859403.57648  20969439.009    20969447.1754
  24156413.904     8840243.177 8   6875733.78345  24156412.563    24156426.6404
  20944596.900    -2435609.081 9  -1895526.11247  20944596.757    20944603.5124
  22194493.110   -14890431.177 8 -11591202.63546  22194492.382    22194500.1764
  23631903.589     8941188.776 8   6741209.67545  23631902.703    23631912.1294
  21638920.248    -2554500.867 9  -1987395.88147  21638919.817    21638927.4484
 01  4 19 17 20 30.0010000  0  6 24 02 04 05 07 09
  20961708.334   -13989951.956 9 -10891060.93648  20961707.932    20961716.0964
  24172424.678     8924380.649 8   6941295.14445  24172423.439    24172437.7304
  20952587.214    -2393619.790 9  -1862807.20847  20952587.046    20952593.8154
  22180126.123   -14965930.809 8 -11650033.49446  22180125.299    22180133.0784
  23644813.320     9009028.638 8   6794071.82345  23644812.357    23644821.7654
  21646318.992    -2515620.411 9  -1957099.49247  21646318.565    21646326.2014
 01  4 19 17 21  0.0010000  0  6 24 02 04 05 07 09
  20954078.062   -14030049.468 9 -10922305.71548  20954077.634    20954085.8074
  24188480.768     9008754.625 8   7007040.82245  24188479.553    24188493.7424
  20960678.536    -2351099.914 9  -1829674.86347  20960678.344    20960685.0974
  22165793.020   -15041251.843 8 -11708725.18146  22165792.171    22165799.9184
  23657727.342     9076891.294 8   6846951.76345  23657726.277    23657735.6604
  21653816.806    -2476219.970 9  -1926397.93047  21653816.325    21653823.9604
 01  4 19 17 21 30.0010000  0  6 24 02 04 05 07 09
  20946548.688   -14069616.624 9 -10953137.22748  20946548.246    20946556.4014
  24204581.593     9093364.856 8   7072970.56945  24204580.448    24204594.9454
  20968870.529    -2308050.707 9  -1796130.05047  20968870.343    20968877.1024
  22151494.400   -15116392.044 8 -11767275.97147  22151493.540    22151501.1954
  23670645.622     9144776.912 8   6899849.57146  23670644.652    23670654.0034
  21661413.264    -2436300.780 9  -1895292.13747  21661412.776    21661420.4084
 01  4 19 17 22  0.0010000  0  6 24 02 04 05 07 09
  20939120.412   -14108652.275 9 -10983554.58348  20939119.959    20939128.1234
  24220727.251     9178210.125 8   7139083.45745  24220726.270    24220740.8854
  20977162.745    -2264474.545 9  -1762174.61747  20977162.583    20977169.3984
  22137230.396   -15191349.707 8 -11825684.51546  22137229.545    22137237.2144
  23683568.294     9212685.008 8   6952764.90046  23683567.386    23683576.6254
  21669107.886    -2395865.021 9  -1863783.82347  21669107.419    21669115.1654
 01  4 19 17 22 30.0010000  0  7 24 02 04 05 07 30 09
  20931793.022   -14147157.779 9 -11013558.83548  20931792.582    20931800.7934
  24236917.387     9263288.203 8   7205377.77045  24236916.451    24236930.9874
  20985554.673    -2220374.695 9  -1727811.11947  20985554.533    20985561.3424
  22123001.263   -15266124.080 8 -11883950.23546  22123000.425    22123008.1114
  23696495.075     9280613.940 8   7005696.45445  23696494.068    23696503.0204
  24854882.815    -4378315.337 7  -3387368.60045  24854882.683    24854892.8624
  21676900.323    -2354915.460 9  -1831875.15147  21676899.894    21676907.6924
 01  4 19 17 23  0.0010000  0  7 24 02 04 05 07 30 09
  20924566.560   -14185132.913 9 -11043149.81448  20924566.114    20924574.3104
  24253151.461     9348597.512 8   7271852.24445  24253150.493    24253165.0354
  20994045.776    -2175753.618 9  -1693041.47447  20994045.645    20994052.4624
  22108807.303   -15340713.990 8 -11942072.23447  22108806.442    22108814.0634
  23709425.175     9348562.728 8   7058643.46546  23709424.287    23709433.4084
  24836165.499    -4476673.547 7  -3464011.25245  24836165.510    24836175.8064
  21684790.180    -2313454.488 9  -1799567.97347  21684789.722    21684797.5224
 01  4 19 17 23 30.0010000  0  7 24 02 04 05 07 30 09
  20917441.980   -14222572.460 9 -11072323.45148  20917441.547    20917449.7634
  24269430.102     9434141.007 7   7338509.21545  24269429.114    24269443.5634
  21002636.424    -2130609.709 9  -1657864.42747  21002636.287    21002643.0714
  22094649.507   -15415113.623 8 -12000045.95547  22094648.643    22094656.2634
  23722359.864     9416535.112 8   7111608.88145  23722359.063    23722368.1454
  24817446.288    -4575042.360 7  -3540662.16945  24817446.450    24817456.6844
  21692777.693    -2271480.021 9  -1766860.67047  21692777.253    21692785.0544
 01  4 19 17 24  0.0010000  0  7 24 02 04 05 07 30 09
  20910419.279   -14259476.920 9 -11101080.14048  20910418.838    20910427.0524
  24285752.668     9519916.670 7   7405347.06245  24285751.793    24285766.1854
  21011325.979    -2084945.917 9  -1622282.27347  21011325.862    21011332.5834
  22080528.006   -15489321.977 8 -12057870.63247  22080527.209    22080534.8864
  23735298.967     9484529.964 8   7164591.79745  23735298.055    23735307.1284
  24798725.392    -4673421.456 7  -3617321.11245  24798725.490    24798735.5994
  21700862.453    -2228994.822 9  -1733755.39447  21700861.976    21700869.7764
 01  4 19 17 24 30.0010000  0  7 24 02 04 05 07 30 09
  20903498.417   -14295846.359 9 -11129419.92948  20903497.979    20903506.1784
  24302119.275     9605922.939 7   7472364.64745  24302118.523    24302133.0904
  21020113.896    -2038765.026 9  -1586297.18947  21020113.788    21020120.5484
  22066443.288   -15563337.837 8 -12115545.31247  22066442.490    22066450.1624
  23748241.979     9552546.294 8   7217591.46945  23748241.065    23748250.1934
  24780002.975    -4771810.162 7  -3693987.55045  24780002.961    24780012.7324
  21709043.900    -2186001.271 9  -1700253.99847  21709043.432    21709051.2784
 01  4 19 17 25  0.0010000  0  7 24 02 04 05 07 30 09
  20896679.425   -14331680.352 9 -11157342.48848  20896678.980    20896687.1524
  24318529.566     9692158.541 7   7539560.88845  24318528.793    24318543.4354
  21028999.727    -1992069.414 9  -1549911.02047  21028999.666    21029006.4604
  22052395.579   -15637159.514 8 -12173068.68447  22052394.715    22052402.3194
  23761189.070     9620583.461 8   7270607.34445  23761188.141    23761197.3204
  24761278.729    -4870207.223 7  -3770660.49745  24761278.544    24761288.4344
  21717321.671    -2142501.411 9  -1666358.07947  21717321.211    21717329.1024
 01  4 19 17 25 30.0010000  0  7 24 02 04 05 07 30 09
  20889962.447   -14366978.073 9 -11184847.17548  20889962.010    20889970.1854
  24334983.353     9778622.724 7   7606935.27045  24334982.482    24334997.1954
  21037983.316    -1944860.824 9  -1513125.12747  21037983.247    21037990.0224
  22038385.039   -15710785.073 8 -12230439.22747  22038384.174    22038391.8114
  23774140.183     9688641.546 8   7323639.53745  23774139.196    23774148.3604
  24742552.843    -4968611.275 7  -3847338.89445  24742552.797    24742562.8254
  21725695.513    -2098497.010 9  -1632069.00947  21725695.064    21725702.9084
 01  4 19 17 26  0.0010000  0  7 24 02 04 05 07 30 09
  20883347.721   -14401738.538 9 -11211933.21448  20883347.299    20883355.4894
  24351480.476     9865315.055 7   7674487.43145  24351479.631    24351494.6374
  21047064.057    -1897141.391 9  -1475941.17747  21047063.971    21047070.7994
  22024412.250   -15784212.252 8 -12287655.19647  22024411.477    22024419.1044
  23787095.194     9756720.503 8   7376687.98145  23787094.378    23787103.4474
  24723826.003    -5067020.703 8  -3924021.48245  24723826.002    24723836.1504
  21734165.066    -2053989.687 9  -1597388.05147  21734164.591    21734172.4514
 01  4 19 17 26 30.0010000  0  7 24 02 04 05 07 30 09
  20876835.334   -14435961.512 9 -11238600.43248  20876834.878    20876843.0484
  24368020.899     9952234.129 7   7742216.25345  24368019.921    24368035.0614
  21056241.611    -1848913.191 9  -1438360.78147  21056241.547    21056248.3394
  22010477.694   -15857439.446 8 -12344715.33447  22010476.864    22010484.4304
  23800053.863     9824819.923 8   7429752.38245  23800053.235    23800062.3894
  24705098.420    -5165433.977 8  -4000707.05945  24705098.456    24705108.6374
  21742729.972    -2008981.400 9  -1562316.73347  21742729.462    21742737.3604
 01  4 19 17 27  0.0010000  0  7 24 02 04 05 07 30 09
  20870425.246   -14469646.552 9 -11264848.48148  20870424.806    20870432.9564
  24384604.200    10039378.984 7   7810121.00745  24384603.259    24384618.3884
  21065515.583    -1800178.612 9  -1400385.80247  21065515.487    21065522.2294
  21996581.536   -15930464.556 8 -12401617.98947  21996580.654    21996588.2304
  23813016.753     9892939.687 8   7482832.59845  23813016.041    23813025.3664
  24686370.370    -5263849.535 7  -4077394.42445  24686370.431    24686380.5034
  21751389.753    -1963474.127 9  -1526856.59747  21751389.277    21751397.2224
 01  4 19 17 27 30.0010000  0  7 24 02 04 05 07 30 09
  20864117.587   -14502793.541 9 -11290677.26748  20864117.132    20864125.3134
  24401230.072    10126747.974 7   7878200.41745  24401229.370    24401244.4724
  21074885.371    -1750940.329 9  -1362018.32847  21074885.251    21074892.0134
  21982723.969   -16003286.363 8 -12458362.22447  21982723.058    21982730.7304
  23825983.449     9961078.929 8   7535928.05545  23825982.686    23825991.7074
  24667642.168    -5362266.599 7  -4154082.96445  24667642.197    24667652.0284
  21760144.025    -1917470.307 9  -1491009.53647  21760143.536    21760151.5014
 01  4 19 17 28  0.0010000  0  7 24 02 04 05 07 30 09
  20857912.435   -14535401.454 9 -11316085.99748  20857912.008    20857920.2244
  24417898.437    10214340.489 7   7946453.98645  24417897.770    24417913.2274
  21084350.669    -1701199.859 9  -1323259.54047  21084350.538    21084357.3034
  21968905.506   -16075902.430 8 -12514946.14947  21968904.624    21968912.3254
  23838953.585    10029237.891 8   7589038.84445  23838952.986    23838962.1904
  24648914.082    -5460683.438 8  -4230771.31645  24648914.132    24648923.8084
  21768992.501    -1870971.394 9  -1454776.69247  21768992.060    21769000.0064
 01  4 19 17 28 30.0010000  0  7 24 02 04 05 07 30 09
  20851809.948   -14567470.053 9 -11341074.48448  20851809.533    20851817.7134
  24434609.334    10302155.039 7   8014880.60545  24434608.592    24434624.2604
  21093911.024    -1650960.029 9  -1284111.63647  21093910.889    21093917.6344
  21955126.580   -16148311.117 8 -12571368.47747  21955125.673    21955133.3764
  23851927.476    10097415.886 8   7642164.46145  23851926.775    23851936.1704
  24630186.347    -5559099.003 8  -4307458.68045  24630186.288    24630195.9604
  21777934.745    -1823979.862 9  -1418159.98847  21777934.290    21777942.2894
 01  4 19 17 29  0.0010000  0  7 24 02 04 05 07 30 09
  20845810.214   -14598998.916 9 -11365642.39448  20845809.816    20845817.9234
  24451362.235    10390190.704 7   8083479.51545  24451361.494    24451377.2574
  21103566.006    -1600222.880 9  -1244576.21347  21103565.845    21103572.6304
  21941387.531   -16220510.037 8 -12627627.34647  21941386.664    21941394.2944
  23864905.003    10165612.929 8   7695304.90445  23864904.250    23864913.6564
  24611459.159    -5657511.591 8  -4384143.73045  24611458.962    24611468.5924
  21786970.451    -1776497.392 9  -1381160.73147  21786969.994    21786978.0194
 01  4 19 17 29 30.0010000  0  7 24 02 04 05 07 30 09
  20839913.262   -14629987.531 9 -11389789.33748  20839912.859    20839920.9254
  24468156.908    10478446.671 7   8152250.07745  24468156.237    24468172.2984
  21113315.147    -1548990.619 9  -1204654.99247  21113315.006    21113321.8724
  21927688.694   -16292497.442 8 -12683721.40147  21927687.878    21927695.5524
  23877886.382    10233828.855 8   7748460.07145  23877885.464    23877894.8364
  24592732.690    -5755919.844 8  -4460825.40845  24592732.406    24592742.1394
  21796099.190    -1728525.972 9  -1343780.48847  21796098.725    21796106.7484
 01  4 19 17 30  0.0010000  0  7 24 02 04 05 07 30 09
  20834119.213   -14660434.875 9 -11413514.51248  20834118.820    20834126.9384
  24484993.613    10566922.509 7   8221191.98245  24484993.021    24485008.8944
  21123158.212    -1497264.908 9  -1164349.26347  21123158.072    21123164.9684
  21914030.611   -16364270.686 8 -12739648.58947  21914029.843    21914037.5034
  23890871.147    10302064.113 8   7801630.32045  23890870.305    23890879.7604
  24574007.547    -5854321.211 7  -4537501.69445  24574007.229    24574016.8224
  21805320.665    -1680066.944 9  -1306020.28347  21805320.231    21805328.2614
 01  4 19 17 30 30.0010000  0  7 24 02 04 05 07 30 09
  20828428.081   -14690341.820 9 -11436818.58848  20828427.700    20828435.8314
  24501871.519    10655615.450 7   8290303.02045  24501870.878    24501886.7324
  21133094.524    -1445049.183 9  -1123661.69647  21133094.393    21133101.3144
  21900413.503   -16435829.486 8 -12795408.67847  21900412.690    21900420.3204
  23903859.183    10370317.116 8   7854814.39545  23903858.473    23903867.9764
  24555283.632    -5952715.886 8  -4614172.78245  24555283.290    24555292.8974
  21814634.306    -1631123.854 9  -1267882.87947  21814633.873    21814641.9404
 01  4 19 17 31  0.0010000  0  7 24 02 04 05 07 30 09
  20822840.095   -14719706.669 9 -11459700.26248  20822839.708    20822847.8654
  24518791.122    10744525.919 7   8359583.54245  24518790.254    24518806.2194
  21143123.888    -1392344.647 9  -1082593.25447  21143123.740    21143130.7014
  21886837.785   -16507170.196 8 -12850998.82747  21886836.958    21886844.6264
  23916851.049    10438588.987 8   7908013.13845  23916850.189    23916859.9304
  24536561.565    -6051101.091 8  -4690836.49045  24536561.303    24536570.6974
  21824039.995    -1581697.157 9  -1229368.65247  21824039.532    21824047.6184
 01  4 19 17 31 30.0010000  0  7 24 02 04 05 07 30 09
  20817355.201   -14748529.886 9 -11482159.88648  20817354.825    20817362.9394
  24535751.605    10833652.223 7   8429032.26645  24535750.724    24535766.9494
  21153245.795    -1339153.981 9  -1041146.00547  21153245.623    21153252.5904
  21873303.805   -16578291.512 8 -12906418.01747  21873302.987    21873310.7024
  23929846.298    10506878.980 8   7961226.05345  23929845.353    23929855.1204
  24517841.458    -6149475.865 8  -4767492.07445  24517841.102    24517850.5984
  21833537.115    -1531789.714 9  -1190479.81047  21833536.647    21833544.7464
 01  4 19 17 32  0.0010000  0  7 24 02 04 05 07 30 09
  20811973.739   -14776810.074 9 -11504196.36648  20811973.341    20811981.3614
  24552753.074    10922994.366 7   8498649.17445  24552752.073    24552768.7194
  21163459.974    -1285478.364 9   -999320.87647  21163459.792    21163466.7484
  21859812.231   -16649190.471 9 -12961663.94547  21859811.417    21859819.0804
  23942844.948    10575187.984 8   8014453.74445  23942844.154    23942854.1264
  24499123.800    -6247837.547 8  -4844137.45345  24499123.460    24499132.7564
  21843125.468    -1481402.410 9  -1151217.05347  21843125.039    21843133.1954
 01  4 19 17 32 30.0010000  0  7 24 02 04 05 07 30 09
  20806695.493   -14804547.544 9 -11525809.95648  20806695.085    20806703.1014
  24569795.306    11012550.750 7   8568432.99045  24569794.445    24569811.1384
  21173765.790    -1231321.150 9   -957120.47547  21173765.597    21173772.5084
  21846363.192   -16719865.815 8 -13016735.63247  21846362.348    21846369.9804
  23955847.227    10643515.136 8   8067695.60345  23955846.403    23955856.3294
  24480408.626    -6346185.354 8  -4920772.03645  24480408.396    24480417.7744
  21852804.740    -1430538.032 9  -1111582.55247  21852804.288    21852812.4214
 01  4 19 17 33  0.0010000  0  7 24 02 04 05 07 30 09
  20801520.652   -14831741.748 9 -11547000.22148  20801520.247    20801528.2114
  24586878.220    11102320.021 7   8638382.70145  24586877.358    24586893.8964
  21184162.801    -1176684.228 9   -914546.27747  21184162.659    21184169.5624
  21832956.982   -16790315.611 8 -13071631.55347  21832956.149    21832963.8294
  23968852.972    10711860.362 8   8120951.49745  23968852.089    23968862.3074
  24461696.375    -6444517.505 7  -4997394.40745  24461696.170    24461705.7474
  21862574.315    -1379198.850 9  -1071578.07347  21862573.835    21862582.0654
 01  4 19 17 33 30.0010000  0  7 24 02 04 05 07 30 09
  20796449.087   -14858392.738 9 -11567767.20148  20796448.688    20796456.6924
  24604001.538    11192300.668 7   8708497.10145  24604000.604    24604017.1624
  21194650.667    -1121570.425 9   -871600.48547  21194650.519    21194657.4144
  21819594.033   -16860538.008 8 -13126350.29247  21819593.230    21819600.9194
  23981862.318    10780223.182 8   8174221.11545  23981861.332    23981871.2094
  24442987.245    -6542833.062 7  -5074003.86045  24442987.033    24442996.9074
  21872433.772    -1327387.093 9  -1031205.35147  21872433.339    21872441.5954
 01  4 19 17 34  0.0010000  0  6 24 04 05 07 30 09
  20791482.259   -14884493.408 9 -11588105.36248  20791481.857    20791489.8664
  21205230.146    -1065975.265 9   -828279.61447  21205229.955    21205236.8764
  21806276.124   -16930523.920 9 -13180884.75347  21806275.369    21806283.0384
  23994876.128    10848610.451 8   8227509.79145  23994874.984    23994884.9434
  24424283.113    -6641123.087 7  -5150593.40245  24424282.861    24424292.8434
  21882384.146    -1275097.806 9   -990460.53747  21882383.731    21882391.9524
 01  4 19 17 34 30.0010000  0  6 24 04 05 07 30 09
  20786618.837   -14910050.809 9 -11608020.19348  20786618.434    20786626.4024
  21215899.354    -1009908.145 9   -784590.97947  21215899.179    21215906.1314
  21793002.186   -17000278.867 8 -13235239.24647  21793001.409    21793009.0454
  24007893.196    10917014.497 8   8280811.56245  24007892.052    24007901.7894
  24405582.892    -6739393.411 8  -5227167.59745  24405582.647    24405592.6504
  21892423.550    -1222340.873 9   -949351.31947  21892423.091    21892431.3284
 01  4 19 17 35  0.0010000  0  6 24 04 05 07 30 09
  20781858.340   -14935067.390 9 -11627513.60648  20781857.909    20781865.8634
  21226657.495     -953373.904 9   -740538.35847  21226657.321    21226664.2214
  21779772.141   -17069803.121 9 -13289413.96647  21779771.348    21779779.0364
  24020912.904    10985432.990 7   8334124.56445  24020911.699    24020921.6204
  24386886.270    -6837645.137 8  -5303727.30945  24386886.060    24386895.9434
  21902551.112    -1169120.604 9   -907881.06047  21902550.660    21902558.9134
 01  4 19 17 35 30.0010000  0  6 24 04 05 07 30 09
  20777201.120   -14959541.125 9 -11646584.02348  20777200.683    20777208.6834
  21237504.387     -896373.508 9   -696122.49547  21237504.162    21237511.0954
  21766586.709   -17139093.226 9 -13343406.24347  21766585.936    21766593.5664
  24033935.588    11053867.269 8   8387449.86845  24033934.433    24033944.3034
  24368193.757    -6935875.088 8  -5380270.05045  24368193.590    24368203.1614
  21912766.810    -1115437.650 9   -866050.26847  21912766.317    21912774.5324
 01  4 19 17 36  0.0010000  0  6 24 04 05 07 30 09
  20772647.394   -14983471.122 9 -11665230.74648  20772646.956    20772654.9514
  21248439.530     -838908.491 9   -651344.59147  21248439.382    21248446.3834
  21753446.411   -17208146.219 9 -13397213.75147  21753445.593    21753453.2074
  24046961.314    11122318.114 8   8440788.05045  24046960.255    24046970.1274
  24349505.723    -7034080.712 8  -5456793.83445  24349505.628    24349514.9854
  21923070.130    -1061293.414 9   -823860.03247  21923069.665    21923077.9174
 01  4 19 17 36 30.0010000  0  6 24 04 05 07 30 09
  20768197.256   -15006856.629 9 -11683453.19248  20768196.827    20768204.7964
  21259462.847     -780980.370 9   -606205.82447  21259462.740    21259469.7514
  21740351.778   -17276959.220 9 -13450834.25947  21740350.948    21740358.5184
  24059990.458    11190786.261 8   8494139.76645  24059989.546    24059999.1404
  24330822.816    -7132259.553 8  -5533296.75445  24330822.802    24330832.1204
  21933460.959    -1006689.070 9   -781311.27647  21933460.561    21933468.9084
 01  4 19 17 37  0.0010000  0  6 24 04 05 07 30 09
  20763850.659   -15029697.610 9 -11701251.33148  20763850.276    20763858.3064
  21270573.840     -722591.902 9   -560708.34847  21270573.748    21270580.7394
  21727303.049   -17345530.955 9 -13504266.76547  21727302.242    21727309.7754
  24073022.781    11259270.871 8   8547504.26545  24073021.943    24073031.5534
  24312145.211    -7230410.499 8  -5609777.94645  24312145.282    24312154.5694
  21943938.867     -951627.737 9   -738406.42047  21943938.437    21943946.8294
 01  4 19 17 37 30.0010000  0  6 24 04 05 07 30 09
  20759607.558   -15051994.885 9 -11718625.80648  20759607.193    20759615.2944
  21281771.919     -663745.836 9   -514854.30047  21281771.786    21281778.8044
  21714300.610   -17413859.303 9 -13557509.61747  21714299.783    21714307.3904
  24086058.240    11327772.023 7   8600881.66745  24086057.270    24086067.0974
  24293473.230    -7328532.019 8  -5686236.19645  24293473.329    24293482.5774
  21954503.303     -896111.488 9   -695147.09447  21954502.884    21954511.3254
 01  4 19 17 38  0.0010000  0  6 24 04 05 07 30 09
  20755468.262   -15073747.036 9 -11735575.51048  20755467.879    20755475.9794
  21293056.750     -604443.849 9   -468644.99647  21293056.623    21293063.6204
  21701344.932   -17481941.517 9 -13610560.67847  21701344.122    21701351.7304
  24099096.750    11396290.180 8   8654272.32245  24099096.043    24099105.8114
  24274807.320    -7426621.695 8  -5762669.63445  24274807.401    24274816.6864
  21965154.029     -840141.953 9   -651534.54947  21965153.620    21965162.0684
 01  4 19 17 38 30.0010000  0  6 24 04 05 07 30 09
  20751432.541   -15094954.610 9 -11752100.86648  20751432.192    20751440.2484
  21304427.759     -544689.138 9   -422082.91047  21304427.612    21304434.5514
  21688436.309   -17549776.363 9 -13663418.98547  21688435.539    21688443.1764
  24112138.619    11464824.533 8   8707675.60745  24112137.824    24112147.5904
  24256147.599    -7524678.561 8  -5839077.51545  24256147.709    24256156.9254
  21975890.401     -783722.233 9   -607571.20447  21975889.988    21975898.4594
 01  4 19 17 39  0.0010000  0  6 24 04 05 07 30 09
  20747500.665   -15115616.991 9 -11768201.39848  20747500.284    20747508.2914
  21315884.510     -484483.276 9   -375169.28247  21315884.380    21315891.4044
  21675575.329   -17617361.070 9 -13716082.37847  21675574.572    21675582.1704
  24125183.278    11533375.716 8   8761091.99145  24125182.584    24125192.5144
  24237494.634    -7622700.269 8  -5915457.99845  24237494.701    24237504.1244
  21986712.175     -726853.811 9   -563258.22847  21986711.746    21986720.2684
 01  4 19 17 39 30.0010000  0  6 24 04 05 07 30 09
  20743672.467   -15135734.459 9 -11783877.32548  20743672.035    20743680.0264
  21327426.637     -423828.787 9   -327906.08447  21327426.550    21327433.6134
  21662762.325   -17684693.527 9 -13768549.21147  21662761.582    21662769.2234
  24138231.381    11601943.450 8   8814521.26645  24138230.581    24138240.6294
  24218848.682    -7720685.230 8  -5991809.86545  24218848.720    24218858.0484
  21997618.952     -669539.040 9   -518597.44347  21997618.506    21997627.0064
 01  4 19 17 40  0.0010000  0  6 24 04 05 07 30 09
  20739947.871   -15155307.264 9 -11799128.84448  20739947.463    20739955.3974
  21339053.640     -362728.528 9   -280295.52447  21339053.570    21339060.5734
  21649997.753   -17751771.821 9 -13820818.00047  21649996.989    21650004.6174
  24151282.493    11670527.567 8   8867963.28545  24151281.566    24151292.0074
  24200210.108    -7818631.820 8  -6068131.80645  24200210.153    24200219.4084
  22008610.052     -611780.507 9   -473590.87447  22008609.616    22008618.1304
 01  4 19 17 40 30.0010000  0  6 24 04 05 07 30 09
  20736327.077   -15174334.927 9 -11813955.56848  20736326.630    20736334.5784
  21350765.207     -301184.713 9   -232339.33447  21350765.073    21350772.0104
  21637281.887   -17818594.091 9 -13872887.28347  21637281.122    21637288.7454
  24164336.731    11739128.134 8   8921418.15145  24164335.858    24164346.4304
  24181579.161    -7916538.412 8  -6144422.59645  24181579.201    24181588.2544
  22019685.217     -553580.444 9   -428240.25947  22019684.789    22019693.2734
 01  4 19 17 41  0.0010000  0  6 24 04 05 07 30 09
  20732809.822   -15192818.070 9 -11828358.00048  20732809.395    20732817.3414
  21362560.542     -239199.813 9   -184039.44647  21362560.437    21362567.3854
  21624615.134   -17885158.166 9 -13924755.38247  21624614.381    21624621.9694
  24177394.267    11807745.157 8   8974885.83445  24177393.409    24177403.9124
  24162956.073    -8014403.388 8  -6220680.94745  24162956.074    24162965.2294
  22030844.064     -494940.972 9   -382547.24447  22030843.604    22030852.0624
 01  4 19 17 41 30.0010000  0  6 24 04 05 07 30 09
  20729396.250   -15210756.521 9 -11842335.99548  20729395.818    20729403.7434
  21374439.291     -176776.782 9   -135398.16447  21374439.183    21374446.1694
  21611997.965   -17951462.123 9 -13976420.78747  21611997.166    21612004.7094
  24190454.693    11876378.258 8   9028366.05645  24190453.907    24190464.4384
  24144341.305    -8112224.940 8  -6296905.46345  24144341.270    24144350.3254
  22042085.933     -435864.998 9   -336514.09547  22042085.462    22042093.9454
 01  4 19 17 42  0.0010000  0  6 24 04 05 07 30 09
  20726086.208   -15228150.571 9 -11855889.78548  20726085.789    20726093.7034
  21386401.038     -113917.742 9    -86417.12947  21386400.893    21386407.9334
  21599430.647   -18017503.839 9 -14027881.85247  21599429.856    21599437.4224
  24203518.424    11945027.491 8   9081858.82545  24203517.613    24203528.1454
  24125735.184    -8210001.275 8  -6373094.74745  24125735.041    24125744.0514
  22053410.411     -376354.636 9   -290142.45847  22053409.962    22053418.4404
 01  4 19 17 42 30.0010000  0  6 24 04 05 07 30 09
  20722879.841   -15245000.246 9 -11869019.38748  20722879.429    20722887.3204
  21398445.208      -50625.292 9    -37098.37647  21398445.085    21398452.1244
  21586913.568   -18083281.479 9 -14079137.14547  21586912.841    21586920.3344
  24216585.205    12013692.829 8   9135364.15245  24216584.457    24216594.7494
  24107137.954    -8307730.812 8  -6449247.54845  24107137.696    24107146.7174
  22064817.053     -316412.432 9   -243434.32647  22064816.615    22064825.1464
 01  4 19 17 43  0.0010000  0  6 24 04 05 07 30 09
  20719776.964   -15261305.958 9 -11881725.12548  20719776.527    20719784.4344
  21410571.323       13097.898 9     12556.01947  21410571.220    21410578.2434
  21574447.226   -18148793.043 9 -14130185.11147  21574446.441    21574453.8874
  24229655.199    12082373.987 8   9188881.77945  24229654.289    24229664.5204
  24088549.793    -8405411.751 8  -6525362.47645  24088549.494    24088558.6044
  22076305.443     -256040.644 9   -196391.45147  22076305.032    22076313.6414
 01  4 19 17 43 30.0010000  0  6 24 04 05 07 30 09
  20716777.671   -15277067.162 9 -11894006.56648  20716777.263    20716785.1684
  21422779.122       77249.738 9     62544.42547  21422778.979    21422785.9834
  21562031.957   -18214035.783 9 -14181023.59347  21562031.106    21562038.5964
  24242728.016    12151071.618 8   9242412.24745  24242727.129    24242737.3094
  24069971.154    -8503042.000 8  -6601437.91045  24069971.026    24069980.2584
  22087875.207     -195241.353 9   -149015.45647  22087874.792    22087883.4954
 01  4 19 17 44  0.0010000  0  6 24 04 05 07 30 09
  20713882.054   -15292283.958 9 -11905863.79848  20713881.608    20713889.5054
  21435067.930      141827.886 9    112865.02047  21435067.811    21435074.8514
  21549668.245   -18279007.548 9 -14231650.94047  21549667.406    21549674.8704
  24255803.936    12219785.567 8   9295955.43245  24255803.097    24255813.5054
  24051402.538    -8600619.875 8  -6677472.52245  24051402.511    24051411.8024
  22099525.978     -134016.831 9   -101308.11047  22099525.537    22099534.2254
 01  4 19 17 44 30.0010000  0  6 24 04 05 07 30 09
  20711089.817   -15306957.038 9 -11917297.35648  20711089.381    20711097.3144
  21447437.364      206829.717 9    163515.75547  21447437.288    21447444.3204
  21537356.388   -18343706.355 9 -14282065.59047  21537355.579    21537363.1334
  24268882.941    12288515.955 8   9349511.44445  24268882.152    24268892.5584
  24032844.178    -8698143.387 8  -6753464.77545  24032844.209    24032853.5964
  22111257.093      -72369.521 9    -53271.32147  22111256.675    22111265.3784
 01  4 19 17 45  0.0010000  0  6 24 04 05 07 30 09
  20708400.895   -15321086.999 9 -11928307.70148  20708400.493    20708408.4764
  21459886.891      272251.963 9    214494.09447  21459886.740    21459893.7664
  21525096.651   -18408130.922 9 -14332266.54547  21525095.936    21525103.5394
  24281965.106    12357261.948 8   9403079.61345  24281964.235    24281974.6334
  24014296.509    -8795611.371 8  -6829413.78145  24014296.569    24014305.8894
  22123068.118      -10302.469 9     -4907.46247  22123067.729    22123076.4104
 01  4 19 17 45 30.0010000  0  6 24 04 05 07 30 09
  20705815.430   -15334673.549 9 -11938894.61148  20705815.043    20705823.0114
  21472415.848      338092.606 9    265798.45147  21472415.766    21472422.8854
  21512889.655   -18472279.021 9 -14382252.07347  21512888.937    21512896.5604
  24295050.033    12426023.908 7   9456660.21345  24295049.277    24295059.5984
  23995759.850    -8893021.866 8  -6905317.99145  23995759.821    23995769.0464
  22134958.562       52181.918 9     43781.59247  22134958.167    22134966.8634
 01  4 19 17 46  0.0010000  0  6 24 04 05 07 30 09
  20703333.324   -15347717.241 9 -11949058.51648  20703332.931    20703340.9234
  21485024.112      404349.302 9    317427.00147  21485024.007    21485031.1944
  21500735.791   -18536148.058 9 -14432020.15547  21500735.041    21500742.7104
  24308137.991    12494802.062 7   9510253.44245  24308137.337    24308147.8444
  23977234.483    -8990372.592 8  -6981175.63745  23977234.556    23977243.6574
  22146928.075      115081.556 9     92794.21947  22146927.641    22146936.3604
 01  4 19 17 46 30.0010000  0  6 24 04 05 07 30 09
  20700954.585   -15360217.389 9 -11958798.88048  20700954.208    20700962.1734
  21497711.191      471019.806 9    369378.00147  21497711.054    21497718.2774
  21488635.508   -18599735.459 9 -14481568.77447  21488634.788    21488642.4924
  24321229.153    12563596.840 7   9563859.58645  24321228.464    24321239.2814
  23958720.883    -9087661.489 8  -7056985.10345  23958721.002    23958730.1004
  22158976.039      178394.351 9    142128.78547  22158975.690    22158984.5004
 01  4 19 17 47  0.0010000  0  6 24 04 05 07 30 09
  20698679.054   -15372175.405 9 -11968116.80248  20698678.673    20698686.6164
  21510476.227      538100.780 9    421648.84647  21510476.127    21510483.3664
  21476589.135   -18663039.780 9 -14530896.80747  21476588.347    21476596.0044
  24334323.457    12632407.591 7   9617478.22845  24334322.629    24334333.6504
  23940219.366    -9184887.469 8  -7132745.54645  23940219.531    23940228.5434
  22171102.141      242117.233 9    191782.90847  22171101.796    22171110.6204
 01  4 19 17 47 30.0010000  0  6 24 04 05 07 30 09
  20696506.527   -15383591.800 9 -11977012.68648  20696506.177    20696514.0944
  21523318.976      605589.611 9    474237.50447  21523318.866    21523326.0904
  21464596.919   -18726059.192 9 -14580002.83347  21464596.139    21464603.7904
  24347420.871    12701234.070 7   9671109.09345  24347420.102    24347430.9704
  23921730.217    -9282048.757 8  -7208455.58145  23921730.411    23921739.3304
  22183305.769      306247.338 9    241754.34347  22183305.407    22183314.2774
 01  4 19 17 48  0.0010000  0  6 24 04 05 07 30 09
  20694437.090   -15394466.744 9 -11985486.65648  20694436.740    20694444.6814
  21536238.872      673483.749 9    527141.98147  21536238.772    21536245.9454
  21452659.359   -18788791.567 9 -14628885.19347  21452658.584    21452666.2364
  24360521.134    12770076.465 7   9724752.39245  24360520.383    24360531.3474
  23903253.850    -9379143.317 8  -7284113.62845  23903254.032    23903262.9084
  22195586.382      370782.356 9    292041.29147  22195586.035    22195594.9184
 01  4 19 17 48 30.0010000  0  6 24 04 05 07 30 09
  20692470.530   -15404801.188 9 -11993539.45948  20692470.181    20692478.1314
  21549235.416      741780.448 9    580360.13747  21549235.295    21549242.4324
  21440776.705   -18851235.032 9 -14677542.43247  21440775.970    21440783.5934
  24373624.685    12838934.445 7   9778407.77145  24373623.891    24373634.7284
  23884790.515    -9476169.621 8  -7359718.48045  23884790.594    23884799.4064
  22207943.614      435719.565 9    342641.63747  22207943.260    22207952.1324
 01  4 19 17 49  0.0010000  0  6 24 04 05 07 30 09
  20690606.744   -15414595.618 9 -12001171.47748  20690606.371    20690614.3154
  21562307.938      810476.882 9    633889.78447  21562307.825    21562314.9574
  21428949.512   -18913387.477 9 -14725972.90447  21428948.787    21428956.3994
  24386731.119    12907808.046 8   9832075.32745  24386730.228    24386741.1244
  23866340.332    -9573125.743 8  -7435268.65845  23866340.426    23866349.3384
  22220376.862      501056.190 9    393553.21447  22220376.503    22220385.3444
 01  4 19 17 49 30.0010000  0  6 24 04 05 07 30 09
  20688845.718   -15423849.913 9 -12008382.60748  20688845.330    20688853.2624
  21575456.039      879570.721 9    687729.09347  21575455.963    21575463.1214
  21417178.015   -18975246.920 9 -14774175.05647  21417177.287    21417184.9124
  24399840.729    12976697.281 8   9885755.09545  24399839.772    24399850.5194
  23847903.870    -9670010.089 8  -7510762.89545  23847903.890    23847912.8434
  22232885.752      566789.637 9    444774.00947  22232885.304    22232894.1104
 01  4 19 17 50  0.0010000  0  7 24 10 04 05 07 30 09
  20687184.985   -15432576.898 9 -12015182.84848  20687184.600    20687192.5364
  24882513.956    -3070943.132 7  -2352500.90045  24882512.975    24882531.8294
  21588677.074      949046.948 9    741866.36547  21588676.920    21588684.0714
  21405460.406   -19036823.565 9 -14822156.85447  21405459.679    21405467.2614
  24412950.920    13045589.928 8   9939437.51045  24412949.867    24412960.5364
  23829479.025    -9766832.975 8  -7586209.25245  23829479.005    23829488.0354
  22245467.204      632905.546 9    496292.82347  22245466.784    22245475.6264
 01  4 19 17 50 30.0010000  0  7 24 10 04 05 07 30 09
  20685627.939   -15440759.078 9 -12021558.56148  20685627.578    20685635.4854
  24863511.694    -3170799.507 7  -2430310.63845  24863510.781    24863529.2924
  21601973.663     1018920.961 9    796313.61147  21601973.555    21601980.7564
  21393800.435   -19098097.444 9 -14869902.72847  21393799.681    21393807.2154
  24426065.055    13114504.068 8   9993136.68145  24426063.987    24426074.5794
  23811069.697    -9863574.155 8  -7661591.93345  23811069.640    23811078.6894
  22258124.256      699418.963 9    548121.38047  22258123.871    22258132.8044
 01  4 19 17 51  0.0010000  0  7 24 10 04 05 07 30 09
  20684174.308   -15448398.253 9 -12027511.16448  20684173.924    20684181.7844
  24844494.981    -3270731.003 7  -2508178.94045  24844494.195    24844512.5094
  21615345.269     1089189.022 9    851067.89847  21615345.118    21615352.3544
  21382198.253   -19159067.166 9 -14917411.59447  21382197.493    21382204.9974
  24439183.064    13183438.553 8  10046851.68245  24439181.957    24439192.4354
  23792675.932    -9960233.120 8  -7736910.54345  23792675.953    23792684.8944
  22270856.294      766326.328 9    600256.90947  22270855.927    22270864.9404
 01  4 19 17 51 30.0010000  0  7 24 10 04 05 07 30 09
  20682823.537   -15455496.551 9 -12033042.29648  20682823.169    20682830.9954
  24825464.277    -3370736.625 7  -2586105.02445  24825463.450    24825481.6594
  21628791.085     1159847.005 9    906126.02347  21628790.939    21628798.1524
  21370653.927   -19219732.808 9 -14964683.51947  21370653.215    21370660.6714
  24452304.485    13252391.706 8  10100581.23545  24452303.502    24452314.0304
  23774297.850   -10056809.605 8  -7812164.87445  23774297.916    23774306.9674
  22283662.597      833623.115 9    652695.88547  22283662.191    22283671.1954
 01  4 19 17 52  0.0010000  0  7 24 10 04 05 07 30 09
  20681575.371   -15462056.034 9 -12038153.57648  20681574.954    20681582.7304
  24806419.920    -3470815.213 7  -2664087.99345  24806418.854    24806436.9454
  21642310.184     1230890.258 9    961484.35847  21642310.060    21642317.2554
  21359167.700   -19280093.627 9 -15011717.91647  21359166.946    21359174.3764
  24465429.295    13321361.827 8  10154324.02245  24465428.316    24465438.4834
  23755935.429   -10153303.318 8  -7887354.70045  23755935.598    23755944.7454
  22296542.142      901305.123 9    705435.03047  22296541.715    22296550.7324
 01  4 19 17 52 30.0010000  0  7 24 10 04 05 07 30 09
  20680429.524   -15468077.665 9 -12042845.75248  20680429.117    20680436.8764
  24787361.916    -3570963.947 7  -2742125.63745  24787360.868    24787378.8744
  21655902.223     1302316.376 9   1017141.02747  21655902.071    21655909.2414
  21347739.838   -19340147.714 9 -15058513.29947  21347739.038    21347746.4304
  24478557.291    13390348.979 8  10208080.06545  24478556.318    24478566.5684
  23737589.256   -10249712.453 8  -7962478.64145  23737589.499    23737598.6634
  22309494.465      969369.673 9    758472.25247  22309494.019    22309503.0284
 01  4 19 17 53  0.0010000  0  7 24 10 04 05 07 30 09
  20679385.893   -15473562.060 9 -12047119.30148  20679385.459    20679393.2204
  24768290.781    -3671180.212 7  -2820215.88245  24768289.901    24768308.0164
  21669566.546     1374122.421 9   1073093.74247  21669566.391    21669573.5424
  21336370.633   -19399893.032 9 -15105068.08747  21336369.869    21336377.2594
  24491688.517    13459353.107 8  10261849.34845  24491687.397    24491697.6924
  23719259.632   -10346035.227 8  -8037535.27445  23719259.908    23719269.0004
  22322519.054     1037813.965 9    811805.38447  22322518.642    22322527.5694
 01  4 19 17 53 30.0010000  0  7 24 10 04 05 07 30 09
  20678444.223   -15478510.482 9 -12050975.21248  20678443.801    20678451.5924
  24749207.729    -3771461.608 7  -2898356.88845  24749206.711    24749224.9804
  21683302.482     1446304.934 9   1129339.80847  21683302.332    21683309.4444
  21325060.513   -19459328.309 9 -15151381.29147  21325059.708    21325067.1074
  24504822.759    13528373.368 7  10315631.19045  24504821.545    24504831.9304
  23700946.791   -10442270.388 8  -8112523.65545  23700946.926    23700956.0114
  22335615.404     1106634.753 9    865431.88247  22335614.945    22335623.8344
 01  4 19 17 54  0.0010000  0  7 24 10 04 05 07 30 09
  20677604.350   -15482923.655 9 -12054414.04248  20677603.953    20677611.7914
  24730112.675    -3871806.060 7  -2976547.01045  24730111.750    24730129.8134
  21697109.564     1518861.388 9   1185877.25847  21697109.384    21697116.5074
  21313809.678   -19518451.657 9 -15197451.43547  21313808.887    21313816.3194
  24517959.845    13597409.725 8  10369425.57845  24517958.650    24517969.1984
  23682651.008   -10538416.129 8  -8187442.35145  23682651.111    23682660.0564
  22348782.688     1175829.103 9    919349.45647  22348782.230    22348791.2464
 01  4 19 17 54 30.0010000  0  7 24 10 04 05 07 30 09
  20676866.372   -15486801.690 9 -12057435.88248  20676865.973    20676873.8404
  24711006.118    -3972209.547 7  -3054783.13545  24711005.398    24711023.4264
  21710987.381     1591789.887 9   1242704.61447  21710987.206    21710994.3554
  21302618.767   -19577260.019 9 -15243276.13047  21302618.004    21302625.4614
  24531100.151    13666463.238 7  10423233.33045  24531099.154    24531110.0184
  23664372.694   -10634469.616 8  -8262289.15546  23664372.646    23664381.6604
  22362020.705     1245395.325 9    973556.80747  22362020.275    22362029.3164
 01  4 19 17 55  0.0010000  0  7 24 10 04 05 07 30 09
  20676230.124   -15490145.270 9 -12060041.26948  20676229.714    20676237.5704
  24691888.972    -4072669.388 7  -3133063.19845  24691888.182    24691906.1314
  21724935.391     1665087.565 9   1299819.64147  21724935.290    21724942.4904
  21291488.188   -19635751.664 9 -15288854.03447  21291487.420    21291494.9054
  24544243.694    13735533.541 7  10477054.20545  24544242.604    24544253.8994
  23646112.156   -10730428.994 8  -8337062.62246  23646112.078    23646121.1294
  22375328.945     1315330.510 9   1028051.66047  22375328.522    22375337.5814
 01  4 19 17 55 30.0010000  0  7 24 10 04 05 07 30 09
  20675695.280   -15492955.796 9 -12062231.28448  20675694.894    20675702.7784
  24672761.623    -4173183.114 7  -3211385.24245  24672760.664    24672778.5154
  21738953.167     1738750.999 9   1357219.67147  21738953.006    21738960.2374
  21280418.120   -19693925.091 9 -15334183.97047  21280417.374    21280424.9324
  24557390.533    13804620.227 7  10530887.82045  24557389.323    24557400.9214
  23627869.740   -10826293.041 8  -8411761.81946  23627869.717    23627878.7484
  22388706.880     1385631.172 9   1082831.29347  22388706.441    22388715.3974
 01  4 19 17 56  0.0010000  0  7 24 10 04 05 07 30 09
  20675261.843   -15495233.396 9 -12064006.03548  20675261.454    20675269.3524
  24653624.545    -4273747.310 7  -3289746.62345  24653623.702    24653641.4954
  21753040.086     1812778.167 9   1414903.13447  21753039.944    21753047.2214
  21269409.144   -19751777.701 9 -15379263.92647  21269408.375    21269415.9604
  24570540.569    13873723.856 7  10584734.66045  24570539.429    24570550.7824
  23609645.976   -10922059.146 8  -8486384.69245  23609645.983    23609654.9864
  22402153.857     1456295.120 8   1137894.01447  22402153.382    22402162.3734
 01  4 19 17 56 30.0010000  0  7 24 10 04 05 07 30 09
  20674929.700   -15496978.643 9 -12065365.96548  20674929.324    20674937.2724
  24634478.424    -4374359.193 7  -3368145.16145  24634477.787    24634495.3664
  21767195.732     1887166.393 9   1472867.93147  21767195.564    21767202.8664
  21258461.568   -19809307.588 9 -15424092.40247  21258460.814    21258468.4484
  24583693.589    13942844.262 7  10638594.53545  24583692.562    24583704.1054
  23591441.157   -11017725.750 8  -8560930.05345  23591441.195    23591450.0774
  22415669.352     1527319.665 8   1193237.72047  22415668.915    22415678.0154
 01  4 19 17 57  0.0010000  0  7 24 10 04 05 07 30 09
  20674698.807   -15498192.236 9 -12066311.61648  20674698.424    20674706.3474
  24615323.773    -4475015.914 7  -3446578.62945  24615323.247    24615340.7654
  21781419.578     1961912.906 9   1531111.92447  21781419.397    21781426.7544
  21247575.821   -19866512.481 9 -15468667.64547  21247575.090    21247582.7244
  24596850.130    14011981.829 7  10692467.76845  24596849.155    24596860.7034
  23573255.702   -11113290.533 8  -8635396.06446  23573255.725    23573264.6194
  22429253.002     1598702.302 9   1248860.45847  22429252.601    22429261.7764
 01  4 19 17 57 30.0010000  0  7 24 10 04 05 07 30 09
  20674568.671   -15498875.906 9 -12066844.34348  20674568.304    20674576.2404
  24596161.200    -4575714.533 8  -3525044.74545  24596160.513    24596178.0154
  21795710.967     2037014.983 9   1589632.97847  21795710.834    21795718.2974
  21236752.209   -19923390.676 9 -15512988.31447  21236751.513    21236759.2164
  24610010.166    14081136.218 8  10746354.17345  24610009.224    24610020.5354
  23555089.969   -11208751.785 8  -8709781.40746  23555090.031    23555098.9344
  22442904.376     1670439.880 9   1304759.76547  22442903.931    22442913.1034
 01  4 19 17 58  0.0010000  0  8 24 10 04 05 06 07 30 09
  20674538.938   -15499032.124 9 -12066966.07448  20674538.595    20674546.5224
  24576990.947    -4676454.428 8  -3603543.02145  24576990.214    24577007.4834
  21810069.133     2112467.770 9   1648427.30547  21810069.033    21810076.5674
  21225990.839   -19979942.036 9 -15557054.31147  21225990.143    21225997.8344
  25154890.589    -5543517.482 7  -4085827.48745  25154889.982    25154904.1244
  24623172.795    14150305.594 7  10800252.17445  24623171.912    24623183.4164
  23536943.942   -11304109.456 8  -8784086.03346  23536944.023    23536953.0334
  22456622.330     1742527.751 8   1360932.02847  22456621.874    22456631.0684
 01  4 19 17 58 30.0010000  0  8 24 10 04 05 06 07 30 09
  20674609.239   -15498662.836 9 -12066678.31648  20674608.886    20674616.7784
  24557813.192    -4777233.894 7  -3682072.12645  24557812.361    24557829.2574
  21824493.350     2188267.254 9   1707491.78847  21824493.248    21824500.7624
  21215291.795   -20036165.948 9 -15600865.15247  21215291.090    21215298.7644
  25141222.490    -5615344.054 7  -4141796.20245  25141222.024    25141235.9704
  24636337.981    14219488.521 8  10854160.80745  24636337.218    24636348.5164
  23518817.733   -11399362.703 8  -8858309.28346  23518817.821    23518826.9094
  22470406.023     1814961.613 8   1417373.90047  22470405.622    22470414.9544
 01  4 19 17 59  0.0010000  0  8 24 10 04 05 06 07 30 09
  20674780.396   -15497763.513 9 -12065977.54548  20674780.008    20674787.9294
  24538629.449    -4878044.022 7  -3760625.13545  24538628.562    24538645.2934
  21838984.226     2264416.721 9   1766828.98447  21838984.066    21838991.5624
  21204656.622   -20092054.302 9 -15644414.51847  21204655.892    21204663.5794
  25127563.906    -5687119.159 7  -4197724.82045  25127563.520    25127577.5764
  24649507.130    14288691.244 7  10908084.81445  24649506.421    24649517.7134
  23500713.021   -11494503.681 8  -8932445.04546  23500713.064    23500722.1074
  22484256.308     1887745.045 9   1474088.16247  22484255.933    22484265.3214
 01  4 19 17 59 30.0010000  0  8 24 10 04 05 06 07 30 09
  20675052.016   -15496336.120 9 -12064865.28848  20675051.650    20675059.5884
  24519440.076    -4978883.359 7  -3839200.88345  24519439.086    24519455.9404
  21853540.868     2340912.085 9   1826435.71747  21853540.688    21853548.2014
  21194085.345   -20147606.645 9 -15687702.05647  21194084.630    21194092.3544
  25113914.701    -5758844.894 7  -4253614.92945  25113914.359    25113928.7084
  24662679.519    14357911.965 8  10962022.87445  24662678.972    24662690.2134
  23482629.740   -11589532.133 8  -9006493.15046  23482629.713    23482638.7094
  22498172.361     1960873.400 8   1531071.20047  22498171.949    22498181.3294
 01  4 19 18  0  0.0010000  0  8 24 10 04 05 06 07 30 09
  20675423.991   -15494381.578 9 -12063342.26948  20675423.602    20675431.5344
  24500245.706    -5079748.895 7  -3917797.06445  24500244.664    24500261.5364
  21868162.738     2417750.430 9   1886309.71147  21868162.616    21868170.0774
  21183578.546   -20202820.690 9 -15730725.98747  21183577.784    21183585.4734
  25100275.094    -5830521.055 7  -4309466.41445  25100274.931    25100288.9384
  24675855.527    14427151.081 8  11015975.27445  24675854.830    24675866.0404
  23464568.345   -11684445.718 8  -9080451.72646  23464568.288    23464577.1264
  22512153.389     2034344.040 8   1588320.94947  22512152.980    22512162.4034
 01  4 19 18  0 30.0010000  0  8 24 10 04 05 06 07 30 09
  20675895.992   -15491901.221 9 -12061409.52648  20675895.595    20675903.5504
  24481046.630    -5180638.520 7  -3996412.00445  24481045.775    24481062.6914
  21882849.215     2494928.447 9   1946448.38447  21882849.099    21882856.5924
  21173136.263   -20257695.356 9 -15773485.47147  21173135.513    21173143.2084
  25086645.041    -5902148.757 7  -4365280.11345  25086644.897    25086658.6564
  24689035.057    14496407.775 7  11069941.32645  24689034.237    24689045.3744
  23446528.941   -11779243.503 8  -9154320.07346  23446528.816    23446537.6874
  22526198.880     2108153.320 8   1645834.57247  22526198.497    22526207.9114
 01  4 19 18  1  0.0010000  0  8 24 10 04 05 06 07 30 09
  20676467.769   -15488896.346 9 -12059068.06748  20676467.409    20676475.3184
  24461843.663    -5281549.303 7  -4075043.41145  24461842.739    24461859.7304
  21897599.917     2572443.623 9   2006849.77347  21897599.777    21897607.3074
  21162758.927   -20312228.525 9 -15815978.84547  21162758.207    21162765.9114
  25073023.944    -5973728.151 7  -4421056.18245  25073023.877    25073037.2644
  24702217.556    14565682.249 7  11123921.27045  24702216.642    24702227.7274
  23428511.929   -11873923.158 8  -9228096.36646  23428511.848    23428520.7444
  22540308.335     2182298.501 8   1703609.94047  22540307.939    22540317.3244
 01  4 19 18  1 30.0010000  0  8 24 10 04 05 06 07 30 09
  20677139.361   -15485367.364 9 -12056318.21048  20677138.965    20677146.8924
  24442637.316    -5382477.498 7  -4153688.40245  24442636.525    24442653.3184
  21912414.214     2650293.322 9   2067511.83747  21912414.111    21912421.6554
  21152447.089   -20366417.733 9 -15858204.20547  21152446.336    21152454.0064
  25059411.886    -6045259.021 7  -4476794.44045  25059411.821    25059425.4014
  24715403.441    14634974.939 8  11177915.42545  24715402.682    24715414.0044
  23410517.850   -11968482.188 8  -9301778.66246  23410517.876    23410526.7084
  22554481.265     2256777.236 8   1761645.21747  22554480.868    22554490.2424
 01  4 19 18  2  0.0010000  0  8 24 10 04 05 06 07 30 09
  20677910.286   -15481315.670 9 -12053161.05148  20677909.921    20677917.8964
  24423428.337    -5483420.988 7  -4232345.30345  24423427.353    24423443.9584
  21927291.643     2728474.757 9   2128432.38847  21927291.572    21927299.1564
  21142201.037   -20420261.168 9 -15900160.13447  21142200.289    21142207.9034
  25045809.093    -6116741.908 7  -4532495.29845  25045808.937    25045822.7364
  24728593.030    14704285.602 7  11231923.50345  24728592.102    24728603.9784
  23392547.157   -12062918.542 8  -9375365.38246  23392547.266    23392556.0124
  22568716.990     2331586.286 8   1819937.88247  22568716.632    22568726.0474
 01  4 19 18  2 30.0010000  0  8 24 10 04 05 06 07 30 09
  20678780.448   -15476742.777 9 -12049597.76148  20678780.098    20678788.0764
  24404216.857    -5584376.997 8  -4311011.95445  24404215.934    24404232.1094
  21942231.732     2806984.820 9   2189609.02447  21942231.609    21942239.0874
  21132021.073   -20473757.277 9 -15941845.41547  21132020.317    21132027.8584
  25032215.400    -6188177.456 7  -4588159.25945  25032215.138    25032228.9494
  24741786.062    14773613.934 8  11285945.46545  24741785.237    24741796.7444
  23374600.102   -12157230.877 8  -9448855.46946  23374600.240    23374608.8684
  22583015.002     2406722.428 8   1878485.41547  22583014.654    22583024.1184
 01  4 19 18  3  0.0010000  0  8 24 10 04 05 06 07 30 09
  20679749.661   -15471649.552 9 -12045629.01348  20679749.308    20679757.2974
  24385003.661    -5685342.442 8  -4389685.95045  24385002.654    24385018.6534
  21957233.792     2885820.851 9   2251039.65647  21957233.693    21957241.1234
  21121907.602   -20526903.909 9 -15983258.37447  21121906.878    21121914.4164
  25018630.744    -6259565.728 7  -4643786.38445  25018630.412    25018644.2844
  24754982.435    14842960.423 7  11339981.45545  24754981.503    24754993.2694
  23356677.146   -12251417.083 8  -9522247.26946  23356677.259    23356685.7804
  22597374.838     2482182.984 8   1937285.74247  22597374.453    22597383.9274
 01  4 19 18  3 30.0010000  0  8 24 10 04 05 06 07 30 09
  20680817.647   -15466037.098 9 -12041255.67248  20680817.288    20680825.3504
  24365789.399    -5786313.974 8  -4468364.71445  24365788.156    24365804.1294
  21972297.297     2964979.872 8   2312721.96747  21972297.175    21972304.6384
  21111861.037   -20579699.020 9 -16024397.41947  21111860.273    21111867.8234
  25005055.095    -6330906.783 7  -4699376.73745  25005054.691    25005068.5374
  24768182.249    14912324.572 8  11394031.25945  24768181.334    24768193.0214
  23338778.701   -12345474.784 8  -9595538.92246  23338778.700    23338787.1724
  22611795.831     2557965.243 8   1996336.75047  22611795.400    22611804.9004
 01  4 19 18  4  0.0010000  0  8 24 10 04 05 06 07 30 09
  20681984.318   -15459906.135 9 -12036478.30348  20681983.980    20681992.0274
  24346574.118    -5887289.177 7  -4547046.31745  24346572.979    24346588.7984
  21987421.794     3044459.773 8   2374654.32047  21987421.715    21987429.1884
  21101881.717   -20632140.670 9 -16065261.03547  21101880.952    21101888.5154
  24991488.246    -6402200.851 7  -4754930.47445  24991487.813    24991501.6624
  24781385.550    14981706.987 7  11448095.37445  24781384.594    24781396.2294
  23320904.947   -12439402.015 8  -9668728.91346  23320904.874    23320913.3134
  22626277.365     2634066.319 8   2055636.18147  22626276.964    22626286.5464
 01  4 19 18  4 30.0010000  0  8 24 10 04 05 06 07 30 09
  20683249.692   -15453256.577 9 -12031296.83048  20683249.334    20683257.3914
  24327358.887    -5988263.406 7  -4625727.17745  24327357.862    24327373.7094
  22002606.896     3124258.518 8   2436835.12147  22002606.872    22002614.4174
  21091970.194   -20684225.622 9 -16105846.71147  21091969.473    21091977.0284
  24977930.431    -6473446.970 7  -4810446.81845  24977930.029    24977943.7224
  24794592.205    15051108.766 8  11502174.43545  24794591.411    24794603.2324
  23303056.503   -12533195.702 8  -9741814.84246  23303056.450    23303064.8674
  22640819.262     2710484.455 8   2115182.67447  22640818.847    22640828.5094
 01  4 19 18  5  0.0010000  0  8 24 10 04 05 06 07 30 09
  20684613.400   -15446090.146 9 -12025712.60448  20684613.060    20684621.1124
  24308144.285    -6089234.295 8  -4704405.45045  24308143.333    24308159.3624
  22017852.315     3204372.999 9   2499261.94247  22017852.208    22017859.7164
  21082126.925   -20735952.480 9 -16146153.34547  21082126.188    21082133.7794
  24964381.507    -6544646.009 7  -4865926.49745  24964381.119    24964394.8604
  24807802.826    15120529.441 7  11556268.34345  24807801.827    24807813.5344
  23285233.759   -12626854.032 8  -9814795.30446  23285233.758    23285242.1644
  22655420.879     2787216.334 8   2174973.64747  22655420.519    22655430.2224
 01  4 19 18  5 30.0010000  0  8 24 10 04 05 06 07 30 09
  20686075.162   -15438408.454 9 -12019726.87048  20686074.838    20686082.9054
  24288930.921    -6190199.075 8  -4783078.95545  24288930.094    24288946.1794
  22033157.223     3284800.642 9   2561932.79747  22033157.123    22033164.6794
  21072352.148   -20787319.324 9 -16186179.45547  21072351.405    21072358.9604
  24950841.703    -6615798.295 7  -4921369.73745  24950841.382    24950855.0114
  24821016.632    15189969.044 8  11610376.96045  24821015.808    24821027.5524
  23267437.239   -12720375.201 8  -9887668.87646  23267437.278    23267445.6034
  22670081.622     2864258.913 8   2235006.71747  22670081.279    22670090.9934
 01  4 19 18  6  0.0010000  0  8 24 10 04 05 06 07 30 09
  20687634.845   -15430212.490 9 -12013340.40948  20687634.489    20687642.5584
  24269719.575    -6291154.795 8  -4861745.40845  24269718.673    24269734.6564
  22048521.012     3365538.178 8   2624845.11247  22048520.966    22048528.6144
  21062646.177   -20838324.305 9 -16225923.59647  21062645.474    21062653.0384
  24937310.579    -6686903.978 7  -4976776.66745  24937310.449    24937324.0804
  24834234.494    15259427.379 7  11664500.19145  24834233.519    24834245.4844
  23249667.256   -12813757.207 8  -9960434.01446  23249667.310    23249675.6174
  22684800.935     2941609.153 8   2295279.52447  22684800.629    22684810.3664
 01  4 19 18  6 30.0010000  0  7 24 10 04 05 06 30 09
  20689291.932   -15421504.523 9 -12006554.98548  20689291.591    20689299.6474
  24250510.240    -6392100.008 8  -4940403.68345  24250509.212    24250525.0814
  22063943.220     3446581.564 9   2687995.75947  22063943.080    22063950.7234
  21053009.250   -20888966.895 9 -16265385.35047  21053008.555    21053016.0904
  24923788.137    -6757964.840 7  -5032148.65845  24923787.851    24923801.6454
  23231923.883   -12906999.268 8 -10033090.10646  23231923.904    23231932.2394
  22699578.054     3019262.944 8   2355788.86546  22699577.719    22699587.5174
 01  4 19 18  7  0.0010000  0  7 24 10 04 05 06 30 09
  20691046.222   -15412285.752 9 -11999371.52948  20691045.867    20691053.9014
  24231303.566    -6493030.734 8  -5019050.67345  24231302.460    24231318.2394
  22079423.160     3527929.046 9   2751383.36247  22079423.043    22079430.7394
  21043441.819   -20939244.166 9 -16304562.43847  21043441.089    21043448.6504
  24910274.387    -6828980.234 7  -5087485.24045  24910273.977    24910287.7314
  23214207.654   -13000098.315 8 -10105634.76746  23214207.679    23214215.9854
  22714412.555     3097218.100 8   2416533.03447  22714412.209    22714422.0084
 01  4 19 18  7 30.0010000  0  7 24 10 04 05 06 30 09
  20692897.938   -15402555.092 9 -11991789.20548  20692897.585    20692905.5944
  24212100.553    -6593941.605 8  -5097682.23345  24212099.542    24212115.2904
  22094960.718     3609579.652 8   2815007.16647  22094960.627    22094968.3774
  21033944.630   -20989152.234 9 -16343451.84547  21033943.924    21033951.4474
  24896769.343    -6899948.461 7  -5142785.07645  24896768.966    24896782.4764
  23196519.383   -13093050.651 8 -10178065.10546  23196519.434    23196527.6584
  22729304.208     3175473.532 8   2477511.17547  22729303.830    22729313.6884
 01  4 19 18  8  0.0010000  0  7 24 10 04 05 06 30 09
  20694846.819   -15392313.948 9 -11983809.10348  20694846.456    20694854.4254
  24192901.852    -6694830.257 8  -5176296.46945  24192900.854    24192916.4594
  22110555.484     3691530.424 9   2878864.84847  22110555.411    22110563.1934
  21024518.069   -21038689.363 9 -16382052.20347  21024517.359    21024524.8484
  24883273.356    -6970870.099 8  -5198048.59945  24883272.848    24883286.4244
  23178859.365   -13185854.039 8 -10250379.38046  23178859.400    23178867.7234
  22744252.280     3254026.041 8   2538720.80746  22744251.932    22744261.9044
 01  4 19 18  8 30.0010000  0  7 24 10 04 05 06 30 09
  20696892.494   -15381563.987 9 -11975432.51948  20696892.130    20696900.0674
  24173707.772    -6795694.518 8  -5254891.71145  24173706.691    24173722.3224
  22126206.831     3773778.069 9   2942953.87347  22126206.716    22126214.4234
  21015162.310   -21087854.189 9 -16420362.45547  21015161.576    21015169.0964
  24869786.037    -7041746.034 8  -5253276.52045  24869785.566    24869799.2304
  23161227.942   -13278507.116 8 -10322576.51246  23161227.996    23161236.4254
  22759256.270     3332872.169 8   2600159.23646  22759255.935    22759265.8834
 01  4 19 18  9  0.0010000  0  7 24 10 04 05 06 30 09
  20699034.827   -15370306.379 9 -11966660.36548  20699034.437    20699042.3344
  24154519.028    -6896530.912 8  -5333465.25745  24154517.986    24154533.4754
  22141914.074     3856320.116 8   3007272.29247  22141913.962    22141921.7044
  21005877.798   -21136644.595 9 -16458380.95847  21005877.074    21005884.5514
  24856307.620    -7112576.175 8  -5308468.75345  24856307.047    24856320.6704
  23143625.616   -13371007.607 8 -10394654.76446  23143625.672    23143634.1374
  22774315.617     3412009.238 8   2661824.36246  22774315.289    22774325.2624
 01  4 19 18  9 30.0010000  0  7 24 10 04 05 06 30 09
  20701273.371   -15358542.996 9 -11957494.10448  20701272.947    20701280.8644
  24135336.354    -6997336.232 8  -5412014.59345  24135335.246    24135350.6444
  22157676.788     3939153.467 8   3071817.70947  22157676.679    22157684.3994
  20996664.861   -21185059.045 9 -16496106.49647  20996664.122    20996671.6434
  24842837.748    -7183360.968 8  -5363625.64545  24842837.162    24842850.4894
  23126052.664   -13463353.471 8 -10466612.53146  23126052.698    23126061.2454
  22789429.807     3491433.898 8   2723713.59046  22789429.426    22789439.3434
 01  4 19 18 10  0.0010000  0  7 24 10 04 05 06 30 09
  20703607.809   -15346275.185 9 -11947934.78148  20703607.431    20703615.3324
  24116160.002    -7098107.916 8  -5490537.72545  24116158.802    24116174.2764
  22173494.398     4022275.409 8   3136587.99647  22173494.339    22173502.0524
  20987523.838   -21233095.775 9 -16533537.72247  20987523.070    20987530.5294
  24829376.357    -7254100.859 8  -5418747.58245  24829375.741    24829389.1194
  23108509.521   -13555542.811 8 -10538448.34346  23108509.582    23108518.1444
  22804598.150     3571143.141 8   2785824.56946  22804597.775    22804607.6174
 01  4 19 18 10 30.0010000  0  7 24 10 04 05 06 30 09
  20706038.114   -15333503.680 9 -11937982.96748  20706037.758    20706045.6614
  24096990.396    -7198842.520 8  -5569031.97645  24096989.213    24097004.8284
  22189366.535     4105683.444 8   3201581.21447  22189366.441    22189374.1054
  20978455.144   -21280752.347 9 -16570672.71447  20978454.368    20978461.8414
  24815923.472    -7324795.768 8  -5473834.44645  24815922.884    24815936.1674
  23090996.704   -13647572.987 8 -10610160.12346  23090996.766    23091005.2664
  22819820.076     3651134.368 8   2848155.26846  22819819.687    22819829.5504
 01  4 19 18 11  0.0010000  0  7 24 10 04 05 06 30 09
  20708564.058   -15320229.993 9 -11927639.84548  20708563.680    20708571.5774
  24077828.558    -7299536.777 8  -5647494.79845  24077827.497    24077843.0864
  22205292.605     4189374.856 8   3266795.23847  22205292.426    22205300.1204
  20969459.098   -21328026.659 9 -16607509.85247  20969458.356    20969465.8514
  24802479.223    -7395445.899 8  -5528886.39945  24802478.621    24802491.6194
  23073514.646   -13739442.046 8 -10681746.36046  23073514.638    23073523.0984
  22835095.125     3731404.613 8   2910703.39546  22835094.733    22835104.5844
 01  4 19 18 11 30.0010000  0  7 24 10 04 05 06 30 09
  20711185.228   -15306455.497 9 -11916906.47548  20711184.845    20711192.7744
  24058674.885    -7400188.182 8  -5725924.22245  24058673.967    24058689.4414
  22221271.821     4273346.461 8   3332227.59547  22221271.634    22221279.4414
  20960536.061   -21374917.455 9 -16644048.14047  20960535.353    20960542.8704
  24789043.403    -7466051.497 8  -5583903.66145  24789042.883    24789055.7644
  23056063.609   -13831147.961 8 -10753205.46746  23056063.560    23056072.0614
  22850422.563     3811950.760 8   2973466.50146  22850422.192    22850432.1504
 01  4 19 18 12  0.0010000  0  7 24 10 04 05 06 30 09
  20713901.601   -15292180.899 9 -11905783.42048  20713901.265    20713909.1844
  24039530.275    -7500792.766 8  -5804317.15645  24039529.390    24039544.9654
  22237304.004     4357596.717 8   3397877.08647  22237303.895    22237311.8114
  20951686.595   -21421421.826 9 -16680285.31947  20951685.830    20951693.3564
  24775615.950    -7536612.071 8  -5638885.84445  24775615.568    24775628.5504
  23038644.189   -13922687.684 8 -10824535.09046  23038644.079    23038652.6614
  22865802.154     3892770.542 8   3036442.82246  22865801.814    22865811.7934
 01  4 19 18 12 30.0010000  0  7 24 10 04 05 06 30 09
  20716712.829   -15277407.948 9 -11894272.03448  20716712.478    20716720.3934
  24020395.171    -7601347.753 8  -5882671.43945  24020394.218    24020409.7584
  22253388.634     4442122.252 8   3463741.07647  22253388.599    22253396.5414
  20942910.878   -21467538.194 9 -16716220.16247  20942910.165    20942917.7464
  24762197.078    -7607128.285 7  -5693833.44645  24762196.689    24762209.9194
  23021256.774   -14014059.311 8 -10895733.71646  23021256.675    23021265.3134
  22881233.194     3973860.760 8   3099629.87346  22881232.832    22881242.8894
 01  4 19 18 13  0.0010000  0  7 24 10 04 05 06 30 09
  20719618.541   -15262138.259 9 -11882373.58048  20719618.217    20719626.1464
  24001269.871    -7701850.247 8  -5960984.83345  24001268.898    24001284.5954
  22269525.219     4526920.730 8   3529817.75146  22269525.218    22269533.1924
  20934209.398   -21513264.619 9 -16751851.15047  20934208.699    20934216.3464
  24748786.534    -7677600.298 7  -5748746.61145  24748786.102    24748799.5434
  23003901.668   -14105260.560 8 -10966799.57846  23003901.630    23003910.3044
  22896715.192     4055218.436 8   3163025.34146  22896714.814    22896724.8994
 01  4 19 18 13 30.0010000  0  7 24 10 04 05 06 30 09
  20722618.583   -15246372.906 9 -11870088.89048  20722618.260    20722626.1864
  23982155.120    -7802296.740 8  -6039254.56745  23982154.211    23982169.8864
  22285713.323     4611989.243 8   3596104.84546  22285713.302    22285721.2404
  20925582.575   -21558598.932 9 -16787176.59847  20925581.881    20925589.5344
  24735384.475    -7748028.161 7  -5803625.34145  24735384.120    24735397.3294
  22986579.422   -14196289.293 8 -11037731.03046  22986579.412    22986588.0474
  22912247.430     4136840.683 8   3226626.97146  22912247.042    22912257.2404
 01  4 19 18 14  0.0010000  0  7 24 10 04 05 06 30 09
  20725712.640   -15230113.411 9 -11857419.16048  20725712.328    20725720.2764
  23963051.862    -7902683.897 8  -6117478.07245  23963050.985    23963066.4584
  22301952.284     4697325.252 8   3662600.37146  22301952.259    22301960.1974
  20917030.758   -21603539.172 9 -16822194.97347  20917030.041    20917037.6424
  24721990.585    -7818411.935 7  -5858469.73645  24721990.184    24722003.5264
  22969290.469   -14287143.160 8 -11108526.21046  22969290.451    22969299.0314
  22927829.469     4218724.377 8   3290432.31746  22927829.133    22927839.3134
 01  4 19 18 14 30.0010000  0  7 24 10 04 05 06 30 09
  20728900.477   -15213361.262 9 -11844365.53648  20728900.161    20728908.1014
  23943960.447    -8003009.228 8  -6195653.42345  23943959.572    23943974.8824
  22318241.596     4782925.791 8   3729302.03246  22318241.603    22318249.4924
  20908554.222   -21648083.784 9 -16856905.06947  20908553.509    20908561.0924
  24708604.808    -7888752.002 7  -5913280.06945  24708604.639    24708618.1064
  22952035.212   -14377820.283 8 -11179183.66846  22952035.176    22952043.6994
  22943460.859     4300866.442 8   3354439.00146  22943460.453    22943470.4974
 01  4 19 18 15  0.0010000  0  7 24 10 04 05 06 30 09
  20732181.746   -15196118.224 9 -11830929.40548  20732181.409    20732189.3604
  23924881.450    -8103269.344 8  -6273777.92345  23924880.560    23924895.7124
  22334580.733     4868788.379 8   3796207.87946  22334580.732    22334588.6774
  20900153.328   -21692230.898 9 -16891305.42747  20900152.625    20900160.2164
  24695227.833    -7959048.628 7  -5968056.53645  24695227.700    24695241.1694
  22934813.922   -14468318.229 8 -11249701.51046  22934813.909    22934822.4304
  22959140.761     4383264.063 8   3418644.81246  22959140.278    22959150.3624
 01  4 19 18 15 30.0010000  0  7 24 10 04 05 06 30 09
  20735556.137   -15178385.548 9 -11817111.73648  20735555.794    20735563.7724
  23905815.635    -8203460.935 8  -6351849.04745  23905814.619    23905829.6814
  22350969.238     4954909.882 8   3863315.48446  22350969.196    22350977.1024
  20891828.367   -21735978.710 9 -16925394.63747  20891827.659    20891835.3174
  24681859.017    -8029302.188 7  -6022799.45745  24681858.834    24681872.4554
  22917627.140   -14558634.968 8 -11320078.13946  22917627.167    22917635.6774
  22974868.481     4465914.038 8   3483047.25346  22974868.119    22974878.3054
 01  4 19 18 16  0.0010000  0  7 24 10 04 05 06 30 09
  20739023.440   -15160164.765 9 -11802913.73248  20739023.113    20739031.0834
  23886763.249    -8303581.488 8  -6429864.81545  23886762.139    23886777.2354
  22367406.594     5041287.988 8   3930623.03446  22367406.447    22367414.3084
  20883579.816   -21779325.350 9 -16959171.25147  20883579.089    20883586.7304
  24668498.386    -8099512.748 8  -6077508.85445  24668498.184    24668511.6944
  22900475.392   -14648768.227 8 -11390311.80846  22900475.391    22900483.8044
  22990644.064     4548813.646 8   3547644.22046  22990643.588    22990653.6804
 01  4 19 18 16 30.0010000  0  7 24 10 04 05 06 30 09
  20742583.429   -15141457.073 9 -11788336.30948  20742583.049    20742591.0154
  23867724.943    -8403627.396 8  -6507822.42245  23867723.829    23867738.8494
  22383892.201     5127919.896 8   3998128.36046  22383892.064    22383899.8664
  20875408.031   -21822268.489 9 -16992633.44547  20875407.296    20875414.9454
  24655145.859    -8169680.338 8  -6132184.77745  24655145.698    24655159.0544
  22883358.971   -14738715.432 8 -11460400.47846  22883358.890    22883367.3464
  23006466.353     4631960.050 8   3612433.50146  23006465.885    23006476.0344
 01  4 19 18 17  0.0010000  0  7 24 10 04 05 06 30 09
  20746235.812   -15122263.412 9 -11773380.21748  20746235.470    20746243.4664
  23848701.582    -8503594.987 8  -6585719.01345  23848700.518    23848715.3004
  22400425.663     5214803.567 8   4065829.86446  22400425.538    22400433.3224
  20867313.474   -21864805.677 9 -17025779.31547  20867312.750    20867320.4234
  24641801.716    -8239804.441 8  -6186826.79045  24641801.456    24641814.8784
  22866278.341   -14828473.775 8 -11530341.99946  22866278.345    22866286.7934
  23022335.043     4715350.823 8   3677413.18946  23022334.659    23022344.8054
 01  4 19 18 17 30.0010000  0  7 24 10 04 05 06 30 09
  20749980.499   -15102585.116 9 -11758046.48848  20749980.158    20749988.1504
  23829693.841    -8603480.703 8  -6663551.78645  23829692.818    23829707.4144
  22417006.513     5301936.655 8   4133725.70646  22417006.469    22417014.2004
  20859296.463   -21906935.216 9 -17058607.53247  20859295.750    20859303.4424
  24628465.720    -8309885.402 7  -6241435.20745  24628465.468    24628478.7364
  22849234.263   -14918040.921 8 -11600134.54846  22849234.324    22849242.6344
  23038249.769     4798982.846 8   3742580.87446  23038249.392    23038259.6324
 01  4 19 18 18  0.0010000  0  7 24 10 04 05 06 30 09
  20753817.103   -15082424.045 9 -11742336.57148  20753816.712    20753824.7134
  23810702.013    -8703281.902 8  -6741318.69845  23810700.966    23810715.5914
  22433634.463     5389316.200 8   4201813.60546  22433634.378    22433642.0444
  20851357.414   -21948655.389 9 -17091116.76947  20851356.696    20851364.3264
  24615137.794    -8379923.599 8  -6296010.27245  24615137.505    24615150.7664
  22832227.025   -15007414.828 8 -11669776.52246  22832227.038    22832235.3304
  23054209.860     4882853.147 8   3807934.23546  23054209.463    23054219.7654
 01  4 19 18 18 30.0010000  0  7 24 10 04 05 06 30 09
  20757745.024   -15061782.591 9 -11726252.33348  20757744.652    20757752.6674
  23791726.801    -8802995.452 8  -6819017.33845  23791725.841    23791740.4634
  22450308.673     5476939.293 8   4270091.28146  22450308.555    22450316.2114
  20843496.626   -21989964.319 9 -17123305.55447  20843495.908    20843503.4904
  24601818.123    -8449919.385 8  -6350552.30245  24601817.706    24601830.8154
  22815256.931   -15096593.341 8 -11739266.22046  22815256.856    22815265.2524
  23070214.685     4966958.684 8   3873470.89746  23070214.283    23070224.6334
 01  4 19 18 19  0.0010000  0  7 24 10 04 05 06 30 09
  20761764.202   -15040661.655 9 -11709794.47148  20761763.820    20761771.8504
  23772769.058    -8902618.038 8  -6896645.08845  23772768.085    23772782.6184
  22467028.666     5564803.457 8   4338556.80246  22467028.580    22467036.3034
  20835714.377   -22030860.211 9 -17155172.48347  20835713.665    20835721.2784
  24588506.342    -8519872.923 8  -6405061.40645  24588505.942    24588518.9404
  22798324.404   -15185574.099 8 -11808601.83246  22798324.269    22798332.7404
  23086263.644     5051296.365 8   3939188.43646  23086263.282    23086273.6914
 01  4 19 18 19 30.0010000  0  7 24 10 04 05 06 30 09
  20765874.434   -15019062.257 9 -11692963.78448  20765874.084    20765882.0844
  23753829.413    -9002146.148 8  -6974199.20745  23753828.377    23753842.8724
  22483794.016     5652906.243 8   4407208.26446  22483793.973    22483801.7844
  20828011.200   -22071340.714 9 -17186715.73847  20828010.488    20828018.0714
  24575202.545    -8589783.806 8  -6459537.27945  24575202.231    24575215.2544
  22781429.970   -15274354.299 8 -11877781.16346  22781429.934    22781438.3884
  23102356.274     5135863.542 8   4005084.80946  23102355.961    23102366.4124
 01  4 19 18 20  0.0010000  0  7 24 10 04 05 06 30 09
  20770075.312   -14996986.602 9 -11675761.98948  20770074.946    20770082.9354
  23734908.177    -9101577.037 8  -7051677.59045  23734907.197    23734921.5524
  22500604.254     5741244.867 8   4476043.49046  22500604.256    22500612.1454
  20820387.367   -22111404.350 9 -17217934.15747  20820386.656    20820394.2704
  24561907.091    -8659652.687 8  -6513980.39745  24561906.666    24561919.4884
  22764574.102   -15362932.053 8 -11946802.73846  22764574.173    22764582.5874
  23118492.086     5220657.118 8   4071157.59846  23118491.721    23118502.1904
 01  4 19 18 20 30.0010000  0  7 24 10 04 05 06 30 09
  20774366.450   -14974436.493 9 -11658190.49048  20774366.115    20774374.1104
  23716005.964    -9200907.330 8  -7129077.58345  23716004.982    23716019.3884
  22517458.945     5829816.605 8   4545060.36346  22517458.908    22517466.8944
  20812843.183   -22151049.183 9 -17248826.23147  20812842.459    20812850.1164
  24548619.435    -8729479.823 8  -6568390.99145  24548618.945    24548631.7384
  22747757.275   -15451305.136 8 -12015664.83846  22747757.345    22747765.7324
  23134670.348     5305673.941 8   4137404.36046  23134670.011    23134680.5254
 01  4 19 18 21  0.0010000  0  7 24 10 04 05 06 30 09
  20778747.735   -14951412.763 9 -11640249.94148  20778747.402    20778755.4084
  23697123.482    -9300133.305 8  -7206396.29245  23697122.574    23697137.0224
  22534357.670     5918619.174 8   4614257.11146  22534357.558    22534365.5464
  20805379.082   -22190273.102 9 -17279390.32847  20805378.386    20805386.0174
  24535339.417    -8799264.908 8  -6622768.83245  24535339.069    24535352.0264
  22730980.031   -15539470.451 8 -12084365.03446  22730980.040    22730988.3794
  23150890.574     5390911.486 8   4203823.09746  23150890.292    23150900.8384
 01  4 19 18 21 30.0010000  0  7 24 10 04 05 06 30 09
  20783218.796   -14927917.357 9 -11621941.84548  20783218.457    20783226.4104
  23678261.713    -9399252.399 8  -7283631.70645  23678260.642    23678275.0324
  22551299.637     6007649.500 8   4683631.33346  22551299.500    22551307.5154
  20797995.414   -22229074.897 9 -17309625.49747  20797994.698    20798002.2754
  24522067.481    -8869008.665 8  -6677114.48845  24522067.186    24522080.0184
  22714242.604   -15627426.629 8 -12152902.26946  22714242.547    22714250.8144
  23167152.099     5476366.175 8   4270411.03946  23167151.884    23167162.4774
 01  4 19 18 22  0.0010000  0  7 24 10 04 05 06 30 09
  20787779.193   -14903952.190 9 -11603267.70448  20787778.870    20787786.8384
  23659420.875    -9498260.860 8  -7360780.91645  23659419.875    23659434.0124
  22568284.364     6096905.575 8   4753181.45646  22568284.342    22568292.4774
  20790692.457   -22267452.277 9 -17339529.95147  20790691.714    20790699.3444
  24508803.460    -8938710.691 8  -6731427.60045  24508803.189    24508816.0334
  22697545.501   -15715170.545 8 -12221274.10346  22697545.476    22697553.6704
  23183454.608     5562035.728 8   4337166.41446  23183454.329    23183464.9624
 01  4 19 18 22 30.0010000  0  7 24 10 04 05 06 30 09
  20792428.780   -14879518.473 9 -11584228.45748  20792428.461    20792436.3994
  23640601.784    -9597155.675 8  -7437841.57645  23640600.613    23640614.6654
  22585311.638     6186384.510 8   4822905.23746  22585311.654    22585319.8384
  20783470.590   -22305403.494 9 -17369102.32847  20783469.853    20783477.5104
  24495547.444    -9008371.155 8  -6785708.34245  24495547.235    24495559.9914
  22680889.220   -15802699.972 8 -12289478.80546  22680889.177    22680897.3424
  23199797.299     5647917.097 8   4404086.83246  23199797.034    23199807.7694
 01  4 19 18 23  0.0010000  0  7 24 10 04 05 06 30 09
  20797167.163   -14854618.367 9 -11564825.79448  20797166.821    20797174.7774
  23621804.821    -9695933.846 8  -7514811.34945  23621803.596    23621817.4654
  22602380.818     6276083.321 8   4892800.35146  22602380.807    22602389.0464
  20776330.063   -22342927.292 9 -17398341.65747  20776329.327    20776336.9954
  24482299.347    -9077990.409 8  -6839956.99145  24482299.027    24482311.7854
  22664274.063   -15890013.018 8 -12357514.90946  22664274.050    22664282.1614
  23216179.822     5734006.792 8   4471169.58146  23216179.523    23216190.2524
 01  4 19 18 23 30.0010000  0  7 24 10 04 05 06 30 09
  20801993.895   -14829253.802 9 -11545061.20648  20801993.559    20802001.5334
  23603030.627    -9794592.412 8  -7591687.91245  23603029.253    23603043.1044
  22619491.354     6365999.486 8   4962864.82446  22619491.332    22619499.6534
  20769271.203   -22380021.808 9 -17427246.48047  20769270.493    20769278.1104
  24469058.881    -9147568.913 8  -6894173.87445  24469058.604    24469071.3274
  22647700.565   -15977107.381 8 -12425380.60346  22647700.513    22647708.5424
  23232601.500     5820301.844 8   4538412.34246  23232601.095    23232611.7794
 01  4 19 18 24  0.0010000  0  7 24 10 04 05 06 30 09
  20806908.875   -14803425.589 9 -11524935.33348  20806908.497    20806916.5154
  23584279.706    -9893127.424 8  -7668468.20945  23584278.554    23584292.3544
  22636642.772     6456130.907 8   5033097.03646  22636642.808    22636651.1474
  20762294.540   -22416684.584 9 -17455814.88347  20762293.803    20762301.4534
  24455826.391    -9217106.171 8  -6948358.61845  24455826.004    24455838.6544
  22631169.178   -16063980.321 8 -12493073.76746  22631169.088    22631177.1404
  23249061.617     5906799.786 8   4605813.19546  23249061.180    23249071.9034
 01  4 19 18 24 30.0010000  0  7 24 10 04 05 06 30 09
  20811911.698   -14777135.745 9 -11504449.75048  20811911.314    20811919.3474
  23565553.209    -9991535.750 8  -7745149.80545  23565552.048    23565565.6024
  22653834.751     6546474.888 8   5103494.87046  22653834.786    22653843.1044
  20755400.233   -22452914.178 9 -17484045.74047  20755399.516    20755407.2074
  24442601.771    -9286602.540 8  -7002511.53145  24442601.239    24442613.7384
  22614680.347   -16150629.341 8 -12560592.44846  22614680.283    22614688.3144
  23265559.678     5993497.346 8   4673369.59446  23265559.298    23265570.0374
 01  4 19 18 25  0.0010000  0  7 24 10 04 05 06 30 09
  20817001.886   -14750386.385 9 -11483606.09948  20817001.530    20817009.6194
  23546851.396   -10089814.489 8  -7821730.40645  23546850.116    23546863.5504
  22671066.623     6637028.396 8   5174055.98046  22671066.587    22671074.9534
  20748588.707   -22488709.041 9 -17511937.84147  20748588.011    20748595.7064
  24429384.425    -9356058.591 8  -7056633.00245  24429384.010    24429396.5114
  22598234.491   -16237052.374 8 -12627935.03446  22598234.488    22598242.5274
  23282095.258     6080391.305 8   4741079.03246  23282094.831    23282105.5464
 01  4 19 18 25 30.0010000  0  7 24 10 04 05 06 30 09
  20822179.327   -14723178.777 9 -11462405.37548  20822178.975    20822187.0204
  23528174.658   -10187959.977 8  -7898207.18445  23528173.425    23528186.8954
  22688337.897     6727789.513 8   5244778.85146  22688337.880    22688346.2184
  20741860.352   -22524066.782 9 -17539489.33248  20741859.649    20741867.3624
  24416175.023    -9425473.762 7  -7110722.63545  24416174.654    24416187.1624
  22581832.279   -16323246.495 8 -12695099.25746  22581832.303    22581840.3194
  23298667.732     6167479.240 8   4808939.61546  23298667.308    23298678.0174
 01  4 19 18 26  0.0010000  0  7 24 10 04 05 06 30 09
  20827443.660   -14695514.436 9 -11440848.75048  20827443.301    20827451.3834
  23509523.936   -10285968.985 8  -7974577.61346  23509522.787    23509536.2254
  22705648.294     6818755.703 8   5315661.53246  22705648.296    22705656.5944
  20735215.496   -22558985.949 9 -17566699.07348  20735214.799    20735222.4834
  24402973.267    -9494848.276 7  -7164780.56045  24402973.004    24402985.5494
  22565474.050   -16409209.428 8 -12762083.31846  22565474.038    22565482.0714
  23315276.363     6254758.227 8   4876949.06446  23315275.990    23315286.7334
 01  4 19 18 26 30.0010000  0  7 24 10 04 05 06 30 09
  20832794.527   -14667395.172 9 -11418937.64348  20832794.207    20832802.2784
  23490899.859   -10383838.543 8  -8050839.37746  23490898.759    23490912.0214
  22722997.204     6909924.273 8   5386701.91146  22722997.187    22723005.4704
  20728654.436   -22593464.806 9 -17593565.71348  20728653.702    20728661.3764
  24389779.281    -9564182.406 7  -7218807.04145  24389778.988    24389791.5704
  22549160.235   -16494939.029 8 -12828885.56446  22549160.181    22549168.2274
  23331920.802     6342225.088 8   4945104.91046  23331920.468    23331931.2914
 01  4 19 18 27  0.0010000  0  7 24 10 04 05 06 30 09
  20838231.716   -14638822.850 9 -11396673.49348  20838231.393    20838239.4394
  23472302.903   -10481565.284 8  -8126989.85646  23472301.863    23472315.0054
  22740384.044     7001292.447 8   5457897.82146  22740384.050    22740392.2844
  20722177.407   -22627501.623 9 -17620087.90747  20722176.676    20722184.3904
  24376592.926    -9633476.171 7  -7272802.06545  24376592.607    24376605.2954
  22532891.262   -16580432.855 8 -12895504.08746  22532891.224    22532899.2964
  23348600.565     6429877.118 8   5013405.04746  23348600.230    23348610.9454
 01  4 19 18 27 30.0010000  0  7 24 10 04 05 06 30 09
  20843754.676   -14609799.475 9 -11374057.88648  20843754.339    20843762.4054
  23453734.020   -10579145.798 8  -8203026.40346  23453732.888    23453745.9614
  22757808.437     7092858.059 8   5529247.56446  22757808.407    22757816.7154
  20715784.963   -22661094.439 9 -17646264.12947  20715784.231    20715791.8734
  24363414.295    -9702729.640 7  -7326765.67445  24363413.989    24363426.4804
  22516667.619   -16665688.373 8 -12961936.92246  22516667.596    22516675.6974
  23365314.954     6517711.059 8   5081846.91646  23365314.579    23365325.3174
 01  4 19 18 28  0.0010000  0  7 24 10 04 05 06 30 09
  20849363.100   -14580326.967 9 -11351092.30248  20849362.777    20849370.8404
  23435193.394   -10676576.607 8  -8278946.29146  23435192.294    23435205.3284
  22775269.894     7184618.230 8   5600748.92246  22775269.869    22775278.2224
  20709477.196   -22694241.881 9 -17672093.30447  20709476.448    20709484.1144
  24350243.393    -9771943.184 7  -7380698.19545  24350243.127    24350255.4054
  22500489.716   -16750703.209 8 -13028182.22046  22500489.725    22500497.8784
  23382063.348     6605723.802 8   5150428.11146  23382062.974    23382073.7664
 01  4 19 18 28 30.0010000  0  7 24 10 04 05 06 30 09
  20855056.730   -14550406.779 9 -11327777.87748  20855056.405    20855064.4544
  23416681.833   -10773854.897 8  -8354747.32746  23416680.700    23416693.7274
  22792767.907     7276570.395 8   5672399.88546  22792767.835    22792776.1844
  20703254.461   -22726942.323 9 -17697574.16548  20703253.746    20703261.4254
  24337080.020    -9841116.852 7  -7434599.64745  24337079.791    24337091.9664
  22484357.985   -16835475.113 8 -13094238.20946  22484358.073    22484366.2544
  23398845.160     6693912.464 8   5219146.38046  23398844.807    23398855.6884
 01  4 19 18 29  0.0010000  0  7 24 10 04 05 06 30 09
  20860835.261   -14520040.542 9 -11304115.88248  20860834.944    20860843.0144
  23398199.964   -10870976.907 8  -8430426.59346  23398198.795    23398211.8574
  22810301.853     7368712.172 8   5744198.60546  22810301.867    22810310.2354
  20697117.257   -22759193.616 9 -17722705.03748  20697116.534    20697124.2194
  24323924.163    -9910250.388 8  -7488469.81445  24323923.987    24323936.2104
  22468273.213   -16920001.584 8 -13160102.96146  22468273.278    22468281.4094
  23415659.931     6782274.414 8   5287999.68946  23415659.596    23415670.5314
 01  4 19 18 29 30.0010000  0  7 24 10 04 05 06 30 09
  20866698.341   -14489229.941 9 -11280107.63448  20866697.996    20866706.0804
  23379748.349   -10967939.542 8  -8505981.68546  23379747.248    23379760.2084
  22827871.550     7461041.335 8   5816143.33646  22827871.514    22827879.9504
  20691065.781   -22790994.222 9 -17747484.72848  20691065.074    20691072.7864
  24310776.155    -9979344.141 8  -7542308.98545  24310776.000    24310787.9394
  22452235.648   -17004280.034 8 -13225774.44246  22452235.621    22452243.7104
  23432507.050     6870806.331 8   5356985.43546  23432506.713    23432517.8104
 01  4 19 18 30  0.0010000  0  7 24 10 04 05 06 30 09
  20872645.582   -14457976.963 9 -11255754.67548  20872645.248    20872653.2964
  23361327.676   -11064739.429 8  -8581409.94846  23361326.601    23361339.5314
  22845476.444     7553555.208 8   5888231.99146  22845476.406    22845484.8834
  20685100.477   -22822342.263 9 -17771911.77548  20685099.763    20685107.4824
  24297635.351   -10048398.020 8  -7596117.08245  24297635.247    24297647.3414
  22436245.657   -17088308.060 8 -13291250.79446  22436245.581    22436253.6584
  23449385.944     6959505.594 8   5426101.56946  23449385.678    23449396.9484
 01  4 19 18 30 30.0010000  0  7 24 10 04 05 06 30 09
  20878676.632   -14426283.542 9 -11231058.51348  20878676.313    20878684.3734
  23342938.677   -11161373.125 8  -8656708.69746  23342937.641    23342950.5304
  22863115.971     7646251.275 8   5960462.62646  22863115.904    22863124.5044
  20679221.596   -22853236.168 9 -17795984.94848  20679220.893    20679228.6244
  24284502.447   -10117412.185 8  -7649894.25445  24284502.269    24284514.3784
  22420303.673   -17172082.960 8 -13356529.90246  22420303.707    22420311.7654
  23466296.388     7048369.277 8   5495345.83646  23466296.071    23466307.3694
 01  4 19 18 31  0.0010000  0  7 24 10 04 05 06 30 09
  20884791.136   -14394151.655 9 -11206020.69648  20884790.810    20884798.9224
  23324581.870   -11257837.875 8  -8731875.81846  23324580.819    23324593.6334
  22880789.582     7739126.834 8   6032833.11646  22880789.579    22880798.2024
  20673429.346   -22883674.721 9 -17819703.30148  20673428.613    20673436.3774
  24271377.002   -10186386.900 8  -7703640.65645  24271376.586    24271388.6084
  22404410.456   -17255602.537 8 -13421610.06847  22404410.519    22404418.4894
  23483237.528     7137394.048 8   5564715.60546  23483237.113    23483248.3984
 01  4 19 18 31 30.0010000  0  7 24 10 04 05 06 30 09
  20890988.754   -14361583.115 9 -11180642.63148  20890988.430    20890996.5204
  23306257.804   -11354129.989 8  -8806908.41446  23306256.935    23306269.6864
  22898497.041     7832179.762 8   6105341.82146  22898497.090    22898505.6184
  20667724.069   -22913656.043 9 -17843065.37348  20667723.363    20667731.1624
  24258258.921   -10255322.125 8  -7757356.29845  24258258.607    24258270.5244
  22388566.285   -17338864.312 8 -13486489.33947  22388566.298    22388574.2934
  23500208.692     7226577.237 8   5634208.82946  23500208.314    23500219.4884
 01  4 19 18 32  0.0010000  0  7 24 10 04 05 06 30 09
  20897269.041   -14328580.068 9 -11154925.99048  20897268.702    20897276.7884
  23287967.184   -11450246.696 8  -8881804.33946  23287966.307    23287979.1154
  22916237.764     7925406.993 8   6177986.34446  22916237.798    22916246.1604
  20662106.023   -22943178.981 9 -17866070.26248  20662105.312    20662113.0874
  24245148.309   -10324218.512 8  -7811041.68145  24245147.953    24245159.7914
  22372771.630   -17421866.385 8 -13551166.24747  22372771.543    22372779.5914
  23517209.329     7315915.272 8   5703822.70346  23517208.935    23517220.0704
 01  4 19 18 32 30.0010000  0  7 24 10 04 05 06 30 09
  20903631.688   -14295144.159 9 -11128872.04848  20903631.347    20903639.4694
  23269710.636   -11546184.705 8  -8956561.00646  23269709.726    23269722.5644
  22934011.238     8018806.179 8   6250764.87346  22934011.254    22934019.4844
  20656575.543   -22972241.725 9 -17888716.55848  20656574.861    20656582.6224
  24232044.991   -10393076.000 8  -7864696.75145  24232044.715    24232056.5274
  22357026.689   -17504606.122 8 -13615638.73047  22357026.633    22357034.7504
  23534238.781     7405405.387 8   5773555.09346  23534238.406    23534249.6504
 01  4 19 18 33  0.0010000  0  7 24 10 04 05 06 30 09
  20910076.143   -14261278.523 9 -11102483.25648  20910075.796    20910083.8994
  23251488.652   -11641941.549 8  -9031176.51746  23251487.701    23251500.4574
  22951816.670     8112373.741 8   6323674.59246  22951816.618    22951824.8434
  20651132.765   -23000843.584 9 -17911003.72348  20651132.089    20651139.8444
  24218949.002   -10461895.582 8  -7918322.28845  24218948.671    24218960.6194
  22341331.921   -17587082.120 8 -13679905.71647  22341331.948    22341340.0384
  23551296.370     7495043.503 8   5843402.80046  23551296.007    23551307.4334
 01  4 19 18 33 30.0010000  0  7 24 10 04 05 06 30 09
  20916602.300   -14226983.160 9 -11075759.61648  20916601.968    20916610.0874
  23233301.934   -11737512.038 8  -9105646.82746  23233301.031    23233313.7324
  22969654.092     8206109.582 8   6396715.43146  22969653.999    22969662.1984
  20645778.418   -23028981.179 9 -17932929.12648  20645777.725    20645785.4634
  24205860.565   -10530675.404 8  -7971916.81045  24205860.222    24205872.2914
  22325688.230   -17669289.934 8 -13743963.71847  22325688.248    22325696.3434
  23568382.137     7584828.781 8   5913365.17346  23568381.748    23568393.2134
 01  4 19 18 34  0.0010000  0  7 24 10 04 05 06 30 09
  20923209.832   -14192260.357 9 -11048702.90148  20923209.523    20923217.6724
  23215151.324   -11832893.244 8  -9179969.61446  23215150.397    23215163.1094
  22987522.904     8300010.421 8   6469884.84946  22987522.779    22987531.0364
  20640512.562   -23056653.273 9 -17954491.79748  20640511.871    20640519.6134
  24192779.675   -10599415.955 8  -8025480.75245  24192779.298    24192791.3534
  22310096.071   -17751227.330 8 -13807811.00147  22310096.072    22310104.1434
  23585495.317     7674757.863 8   5983439.59846  23585494.881    23585506.2754
 01  4 19 18 34 30.0010000  0  7 24 10 04 05 06 30 09
  20929898.406   -14157111.808 9 -11021314.44148  20929898.103    20929906.2514
  23197037.265   -11928081.931 8  -9254142.42846  23197036.367    23197049.1054
  23005422.525     8394073.612 8   6543180.76346  23005422.467    23005430.8214
  20635335.638   -23083858.321 9 -17975690.54048  20635334.955    20635342.7164
  24179706.264   -10668117.330 8  -8079014.16245  24179705.839    24179717.7344
  22294555.761   -17832892.125 8 -13871445.88147  22294555.720    22294563.8284
  23602635.119     7764827.475 8   6053623.52946  23602634.696    23602646.1144
 01  4 19 18 35  0.0010000  0  7 24 10 04 05 06 30 09
  20936667.662   -14121539.450 9 -10993595.73248  20936667.327    20936675.4604
  23178960.580   -12023074.706 8  -9328162.57246  23178959.730    23178972.3934
  23023352.669     8488297.306 8   6616601.74546  23023352.644    23023361.1364
  20630247.910   -23110594.614 9 -17996524.01648  20630247.207    20630254.9634
  24166640.147   -10736779.409 8  -8132516.93545  24166639.733    24166651.6584
  22279067.701   -17914281.792 8 -13934866.37047  22279067.763    22279075.8434
  23619801.066     7855035.146 8   6123915.03346  23619800.692    23619812.2464
 01  4 19 18 35 30.0010000  0  7 24 10 04 05 06 30 09
  20943517.115   -14085545.569 9 -10965548.56848  20943516.775    20943524.9124
  23160921.923   -12117868.206 8  -9402027.43146  23160921.038    23160933.6214
  23041312.864     8582678.476 8   6690145.42946  23041312.791    23041321.4894
  20625249.573   -23136861.060 9 -18016991.37848  20625248.847    20625256.5914
  24153581.674   -10805402.665 8  -8185989.46945  24153581.134    24153593.0374
  22263632.482   -17995394.146 8 -13998070.76647  22263632.548    22263640.6434
  23636992.876     7945377.556 8   6194311.52446  23636992.460    23637003.9794
 01  4 19 18 36  0.0010000  0  7 24 10 04 05 06 30 09
  20950446.443   -14049132.197 9 -10937174.52948  20950446.088    20950454.1854
  23142921.714   -12212459.714 8  -9475734.90746  23142920.800    23142933.2774
  23059302.550     8677214.707 8   6763809.93646  23059302.457    23059311.2364
  20620340.923   -23162656.183 9 -18037091.47948  20620340.225    20620347.9784
  24140530.265   -10873987.255 8  -8239431.85545  24140529.789    24140541.7234
  22248250.494   -18076226.906 9 -14061057.30247  22248250.567    22248258.6844
  23654209.702     8035851.482 8   6264810.48546  23654209.291    23654220.7804
 01  4 19 18 36 30.0010000  0  7 24 10 04 05 06 30 09
  20957455.152   -14012301.491 9 -10908475.28948  20957454.776    20957462.8484
  23124960.647   -12306845.618 8  -9549282.17946  23124959.674    23124972.0054
  23077321.324     8771903.572 8   6837593.39546  23077321.233    23077329.9564
  20615522.376   -23187978.214 9 -18056822.93648  20615521.651    20615529.3444
  24127486.318   -10942533.022 8  -8292843.99545  24127485.869    24127497.8844
  22232922.316   -18156777.381 9 -14123823.87947  22232922.368    22232930.3494
  23671451.095     8126454.450 8   6335410.00846  23671450.615    23671462.0644
 01  4 19 18 37  0.0010000  0  7 24 10 04 05 06 30 09
  20964542.850   -13975055.581 9 -10879452.52148  20964542.449    20964550.5064
  23107039.222   -12401022.930 8  -9622666.91646  23107038.171    23107050.3824
  23095368.562     8866742.451 8   6911493.74546  23095368.519    23095377.2254
  20610794.033   -23212826.073 9 -18076184.91148  20610793.315    20610800.9554
  24114449.689   -11011040.504 8  -8346226.30545  24114449.244    24114461.2784
  22217648.262   -18237043.274 9 -14186368.70347  22217648.272    22217656.2514
  23688716.303     8217182.913 8   6406107.31346  23688715.863    23688727.2844
 01  4 19 18 37 30.0010000  0  7 24 10 04 05 06 30 09
  20971709.301   -13937395.591 9 -10850107.08648  20971708.928    20971716.9824
  23089158.037   -12494988.042 8  -9695886.29446  23089157.030    23089169.1844
  23113444.121     8961729.647 8   6985509.66346  23113444.085    23113452.7484
  20606156.307   -23237197.909 9 -18095175.95948  20606155.545    20606163.1104
  24101420.409   -11079509.159 8  -8399578.35345  24101419.875    24101432.0024
  22202428.857   -18317021.492 9 -14248689.35847  22202428.868    22202436.8834
  23706004.930     8308034.437 8   6476900.51146  23706004.504    23706015.9414
 01  4 19 18 38  0.0010000  0  7 24 10 04 05 06 30 09
  20978954.144   -13899323.924 9 -10820440.87048  20978953.752    20978961.8014
  23071317.951   -12588737.830 8  -9768937.91346  23071316.920    23071329.0974
  23131547.353     9056862.099 8   7059638.77646  23131547.234    23131555.8664
  20601609.338   -23261092.413 9 -18113795.06248  20601608.593    20601616.1424
  24088398.329   -11147939.513 8  -8452900.57045  24088397.939    24088409.9854
  22187264.564   -18396710.066 8 -14310784.32247  22187264.577    22187272.6114
  23723316.404     8399005.810 8   6547787.09946  23723315.959    23723327.3864
 01  4 19 18 38 30.0010000  0  7 24 10 04 05 06 30 09
  20986276.844   -13860842.537 9 -10790455.38548  20986276.463    20986284.5624
  23053519.348   -12682269.285 8  -9841819.38546  23053518.332    23053530.4924
  23149677.717     9152137.256 8   7133879.08246  23149677.552    23149686.2474
  20597153.432   -23284508.282 9 -18132041.19648  20597152.688    20597160.2464
  24075383.665   -11216331.743 8  -8506193.07045  24075383.309    24075395.1174
  22172155.780   -18476106.915 9 -14372651.96547  22172155.826    22172163.9034
  23740649.988     8490093.752 8   6618764.51346  23740649.510    23740661.0764
 01  4 19 18 39  0.0010000  0  7 24 10 04 05 06 30 09
  20993677.220   -13821953.248 9 -10760152.05248  20993676.870    20993684.9384
  23035762.885   -12775578.718 8  -9914527.87046  23035761.894    23035774.0884
  23167834.932     9247553.536 8   7208229.34746  23167834.752    23167843.4704
  20592789.035   -23307443.526 9 -18149912.82148  20592788.279    20592795.8454
  24062376.234   -11284685.285 8  -8559455.42145  24062375.974    24062387.7334
  22157103.261   -18555208.747 9 -14434289.72347  22157103.277    22157111.3354
  23758005.348     8581296.075 8   6689831.06046  23758004.845    23758016.4834
 01  4 19 18 39 30.0010000  0  7 24 10 04 05 06 30 09
  21001154.869   -13782658.213 9 -10729532.55748  21001154.483    21001162.5684
  23018049.411   -12868662.524 8  -9987060.55446  23018048.477    23018060.6294
  23186018.497     9343108.428 8   7282687.62346  23186018.314    23186027.1054
  20588516.265   -23329896.674 9 -18167408.78448  20588515.547    20588523.1854
  24049376.266   -11353000.289 8  -8612687.75045  24049375.894    24049387.7824
  22142107.201   -18634013.284 9 -14495695.81047  22142107.218    22142115.3034
  23775381.952     8672609.747 8   6760984.37046  23775381.426    23775393.1574
 01  4 19 18 40  0.0010000  0  7 24 10 04 05 06 30 09
  21008709.249   -13742959.571 9 -10698598.57148  21008708.884    21008717.0044
  23000379.531   -12961518.192 8 -10059415.46646  23000378.509    23000390.5864
  23204227.862     9438799.060 8   7357251.67246  23204227.707    23204236.5594
  20584335.451   -23351866.980 9 -18184528.50848  20584334.732    20584342.3584
  24036383.281   -11421277.152 8  -8665890.37045  24036382.989    24036394.9064
  22127168.147   -18712518.477 9 -14556868.65747  22127168.160    22127176.1634
  23792779.077     8764031.418 8   6832221.82146  23792778.532    23792790.4124
 01  4 19 18 40 30.0010000  0  7 24 10 04 05 06 30 09
  21016340.167   -13702859.044 9 -10667351.42348  21016339.821    21016347.8814
  22982753.940   -13054141.353 8 -10131589.20846  22982752.822    22982764.7914
  23222462.749     9534623.692 8   7431920.14046  23222462.544    23222471.4444
  20580246.952   -23373352.426 9 -18201270.42548  20580246.242    20580253.8264
  24023397.825   -11489515.288 8  -8719062.80745  24023397.548    24023409.4684
  22112286.600   -18790721.146 9 -14617805.77347  22112286.663    22112294.6064
  23810196.178     8855558.629 8   6903541.51546  23810195.665    23810207.7354
 01  4 19 18 41  0.0010000  0  7 24 10 04 05 06 30 09
  21024047.050   -13662359.320 9 -10635793.21848  21024046.665    21024054.7264
  22965172.932   -13146529.385 8 -10203579.72846  22965171.853    22965183.8334
  23240722.590     9630579.420 8   7506690.75546  23240722.343    23240731.2454
  20576250.840   -23394352.042 9 -18217633.76948  20576250.128    20576257.7344
  24010419.758   -11557715.365 8  -8772205.59145  24010419.502    24010431.2574
  22097463.081   -18868619.490 9 -14678505.74447  22097463.115    22097471.0714
  23827632.818     8947188.085 8   6974940.87946  23827632.373    23827644.5404
 01  4 19 18 41 30.0010000  0  7 24 10 04 05 06 30 09
  21031829.601   -13621461.524 9 -10603924.82847  21031829.228    21031837.3514
  22947637.204   -13238679.179 8 -10275384.62546  22947636.152    22947648.0864
  23259006.846     9726663.927 8   7581561.71446  23259006.664    23259015.5774
  20572347.463   -23414864.567 9 -18233617.56348  20572346.741    20572354.3544
  23997448.955   -11625877.396 8  -8825318.72345  23997448.672    23997460.3034
  22082697.853   -18946211.129 9 -14738966.73147  22082697.877    22082705.7734
  23845088.427     9038916.872 8   7046417.65146  23845087.949    23845100.1374
 01  4 19 18 42  0.0010000  0  7 24 10 04 05 06 30 09
  21039687.439   -13580168.181 9 -10571748.21647  21039687.108    21039695.2064
  22930147.596   -13330587.072 8 -10347001.04446  22930146.610    22930158.3334
  23277315.168     9822875.088 8   7656531.36546  23277315.060    23277323.9774
  20568537.067   -23434888.418 9 -18249220.56748  20568536.359    20568543.9344
  23984485.470   -11694001.061 8  -8878401.97445  23984485.187    23984496.6684
  22067991.518   -19023493.115 9 -14799186.43147  22067991.537    22067999.4574
  23862562.265     9130742.107 8   7117969.56046  23862561.872    23862574.1104
 01  4 19 18 42 30.0010000  0  7 24 10 04 05 06 30 09
  21047620.304   -13538480.978 9 -10539264.70547  21047619.956    21047628.0454
  22912704.772   -13422249.490 8 -10418426.17746  22912703.776    22912715.3534
  23295647.219     9919210.975 8   7731598.21546  23295647.269    23295656.1634
  20564819.950   -23454421.949 9 -18264441.50848  20564819.242    20564826.8294
  23971529.219   -11762086.188 8  -8931455.17445  23971528.916    23971540.3184
  22053344.657   -19100462.609 9 -14859162.64647  22053344.727    22053352.6134
  23880054.092     9222661.341 8   7189594.72046  23880053.672    23880065.9454
 01  4 19 18 43  0.0010000  0  7 24 10 04 05 06 30 09
  21055627.462   -13496402.975 9 -10506476.67947  21055627.123    21055635.2354
  22895309.175   -13513663.955 8 -10489658.10046  22895308.148    22895319.6034
  23314002.525    10015668.425 8   7806759.77546  23314002.622    23314011.4564
  20561196.180   -23473464.644 9 -18279279.97548  20561195.500    20561203.1664
  23958580.183   -11830133.693 8  -8984479.07845  23958579.830    23958591.1944
  22038757.646   -19177117.975 9 -14918894.07647  22038757.725    22038765.5684
  23897563.216     9314670.913 8   7261290.26946  23897562.781    23897575.0374
 01  4 19 18 43 30.0010000  0  7 24 10 04 05 06 30 09
  21063708.667   -13453936.051 9 -10473385.59547  21063708.328    21063716.4784
  22877961.262   -13604827.786 8 -10560694.72946  22877960.148    22877971.6254
  23332380.595    10112244.925 8   7882014.11146  23332380.659    23332389.4184
  20557666.107   -23492015.272 9 -18293735.01448  20557665.414    20557673.0794
  23945638.239   -11898143.814 8  -9037473.85045  23945637.910    23945649.1504
  22024230.896   -19253457.082 9 -14978379.07847  22024230.922    22024238.6714
  23915088.928     9406767.551 8   7333053.64046  23915088.378    23915100.7004
 01  4 19 18 44  0.0010000  0  7 24 10 04 05 06 30 09
  21071863.656   -13411081.447 9 -10439992.42847  21071863.323    21071871.4434
  22860661.747   -13695736.412 8 -10631532.49046  22860660.674    22860672.1654
  23350781.048    10208938.929 8   7957360.00846  23350780.971    23350789.7744
  20554230.125   -23510071.604 9 -18307804.89348  20554229.443    20554237.0694
  23932703.500   -11966115.621 8  -9090438.76045  23932703.155    23932714.3974
  22009764.875   -19329476.537 9 -15037614.99647  22009764.917    22009772.6514
  23932630.693     9498949.384 8   7404883.40246  23932630.175    23932642.4734
 01  4 19 18 44 30.0010000  0  7 24 10 04 05 06 30 09
  21080092.032   -13367841.228 9 -10406298.77747  21080091.686    21080099.8004
  22843411.550   -13786386.355 8 -10702168.70046  22843410.506    22843421.8974
  23369203.432    10305748.625 8   8032796.03746  23369203.327    23369212.0684
  20550888.470   -23527632.345 9 -18321488.59548  20550887.766    20550895.4044
  23919776.177   -12034048.832 8  -9143373.59145  23919775.764    23919786.9354
  21995360.141   -19405173.767 9 -15096599.83847  21995360.179    21995367.9674
  23950188.259     9591213.694 8   7476777.43346  23950187.689    23950199.9624
 01  4 19 18 45  0.0010000  0  7 24 10 04 05 06 30 09
  21088393.232   -13324217.901 9 -10372306.60147  21088392.919    21088401.0544
  22826211.120   -13876774.865 8 -10772601.18846  22826210.024    22826221.3694
  23387647.225    10402671.011 8   8108319.89946  23387647.099    23387655.8514
  20547641.187   -23544696.776 9 -18334785.56248  20547640.494    20547648.1514
  23906855.962   -12101943.803 8  -9196278.62345  23906855.558    23906866.7444
  21981017.047   -19480546.543 9 -15155331.85447  21981017.119    21981024.9994
  23967760.671     9683556.971 8   7548732.98846  23967760.205    23967772.5214
 01  4 19 18 45 30.0010000  0  7 24 10 04 05 06 30 09
  21096767.186   -13280212.870 9 -10338016.99347  21096766.862    21096775.0154
  22809061.016   -13966898.170 8 -10842827.01946  22809059.977    22809071.3124
  23406112.085    10499704.443 8   8183930.28646  23406111.956    23406120.7284
  20544488.765   -23561263.165 9 -18347694.44548  20544488.067    20544495.6974
  23893943.239   -12169800.208 8  -9249153.61445  23893942.858    23893953.8614
  21966736.310   -19555592.083 9 -15213808.88047  21966736.375    21966744.3414
  23985347.663     9775976.750 8   7620748.15046  23985347.239    23985359.6764
 01  4 19 18 46  0.0010000  0  7 24 10 04 05 06 30 09
  21105213.167   -13235829.146 9 -10303432.29647  21105212.815    21105220.9754
  22791961.982   -14056753.853 8 -10912844.32046  22791960.954    22791972.2674
  23424597.583    10596845.903 8   8259624.84646  23424597.498    23424606.1934
  20541431.179   -23577330.841 9 -18360214.72048  20541430.484    20541438.1224
  23881037.782   -12237618.550 8  -9301998.93945  23881037.382    23881048.3554
  21952518.255   -19630308.631 9 -15272029.55447  21952518.307    21952526.1914
  24002948.619     9868469.510 8   7692820.18046  24002948.215    24002960.6504
 01  4 19 18 46 30.0010000  0  7 24 10 04 05 06 30 09
  21113730.891   -13191068.389 9 -10268553.80947  21113730.558    21113738.6904
  22774914.610   -14146338.025 8 -10982650.05846  22774913.595    22774924.8264
  23443103.332    10694093.723 8   8335402.28846  23443103.207    23443111.9214
  20538468.823   -23592898.159 9 -18372345.10948  20538468.124    20538475.7744
  23868139.622   -12305398.328 8  -9354814.22945  23868139.231    23868150.2054
  21938363.412   -19704693.198 9 -15329991.53347  21938363.427    21938371.2314
  24020562.938     9961033.023 8   7764947.34546  24020562.581    24020575.1774
 01  4 19 18 47  0.0010000  0  7 24 10 04 05 06 30 09
  21122319.775   -13145933.352 9 -10233383.67047  21122319.462    21122327.6534
  22757919.281   -14235648.261 8 -11052242.33746  22757918.321    22757929.5054
  23461628.665    10791444.412 8   8411259.88646  23461628.523    23461637.2474
  20535601.739   -23607964.839 9 -18384085.39148  20535601.039    20535608.6884
  23855248.429   -12373140.731 8  -9407600.39745  23855248.075    23855259.0934
  21924271.990   -19778744.209 9 -15387693.59947  21924272.012    21924279.7984
  24038190.122    10053663.328 8   7837126.52946  24038189.747    24038202.4524
 01  4 19 18 47 30.0010000  0  7 24 10 04 05 06 30 09
  21130979.651   -13100425.324 9 -10197922.89047  21130979.347    21130987.5484
  22740976.965   -14324680.231 8 -11121617.77946  22740976.030    22740987.2284
  23480173.420    10888896.885 8   8487196.78946  23480173.204    23480181.8704
  20532830.371   -23622528.494 9 -18395433.70348  20532829.678    20532837.3524
  23842364.727   -12440844.636 8  -9460356.56845  23842364.395    23842375.3254
  21910244.683   -19852458.075 9 -15445132.95447  21910244.733    21910252.4394
  24055829.649    10146358.477 8   7909356.26346  24055829.305    24055841.9154
 01  4 19 18 48  0.0010000  0  7 24 10 04 05 06 30 09
  21139710.034   -13054546.902 9 -10162173.49247  21139709.694    21139717.9194
  22724088.148   -14413431.034 8 -11190774.14446  22724087.242    22724098.3784
  23498737.102    10986448.885 8   8563211.25646  23498736.873    23498745.5154
  20530154.875   -23636588.378 9 -18406389.47548  20530154.200    20530161.8274
  23829488.339   -12508510.356 8  -9513082.97245  23829487.959    23829498.8654
  21896281.971   -19925832.933 9 -15502308.15347  21896281.970    21896289.6504
  24073480.922    10239115.408 8   7981634.13745  24073480.645    24073493.1494
 01  4 19 18 48 30.0010000  0  7 24 10 04 05 06 30 09
  21148510.552   -13008299.891 9 -10126136.87747  21148510.231    21148518.4294
  22707253.517   -14501897.459 8 -11259708.90246  22707252.546    22707263.6424
  23517319.210    11084097.987 8   8639301.37646  23517318.969    23517327.5714
  20527575.521   -23650143.369 9 -18416951.81748  20527574.816    20527582.4104
  23816619.186   -12576137.785 8  -9565779.55546  23816618.828    23816629.7224
  21882384.273   -19998866.017 9 -15559217.02247  21882384.280    21882391.9274
  24091143.423    10331931.420 8   8053958.01745  24091143.118    24091155.6704
 01  4 19 18 49  0.0010000  0  7 24 10 04 05 06 30 09
  21157380.830   -12961686.462 9 -10089814.74147  21157380.490    21157388.6674
  22690473.563   -14590076.174 8 -11328419.47146  22690472.593    22690483.6984
  23535919.254    11181842.168 8   8715465.58046  23535919.022    23535927.7504
  20525092.483   -23663191.953 9 -18427119.55648  20525091.774    20525099.3614
  23803757.412   -12643726.563 8  -9618446.02846  23803757.012    23803767.9254
  21868552.122   -20071554.611 9 -15615857.46247  21868552.087    21868559.7194
  24108816.632    10424803.582 8   8126325.66146  24108816.313    24108828.9584
 01  4 19 18 49 30.0010000  0  7 24 10 04 05 06 30 09
  21166320.520   -12914708.407 9 -10053208.48547  21166320.141    21166328.3364
  22673749.026   -14677963.583 8 -11396903.05346  22673748.091    22673759.1564
  23554537.067    11279679.378 8   8791702.27646  23554536.883    23554545.6834
  20522705.994   -23675733.122 9 -18436891.91148  20522705.277    20522712.8544
  23790902.974   -12711276.715 8  -9671082.38446  23790902.501    23790913.5044
  21854785.905   -20143896.361 9 -15672227.62947  21854785.917    21854793.5574
  24126500.109    10517729.196 8   8198734.95846  24126499.752    24126512.3834
 01  4 19 18 50  0.0010000  0  7 24 10 04 05 06 30 09
  21175329.099   -12867367.795 9 -10016319.71647  21175328.755    21175336.9374
  22657080.574   -14765556.536 8 -11465157.18646  22657079.610    22657090.7434
  23573172.123    11377607.345 8   8868009.68946  23573171.992    23573180.9004
  20520416.292   -23687765.979 9 -18446268.17548  20520415.552    20520423.0984
  23778055.874   -12778788.296 8  -9723688.69346  23778055.395    23778066.4174
  21841086.152   -20215888.889 9 -15728325.67947  21841086.151    21841093.7534
  24144192.941    10610705.207 8   8271183.53345  24144192.663    24144205.4104
 01  4 19 18 50 30.0010000  0  7 24 10 04 05 06 30 09
  21184406.326   -12819667.100 9  -9979150.36147  21184405.981    21184414.0714
  22640468.782   -14852851.989 8 -11533179.50146  22640467.761    22640478.8764
  23591824.078    11475623.760 8   8944386.02646  23591823.930    23591832.8854
  20518223.494   -23699289.240 9 -18455247.35048  20518222.730    20518230.2874
  23765216.176   -12846261.166 8  -9776264.84046  23765215.654    23765226.6104
  21827453.397   -20287529.511 9 -15784149.51647  21827453.398    21827460.9794
  24161894.900    10703728.852 8   8343669.19845  24161894.608    24161907.4804
 01  4 19 18 51  0.0010000  0  7 24 10 04 05 06 30 09
  21193551.598   -12771608.845 9  -9941702.39447  21193551.220    21193559.3214
  22623914.011   -14939847.037 8 -11600967.74646  22623913.021    22623924.1154
  23610492.462    11573726.338 8   9020829.51846  23610492.376    23610501.2994
  20516127.769   -23710302.293 9 -18463828.96548  20516127.041    20516134.5954
  23752383.699   -12913695.652 8  -9828811.07146  23752383.227    23752394.2064
  21813887.949   -20358816.293 9 -15839697.63647  21813887.950    21813895.5594
  24179605.411    10796797.044 8   8416189.58045  24179605.027    24179617.9984
 01  4 19 18 51 30.0010000  0  7 24 10 04 05 06 30 09
  21202764.443   -12723194.884 9  -9903977.25547  21202764.092    21202772.2284
  22607417.111   -15026538.228 8 -11668519.21346  22607416.132    22607427.2124
  23629176.793    11671912.853 8   9097338.42046  23629176.681    23629185.6354
  20514129.409   -23720804.140 9 -18472012.23348  20514128.634    20514136.1764
  23739558.590   -12981091.725 8  -9881327.38246  23739558.076    23739569.0834
  21800390.263   -20429746.807 9 -15894968.13647  21800390.274    21800397.9244
  24197323.845    10889906.637 8   8488742.23645  24197323.431    24197336.4034
 01  4 19 18 52  0.0010000  0  7 24 10 04 05 06 30 09
  21212044.714   -12674427.092 9  -9865976.39047  21212044.367    21212052.4224
  22590978.674   -15112922.182 8 -11735831.26346  22590977.652    22590988.8364
  23647876.735    11770181.343 8   9173911.17846  23647876.635    23647885.5944
  20512228.427   -23730793.403 9 -18479796.08848  20512227.700    20512235.3134
  23726740.651   -13048449.070 8  -9933813.52646  23726740.269    23726751.2814
  21786961.072   -20500318.012 9 -15949958.67147  21786961.051    21786968.6654
  24215049.839    10983055.349 8   8561325.35945  24215049.359    24215062.2734
 01  4 19 18 52 30.0010000  0  7 24 10 04 05 06 30 09
  21221391.836   -12625308.040 9  -9827701.82647  21221391.456    21221399.4894
  22574599.255   -15198996.083 8 -11802901.73746  22574598.221    22574609.4644
  23666591.723    11868529.564 8   9250546.06046  23666591.690    23666600.8044
  20510425.235   -23740269.396 9 -18487179.99448  20510424.519    20510432.1004
  23713930.253   -13115767.793 8  -9986269.55346  23713929.909    23713940.8184
  21773600.553   -20570527.828 9 -16004667.59547  21773600.560    21773608.1794
  24232782.476    11076240.334 8   8633936.73945  24232782.014    24232795.1394
 01  4 19 18 53  0.0010000  0  7 24 10 04 05 06 30 09
  21230805.333   -12575839.359 9  -9789154.82747  21230805.000    21230813.0864
  22558279.580   -15284755.907 8 -11869727.46246  22558278.549    22558289.8614
  23685321.666    11966955.527 8   9327241.52746  23685321.613    23685330.7844
  20508719.939   -23749230.759 9 -18494162.88448  20508719.199    20508726.8184
  23701127.264   -13183047.422 8 -10038695.12646  23701126.882    23701137.8424
  21760309.278   -20640373.654 9 -16059092.88447  21760309.282    21760316.9274
  24250521.382    11169458.769 8   8706574.20445  24250520.984    24250534.2664
 01  4 19 18 53 30.0010000  0  7 24 10 04 05 06 30 09
  21240284.990   -12526023.686 9  -9750337.44247  21240284.677    21240292.7494
  22542020.277   -15370199.145 8 -11936306.49946  22542019.225    22542030.5124
  23704065.933    12065456.741 8   9403995.63245  23704065.807    23704074.9944
  20507112.689   -23757676.965 9 -18500744.36148  20507111.972    20507119.6094
  23688331.654   -13250288.490 8 -10091090.65546  23688331.329    23688342.1534
  21747087.676   -20709853.405 9 -16113232.92447  21747087.704    21747095.3134
  24268266.285    11262707.356 8   8779235.13845  24268265.789    24268279.1824
 01  4 19 18 54  0.0010000  0  7 24 10 04 05 06 30 09
  21249830.261   -12475863.576 9  -9711251.65647  21249829.909    21249837.9474
  22525821.706   -15455322.789 8 -12002636.50846  22525820.689    22525831.8654
  23722824.076    12164030.876 8   9480806.56745  23722823.940    23722833.1284
  20505603.687   -23765606.967 9 -18506923.59448  20505602.966    20505610.6004
  23675543.476   -13317490.937 8 -10143456.08946  23675543.083    23675553.7854
  21733936.220   -20778965.045 9 -16167086.12647  21733936.219    21733943.8234
  24286016.323    11355983.173 8   8851917.30945  24286015.801    24286029.3214
 01  4 19 18 54 30.0010000  0  7 24 10 04 05 06 30 09
  21259440.676   -12425360.497 9  -9671898.62647  21259440.336    21259448.4174
  22509684.708   -15540123.190 8 -12068714.63646  22509683.591    22509694.7364
  23741595.876    12262676.479 8   9557673.19645  23741595.675    23741604.9084
  20504193.167   -23773019.413 9 -18512699.53848  20504192.433    20504200.0864
  23662762.663   -13384654.299 8 -10195791.07446  23662762.240    23662772.8974
  21720855.333   -20847705.363 9 -16220649.98947  21720855.325    21720862.9034
  24303770.986    11449283.884 8   8924618.86545  24303770.510    24303784.1374
 01  4 19 18 55  0.0010000  0  7 24 10 04 05 06 30 09
  21269115.898   -12374516.773 9  -9632280.16047  21269115.578    21269123.6934
  22493609.654   -15624597.238 8 -12134538.45546  22493608.609    22493619.7324
  23760380.802    12361391.220 8   9634593.71245  23760380.571    23760389.8184
  20502881.258   -23779913.424 9 -18518071.51248  20502880.551    20502888.2134
  23649989.247   -13451778.559 8 -10248095.59046  23649988.844    23649999.5154
  21707845.588   -20916071.886 9 -16273922.58247  21707845.581    21707853.2154
  24321530.113    11542606.748 8   8997337.66345  24321529.605    24321543.2304
 01  4 19 18 55 30.0010000  0  7 24 10 04 05 06 30 09
  21278855.633   -12323334.430 9  -9592397.83447  21278855.285    21278863.4024
  22477597.555   -15708741.510 8 -12200105.30746  22477596.454    22477607.5244
  23779178.492    12460173.206 8   9711566.60645  23779178.218    23779187.5574
  20501668.237   -23786288.258 9 -18523038.93048  20501667.521    20501675.1264
  23637223.237   -13518863.493 8 -10300369.46246  23637222.901    23637233.5534
  21694907.398   -20984062.278 9 -16326902.08747  21694907.438    21694915.1124
  24339292.975    11635948.878 8   9070071.48845  24339292.448    24339305.9394
 01  4 19 18 56  0.0010000  0  7 24 10 04 05 06 30 09
  21288659.360   -12271815.685 9  -9552253.38047  21288658.988    21288667.1264
  22461648.747   -15792552.935 8 -12265412.81446  22461647.645    22461658.6484
  23797988.490    12559020.221 8   9788590.17345  23797988.196    23797997.6294
  20500554.134   -23792142.946 9 -18527601.03648  20500553.382    20500561.0784
  23624464.912   -13585909.054 8 -10352612.64446  23624464.504    23624475.0544
  21682041.319   -21051674.137 9 -16379586.63247  21682041.335    21682049.0094
  24357058.725    11729307.658 8   9142818.28745  24357058.319    24357071.7174
 01  4 19 18 56 30.0010000  0  7 24 10 04 05 06 30 09
  21298526.564   -12219963.143 9  -9511848.82547  21298526.227    21298534.3594
  22445763.853   -15876028.356 8 -12330458.50146  22445762.742    22445773.5854
  23816810.407    12657930.200 8   9865662.81145  23816810.235    23816819.6614
  20499539.110   -23797476.802 9 -18531757.30448  20499538.405    20499546.0754
  23611713.921   -13652915.005 8 -10404824.96946  23611713.601    23611724.1124
  21669247.664   -21118905.029 9 -16431974.32447  21669247.682    21669255.3774
  24374827.044    11822680.174 8   9215575.78745  24374826.748    24374840.1724
 01  4 19 18 57  0.0010000  0  7 24 10 04 05 06 30 09
  21308457.072   -12167778.078 9  -9471185.16347  21308456.712    21308464.8354
  22429943.525   -15959164.272 8 -12395239.63246  22429942.404    22429953.2104
  23835644.099    12756901.469 8   9942783.19845  23835643.898    23835653.2824
  20498623.516   -23802288.633 9 -18535506.79448  20498622.769    20498630.4424
  23598970.527   -13719880.995 8 -10457006.15346  23598970.273    23598980.9094
  21656527.132   -21185752.043 9 -16484062.89847  21656527.158    21656534.7734
  24392597.508    11916063.776 8   9288341.91445  24392597.256    24392610.7974
 01  4 19 18 57 30.0010000  0  7 24 10 04 05 06 30 09
  21318450.246   -12115263.623 9  -9430264.83747  21318449.894    21318458.0204
  22414188.283   -16041958.122 8 -12459754.22746  22414187.191    22414197.9134
  23854488.964    12855931.309 8  10019949.21945  23854488.711    23854498.0144
  20497807.183   -23806578.085 9 -18538849.23848  20497806.484    20497814.1694
  23586234.818   -13786807.477 8 -10509156.57246  23586234.530    23586245.1374
  21643879.847   -21252213.609 9 -16535851.12047  21643879.874    21643887.5604
  24410369.465    12009455.300 8   9361114.22145  24410369.252    24410382.9064
 01  4 19 18 58  0.0010000  0  7 24 10 04 05 06 30 09
  21328505.766   -12062421.670 9  -9389089.31747  21328505.393    21328513.5424
  22398498.784   -16124406.653 8 -12523999.74046  22398497.703    22398508.4244
  23873344.470    12955017.801 8  10097159.39545  23873344.257    23873353.4874
  20497090.509   -23810344.309 9 -18541783.97048  20497089.790    20497097.4954
  23573506.697   -13853694.261 8 -10561276.04246  23573506.361    23573516.8834
  21631306.422   -21318287.190 9 -16587337.01447  21631306.438    21631314.1574
  24428142.437    12102852.024 8   9433890.57845  24428142.289    24428156.0034
 01  4 19 18 58 30.0010000  0  7 24 10 04 05 06 30 09
  21338623.165   -12009254.235 9  -9347660.17047  21338622.809    21338630.9694
  22382875.599   -16206506.651 8 -12587973.66046  22382874.539    22382885.1724
  23892210.358    13054159.085 8  10174412.25845  23892210.257    23892219.5434
  20496473.556   -23813586.234 9 -18544310.15248  20496472.887    20496480.5754
  23560786.034   -13920541.245 8 -10613364.49846  23560785.738    23560796.1724
  21618807.308   -21383970.258 9 -16638518.60347  21618807.351    21618815.0814
  24445915.936    12196251.365 8   9506668.95745  24445915.794    24445929.7344
 01  4 19 18 59  0.0010000  0  7 24 10 04 05 06 30 09
  21348802.121   -11955763.420 9  -9305979.04447  21348801.752    21348809.9434
  22367319.443   -16288254.634 8 -12651673.29446  22367318.358    22367328.8964
  23911086.377    13153353.519 8  10251706.54445  23911086.309    23911095.7354
  20495956.679   -23816302.895 9 -18546427.04148  20495955.955    20495963.6444
  23548073.054   -13987347.782 8 -10665421.43446  23548072.708    23548083.1994
  21606383.055   -21449260.098 9 -16689393.78747  21606383.092    21606390.8124
  24463689.412    12289650.864 8   9579447.48645  24463689.200    24463703.4354
 01  4 19 18 59 30.0010000  0  7 24 10 04 05 06 30 09
  21359042.084   -11901951.744 9  -9264047.89847  21359041.763    21359050.0344
  22351830.780   -16369647.544 8 -12715096.24546  22351829.750    22351840.2604
  23929972.074    13252598.410 8  10329040.13945  23929972.094    23929981.4754
  20495539.728   -23818493.994 9 -18548134.40848  20495539.023    20495546.7304
  23535367.849   -14054114.128 8 -10717447.06246  23535367.514    23535378.0164
  21594034.042   -21514154.628 9 -16739960.93847  21594034.101    21594041.7714
  24481462.390    12383047.458 8   9652223.74045  24481462.226    24481476.5944
 01  4 19 19  0  0.0010000  0  7 24 10 04 05 06 30 09
  21369342.645   -11847821.746 9  -9221868.71247  21369342.362    21369350.6844
  22336410.222   -16450683.001 8 -12778240.66246  22336409.156    22336419.7064
  23948867.138    13351891.676 8  10406411.42745  23948867.104    23948876.4574
  20495222.883   -23820159.209 9 -18549431.99548  20495222.163    20495229.8504
  23522670.259   -14120840.693 8 -10769441.69346  23522669.875    23522680.2764
  21581760.625   -21578652.027 9 -16790218.63047  21581760.628    21581768.3544
  24499234.334    12476437.730 8   9724995.07645  24499234.093    24499248.4974
 01  4 19 19  0 30.0010000  0  7 24 10 04 05 06 30 09
  21379703.453   -11793375.242 9  -9179442.89847  21379703.169    21379711.4944
  22321058.263   -16531357.395 8 -12841103.74546  22321057.204    22321067.8244
  23967771.025    13451231.446 8  10483818.95445  23967770.857    23967780.2114
  20495006.290   -23821297.416 9 -18550318.92548  20495005.573    20495013.2144
  23509980.058   -14187526.902 8 -10821404.87146  23509979.740    23509990.1334
  21569563.176   -21642749.527 9 -16840164.72247  21569563.262    21569570.9324
  24517004.466    12569819.224 8   9797759.54545  24517004.041    24517018.7054
 01  4 19 19  1  0.0010000  0  7 24 10 04 05 06 30 09
  21390124.169   -11738614.032 9  -9136771.85347  21390123.875    21390132.2454
  22305775.685   -16611667.150 8 -12903682.68546  22305774.674    22305785.3484
  23986683.328    13550616.286 8  10561261.61445  23986683.264    23986692.6514
  20494890.191   -23821907.580 9 -18550794.38948  20494889.463    20494897.1384
  23497297.778   -14254172.298 8 -10873336.25046  23497297.510    23497307.7234
  21557442.503   -21706444.236 9 -16889796.93847  21557442.563    21557450.2094
  24534772.448    12663189.629 8   9870515.36545  24534772.011    24534786.8774
 01  4 19 19  1 30.0010000  0  7 24 10 04 05 06 30 09
  21400604.368   -11683540.374 9  -9093857.34747  21400604.100    21400612.4694
  22290562.988   -16691609.735 8 -12965975.52646  22290562.045    22290572.6334
  24005603.729    13650043.927 8  10638737.60945  24005603.786    24005613.2054
  20494874.673   -23821989.032 9 -18550857.87448  20494873.984    20494881.7054
  23484623.317   -14320776.852 8 -10925235.80546  23484623.014    23484633.1424
  21545398.915   -21769734.229 9 -16939113.80447  21545398.921    21545406.5024
  24552537.795    12756546.078 8   9943260.31045  24552537.422    24552552.3014
 01  4 19 19  2  0.0010000  0  7 24 10 04 05 06 30 09
  21411143.610   -11628156.766 9  -9050701.32147  21411143.274    21411151.6914
  22275420.849   -16771181.781 8 -13027979.62146  22275419.888    22275430.4854
  24024532.040    13749512.594 8  10716245.58245  24024532.152    24024541.5974
  20494959.880   -23821541.257 9 -18550508.97348  20494959.185    20494966.9384
  23471956.641   -14387340.341 8 -10977103.35546  23471956.323    23471966.5694
  21533432.662   -21832616.856 9 -16988113.23847  21533432.685    21533440.3444
  24570300.091    12849885.769 8  10015992.20545  24570299.615    24570314.5754
 01  4 19 19  2 30.0010000  0  7 24 10 04 05 06 30 09
  21421741.320   -11572465.336 9  -9007305.43247  21421741.027    21421749.4414
  22260349.796   -16850380.620 8 -13089692.90946  22260348.772    22260359.4044
  24043467.911    13849020.032 8  10793783.76945  24043467.983    24043477.3404
  20495145.837   -23820563.799 9 -18549747.33448  20495145.176    20495152.9844
  23459297.705   -14453862.922 8 -11028939.03146  23459297.396    23459307.7274
  21521544.355   -21895090.073 9 -17036793.65247  21521544.435    21521552.0644
  24588058.685    12943205.866 8  10088708.83045  24588058.211    24588073.0994
 01  4 19 19  3  0.0010000  0  7 24 10 04 05 06 30 09
  21432397.169   -11516468.679 9  -8963671.70647  21432396.870    21432405.2904
  22245350.183   -16929203.181 8 -13151112.98446  22245349.175    22245359.8744
  24062410.715    13948563.951 8  10871350.38145  24062410.689    24062420.0074
  20495432.750   -23819056.104 9 -18548572.51948  20495432.078    20495439.9324
  23446646.650   -14520344.604 8 -11080742.82546  23446646.274    23446656.5944
  21509734.412   -21957151.692 9 -17085153.34347  21509734.481    21509742.1134
  24605812.993    13036503.373 8  10161407.83445  24605812.480    24605827.4664
 01  4 19 19  3 30.0010000  0  7 24 10 04 05 06 30 09
  21443110.836   -11460168.377 9  -8919801.37247  21443110.523    21443118.9164
  22230422.934   -17007645.674 8 -13212236.90846  22230421.969    22230432.6614
  24081360.122    14048143.332 8  10948944.63745  24081360.042    24081369.4364
  20495820.721   -23817017.269 9 -18546983.83248  20495820.049    20495827.9394
  23434003.467   -14586784.684 8 -11132514.21546  23434003.018    23434013.3534
  21498003.389   -22018798.782 9 -17133190.02747  21498003.422    21498011.0174
  24623562.510    13129776.171 8  10234087.58345  24623561.993    24623577.0734
 01  4 19 19  4  0.0010000  0  7 24 10 04 05 06 30 09
  21453881.817   -11403566.746 9  -8875696.24347  21453881.507    21453889.8724
  22215568.610   -17085705.453 8 -13273062.61747  22215567.593    22215578.2854
  24100315.731    14147755.791 8  11026564.65745  24100315.668    24100325.1774
  20496309.866   -23814446.762 9 -18544980.85948  20496309.230    20496317.0974
  23421368.147   -14653183.088 8 -11184253.12846  23421367.745    23421378.0044
  21486351.598   -22080029.279 9 -17180902.09247  21486351.638    21486359.2144
  24641306.815    13223021.585 8  10306746.00245  24641306.228    24641321.4984
 01  4 19 19  4 30.0010000  0  7 24 10 04 05 06 30 09
  21464709.870   -11346665.300 9  -8831357.48747  21464709.531    21464717.8724
  22200787.850   -17163378.751 8 -13333587.16647  22200786.805    22200797.4314
  24119277.405    14247399.907 8  11104209.34645  24119277.392    24119286.9414
  20496900.494   -23811343.416 9 -18542562.68548  20496899.821    20496907.6214
  23408740.865   -14719538.939 8 -11235958.88546  23408740.576    23408750.7864
  21474779.685   -22140840.459 9 -17228287.41647  21474779.699    21474787.2394
  24659045.360    13316237.306 8  10379381.27345  24659044.817    24659060.2844
 01  4 19 19  5  0.0010000  0  7 24 10 04 05 06 30 09
  21475594.454   -11289466.841 9  -8786787.28647  21475594.125    21475602.3904
  22186080.985   -17240663.283 8 -13393808.78447  22186079.966    22186090.5824
  24138244.760    14347073.421 8  11181876.93245  24138244.711    24138254.3104
  20497592.424   -23807707.468 9 -18539729.49948  20497591.752    20497599.5384
  23396121.831   -14785852.778 8 -11287631.90946  23396121.462    23396131.6094
  21463287.856   -22201230.285 9 -17275344.40947  21463287.865    21463295.4474
  24676777.875    13409420.089 8  10451990.84845  24676777.281    24676792.7184
 01  4 19 19  5 30.0010000  0  7 24 10 04 05 06 30 09
  21486535.001   -11231974.200 9  -8741987.86347  21486534.661    21486542.9084
  22171448.683   -17317556.516 8 -13453725.48947  22171447.676    22171458.1934
  24157217.247    14446773.767 8  11259565.43345  24157217.166    24157226.5784
  20498385.706   -23803538.770 9 -18536481.18148  20498385.053    20498392.8294
  23383510.571   -14852124.707 8 -11339272.28046  23383510.203    23383520.3894
  21451876.554   -22261196.939 9 -17322071.66647  21451876.605    21451884.1524
  24694503.380    13502566.769 8  10524572.29345  24694502.901    24694518.2884
 01  4 19 19  6  0.0010000  0  7 24 10 04 05 06 30 09
  21497531.269   -11174188.582 9  -8696960.13847  21497530.919    21497539.1434
  22156891.597   -17394054.497 8 -13513334.21447  22156890.584    22156901.0104
  24176194.687    14546500.210 8  11337274.27545  24176194.618    24176203.8744
  20499280.704   -23798835.949 9 -18532816.66148  20499280.024    20499287.7324
  23370907.447   -14918353.689 8 -11390879.18846  23370907.178    23370917.3024
  21440546.501   -22320737.358 9 -17368466.79047  21440546.489    21440553.9594
  24712221.458    13595675.375 8  10597124.07145  24712221.055    24712236.6054
 01  4 19 19  6 30.0010000  0  7 24 10 04 05 06 30 09
  21508582.681   -11116112.916 9  -8651706.40747  21508582.358    21508590.5534
  22142410.177   -17470154.499 8 -13572632.84147  22142409.159    22142419.5704
  24195176.518    14646250.403 8  11415001.61345  24195176.508    24195185.7104
  20500277.359   -23793598.705 9 -18528735.71348  20500276.664    20500284.3304
  23358312.691   -14984539.728 8 -11442452.63246  23358312.427    23358322.4744
  21429297.761   -22379849.543 9 -17414528.22547  21429297.776    21429305.2254
  24729931.847    13688743.157 8  10669644.05045  24729931.354    24729947.1494
 01  4 19 19  7  0.0010000  0  7 24 10 04 05 06 30 09
  21519689.072   -11057748.703 9  -8606227.83547  21519688.739    21519696.9544
  22128005.077   -17545853.731 8 -13631619.17947  22128004.032    22128014.3534
  24214162.469    14746022.338 8  11492745.90545  24214162.464    24214171.6584
  20501375.691   -23787826.958 9 -18524238.26748  20501375.013    20501382.6704
  23345726.162   -15050682.892 8 -11493992.66446  23345725.800    23345735.7904
  21418130.924   -22438531.308 9 -17460254.26247  21418130.957    21418138.4034
  24747634.105    13781767.466 8  10742130.13745  24747633.529    24747649.5034
 01  4 19 19  7 30.0010000  0  7 24 10 04 05 06 30 09
  21530849.868   -10999098.671 9  -8560526.54347  21530849.513    21530857.7424
  22113676.788   -17621149.613 8 -13690291.21547  22113675.691    22113685.9254
  24233152.195    14845813.982 8  11570505.55045  24233152.228    24233161.4754
  20502575.848   -23781520.370 9 -18519324.05948  20502575.153    20502582.8284
  23333147.681   -15116783.230 8 -11545499.33246  23333147.279    23333157.2364
  21407046.476   -22496780.569 9 -17505643.27747  21407046.490    21407053.8974
  24765327.410    13874745.112 7  10814579.84845  24765326.901    24765342.8594
 01  4 19 19  8  0.0010000  0  7 24 10 04 05 06 30 09
  21542064.655   -10940164.572 9  -8514603.90447  21542064.309    21542072.6134
  22099425.926   -17696038.153 8 -13748645.84447  22099424.827    22099435.0294
  24252145.484    14945624.105 8  11648279.59145  24252145.569    24252154.9204
  20503877.958   -23774677.915 9 -18513992.29848  20503877.241    20503884.9134
  23320577.283   -15182839.904 8 -11596971.98846  23320576.931    23320586.9364
  21396044.870   -22554594.449 9 -17550693.03947  21396044.877    21396052.2664
  24783011.395    13967674.400 7  10886991.88845  24783010.888    24783026.9394
 01  4 19 19  8 30.0010000  0  7 24 10 04 05 06 30 09
  21553332.951   -10880949.499 9  -8468462.32047  21553332.618    21553340.9024
  22085253.020   -17770516.582 8 -13806680.90247  22085251.958    22085262.1964
  24271141.982    15045450.602 8  11726066.40145  24271141.988    24271151.4124
  20505282.065   -23767299.394 9 -18508242.81948  20505281.349    20505289.0164
  23308015.322   -15248852.968 8 -11648410.65946  23308015.007    23308024.9834
  21385126.352   -22611971.012 9 -17595402.02447  21385126.395    21385133.8854
  24800685.741    14060551.986 7  10959363.63645  24800685.142    24800701.3004
 01  4 19 19  9  0.0010000  0  7 24 10 04 05 06 30 09
  21564654.514   -10821454.704 9  -8422102.76547  21564654.140    21564662.4094
  22071158.724   -17844582.367 8 -13864394.42547  22071157.705    22071167.8644
  24290141.175    15145291.337 8  11803864.29345  24290141.046    24290150.4884
  20506788.186   -23759384.655 9 -18502075.50848  20506787.486    20506795.1954
  23295461.786   -15314822.162 8 -11699815.14546  23295461.438    23295471.3484
  21374291.503   -22668908.085 9 -17639768.55247  21374291.576    21374299.1184
  24818349.564    14153375.091 8  11031692.91445  24818349.144    24818365.2834
 01  4 19 19  9 30.0010000  0  7 24 10 04 05 06 30 09
  21576028.727   -10761682.793 9  -8375527.28247  21576028.346    21576036.7284
  22057143.558   -17918232.514 8 -13921784.07447  22057142.558    22057152.6484
  24309142.693    15245145.170 7  11881672.39845  24309142.590    24309152.1684
  20508396.433   -23750933.183 9 -18495489.97048  20508395.753    20508403.5154
  23282916.715   -15380746.904 8 -11751184.99246  23282916.352    23282926.2514
  21363540.823   -22725403.220 9 -17683790.70847  21363540.908    21363548.4584
  24836002.666    14246141.384 8  11103977.93645  24836002.303    24836018.5864
 01  4 19 19 10  0.0010000  0  7 24 10 04 05 06 30 09
  21587455.208   -10701636.084 9  -8328737.67347  21587454.866    21587463.3144
  22043208.009   -17991463.966 8 -13978847.46947  22043207.016    22043217.1274
  24328146.142    15345009.697 8  11959488.82745  24328146.165    24328156.0014
  20510106.847   -23741944.717 9 -18488485.99448  20510106.169    20510113.9684
  23270380.044   -15446627.460 8 -11802520.42246  23270379.621    23270389.4884
  21352874.682   -22781454.462 9 -17727466.97547  21352874.713    21352882.2664
  24853644.539    14338847.967 8  11176216.40645  24853644.060    24853660.4454
 01  4 19 19 10 30.0010000  0  7 24 10 04 05 06 30 09
  21598933.728   -10641316.058 9  -8281735.08647  21598933.399    21598941.8714
  22029352.725   -18064273.514 8 -14035582.10047  22029351.747    22029361.8594
  24347151.382    15444883.470 8  12037312.47445  24347151.617    24347161.4644
  20511919.601   -23732418.798 9 -18481063.22348  20511918.934    20511926.7174
  23257851.748   -15512463.148 8 -11853820.87546  23257851.365    23257861.2994
  21342293.508   -22837058.837 9 -17770795.03047  21342293.528    21342301.1404
  24871274.506    14431492.603 7  11248406.60345  24871274.114    24871290.4614
 01  4 19 19 11  0.0010000  0  7 24 10 04 05 06 30 09
  21610463.828   -10580724.918 9  -8234521.24547  21610463.467    21610471.9674
  22015578.313   -18136658.192 8 -14091985.66847  22015577.353    22015587.4814
  24366158.340    15544764.971 8  12115142.14645  24366158.440    24366168.3714
  20513834.666   -23722355.111 9 -18473221.40748  20513833.978    20513841.7954
  23245331.955   -15578253.546 8 -11905086.03846  23245331.752    23245341.8214
  21331797.690   -22892214.480 9 -17813773.42447  21331797.754    21331805.4114
  24888892.160    14524072.657 7  11320546.47145  24888891.908    24888908.2984
 01  4 19 19 11 30.0010000  0  7 24 10 04 05 06 30 09
  21622044.880   -10519865.947 9  -8187098.70447  21622044.570    21622053.0784
  22001885.106   -18208616.122 8 -14148056.71547  22001884.173    22001894.2644
  24385166.287    15644651.778 8  12192975.93645  24385166.251    24385176.2174
  20515852.011   -23711753.880 9 -18464960.73648  20515851.322    20515859.1324
  23232821.075   -15643998.972 8 -11956316.17146  23232820.803    23232830.8284
  21321387.598   -22946919.852 9 -17856400.96447  21321387.690    21321395.3394
  24906497.095    14616584.789 7  11392633.40645  24906496.630    24906513.1574
 01  4 19 19 12  0.0010000  0  7 24 10 04 05 06 30 09
  21633676.589   -10458740.932 9  -8139468.85647  21633676.298    21633684.8314
  21988273.740   -18280143.991 9 -14203792.63647  21988272.776    21988282.8664
  24404174.861    15744542.160 7  12270812.53045  24404174.781    24404184.7924
  20517971.713   -23700614.609 9 -18456280.81348  20517971.044    20517978.8844
  23220318.814   -15709699.154 8 -12007511.02646  23220318.488    23220328.4274
  21311063.729   -23001172.501 9 -17898675.73147  21311063.778    21311071.4024
  24924088.794    14709027.094 7  11464665.93945  24924088.302    24924104.8864
 01  4 19 19 12 30.0010000  0  7 24 10 04 05 06 30 09
  21645358.494   -10397351.974 9  -8091633.34047  21645358.220    21645366.8284
  21974744.818   -18351238.883 9 -14259191.17947  21974743.832    21974753.9234
  24423183.743    15844434.375 7  12348650.54145  24423183.701    24423193.6644
  20520193.859   -23688937.221 9 -18447181.57648  20520193.196    20520201.0484
  23207825.072   -15775353.716 8 -12058670.33046  23207824.817    23207834.6184
  21300826.303   -23054970.438 9 -17940596.18547  21300826.355    21300833.9514
  24941666.495    14801396.730 8  11536641.83945  24941666.013    24941682.6754
 01  4 19 19 13  0.0010000  0  7 24 10 04 05 06 30 09
  21657090.414   -10335700.652 9  -8043593.38947  21657090.128    21657098.7094
  21961298.973   -18421897.319 8 -14314249.62347  21961297.990    21961307.9694
  24442192.768    15944327.409 7  12426489.18945  24442192.872    24442202.5664
  20522518.607   -23676720.986 9 -18437662.46048  20522517.916    20522525.7754
  23195340.216   -15840961.725 8 -12109793.37446  23195339.951    23195349.6924
  21290675.985   -23108310.617 9 -17982159.94247  21290676.052    21290683.5784
  24959229.793    14893691.567 7  11608559.44345  24959229.385    24959246.2344
 01  4 19 19 13 30.0010000  0  7 24 10 04 05 06 30 09
  21668871.899   -10273789.098 9  -7995350.65347  21668871.592    21668880.1344
  21947936.601   -18492116.745 8 -14368965.98747  21947935.591    21947945.5224
  24461201.697    16044219.332 8  12504326.97745  24461201.712    24461211.2354
  20524945.892   -23663965.729 9 -18427723.32648  20524945.196    20524953.0224
  23182864.216   -15906523.105 8 -12160880.08446  23182863.918    23182873.6444
  21280613.232   -23161191.054 9 -18023365.45647  21280613.258    21280620.7574
  24976778.502    14985908.933 7  11680416.69745  24976778.106    24976795.0384
 01  4 19 19 14  0.0010000  0  7 24 10 04 05 06 30 09
  21680702.256   -10211620.248 9  -7946907.43047  21680701.922    21680710.4654
  21934658.151   -18561894.830 9 -14423338.44747  21934657.163    21934667.1104
  24480210.058    16144107.977 8  12582162.23445  24480209.933    24480219.5194
  20527475.673   -23650671.878 9 -18417364.51048  20527474.975    20527482.7604
  23170397.190   -15972038.069 8 -12211930.62446  23170396.818    23170406.4574
  21270638.159   -23213610.266 9 -18064211.57647  21270638.203    21270645.6874
  24994311.841    15078045.757 7  11752211.19045  24994311.478    24994328.6494
 01  4 19 19 14 30.0010000  0  7 24 10 04 05 06 30 09
  21692581.309   -10149195.644 9  -7898264.92347  21692580.979    21692589.4864
  21921464.428   -18631227.892 8 -14477364.14347  21921463.447    21921473.3834
  24499217.527    16243992.125 8  12659993.96345  24499217.315    24499227.0544
  20530108.122   -23636838.642 9 -18406585.39748  20530107.402    20530115.1804
  23157939.025   -16037505.623 8 -12262944.22446  23157938.683    23157948.4314
  21260751.418   -23265565.211 9 -18104695.93147  21260751.458    21260758.9564
  25011829.465    15170100.354 7  11823941.59145  25011829.151    25011846.4084
 01  4 19 19 15  0.0010000  0  7 24 10 04 05 06 30 09
  21704508.503   -10086517.935 9  -7849425.18747  21704508.182    21704516.6624
  21908355.871   -18700113.848 9 -14531041.43147  21908354.832    21908364.7844
  24518223.677    16343869.755 8  12737820.62245  24518223.517    24518233.3954
  20532843.041   -23622466.348 9 -18395386.23148  20532842.339    20532850.1744
  23145489.737   -16102925.870 8 -12313920.94846  23145489.521    23145499.3004
  21250953.347   -23317054.341 9 -18144817.31247  21250953.381    21250960.8874
  25029330.777    15262069.578 7  11895605.45645  25029330.504    25029348.0484
 01  4 19 19 15 30.0010000  0  7 24 10 04 05 06 30 09
  21716483.481   -10023589.066 9  -7800389.74747  21716483.142    21716491.6454
  21895332.902   -18768549.564 8 -14584367.89647  21895331.877    21895341.7834
  24537228.335    16443739.317 8  12815641.00245  24537228.170    24537237.9474
  20535680.685   -23607554.696 9 -18383766.79748  20535680.004    20535687.7624
  23133049.826   -16168298.239 8 -12364860.38546  23133049.533    23133059.2304
  21241244.335   -23368075.368 9 -18184573.94247  21241244.363    21241251.8974
  25046815.421    15353950.832 7  11967200.77545  25046815.290    25046832.8854
 01  4 19 19 16  0.0010000  0  7 24 10 04 05 06 30 09
  21728505.827    -9960411.048 9  -7751160.15647  21728505.519    21728514.0514
  21882396.145   -18836532.389 9 -14637341.45847  21882395.143    21882405.0024
  24556231.118    16543599.323 8  12893453.94345  24556230.984    24556240.8864
  20538621.029   -23592103.575 9 -18371726.99048  20538620.299    20538628.0224
  23120618.907   -16233622.424 8 -12415762.25846  23120618.589    23120628.4554
  21231624.871   -23418625.995 9 -18223964.01947  21231624.902    21231632.4084
  25064282.924    15445741.626 7  12038725.62345  25064282.727    25064300.1884
 01  4 19 19 16 30.0010000  0  7 24 10 04 05 06 30 09
  21740575.200    -9896986.252 9  -7701738.27647  21740574.883    21740583.4144
  21869546.118   -18904059.633 9 -14689960.02047  21869545.099    21869554.9834
  24575231.684    16643447.639 8  12971257.76245  24575231.631    24575241.4204
  20541663.881   -23576113.034 9 -18359266.86348  20541663.192    20541670.9514
  23108197.224   -16298898.375 8 -12466626.56246  23108196.939    23108206.7724
  21222095.226   -23468704.433 9 -18262986.16647  21222095.279    21222102.7814
  25081732.652    15537439.417 7  12110177.97145  25081732.557    25081750.1654
 01  4 19 19 17  0.0010000  0  7 24 10 04 05 06 30 09
  21752691.109    -9833317.054 9  -7652125.95847  21752690.785    21752699.2864
  21856783.370   -18971128.367 9 -14742221.31147  21856782.285    21856792.1774
  24594229.765    16743282.837 8  13049051.36745  24594229.669    24594239.4734
  20544809.544   -23559582.951 9 -18346386.31448  20544808.845    20544816.5504
  23095784.812   -16364125.502 8 -12517452.83246  23095784.591    23095794.2634
  21212655.973   -23518308.516 9 -18301638.68647  21212655.994    21212663.4184
  25099164.527    15629041.758 7  12181555.91645  25099164.290    25099182.0464
 01  4 19 19 17 30.0010000  0  7 24 10 04 05 06 30 09
  21764853.049    -9769405.777 9  -7602325.00447  21764852.736    21764861.2714
  21844108.180   -19037736.229 9 -14794123.47447  21844107.129    21844117.0874
  24613224.921    16843103.042 8  13126833.27745  24613224.839    24613234.6894
  20548057.748   -23542513.655 9 -18333085.60048  20548057.026    20548064.7474
  23083381.781   -16429303.839 8 -12568241.07146  23083381.567    23083391.1344
  21203307.228   -23567436.521 9 -18339920.23347  21203307.236    21203314.6294
  25116577.759    15720545.830 7  12252857.30445  25116577.214    25116595.2314
 01  4 19 19 18  0.0010000  0  7 24 10 04 05 06 30 09
  21777060.699    -9705254.061 9  -7552336.69847  21777060.375    21777068.9714
  21831521.311   -19103880.383 9 -14845664.31247  21831520.283    21831530.2034
  24632216.951    16942906.922 8  13204602.46445  24632216.921    24632226.7084
  20551408.530   -23524905.102 9 -18319364.67748  20551407.836    20551415.5584
  23070988.249   -16494432.659 8 -12618990.72446  23070987.938    23070997.4654
  21194049.462   -23616086.075 9 -18377828.96247  21194049.535    21194056.9134
  25133971.566    15811949.146 7  12324080.18145  25133971.133    25133989.0124
 01  4 19 19 18 30.0010000  0  7 24 10 04 05 06 30 09
  21789313.668    -9640864.356 9  -7502162.94047  21789313.402    21789321.9724
  21819023.152   -19169558.330 9 -14896841.88147  21819022.165    21819032.0434
  24651205.600    17042692.453 7  13282357.37345  24651205.496    24651215.3784
  20554861.979   -23506757.398 9 -18305223.64848  20554861.275    20554869.0094
  23058604.049   -16559511.764 8 -12669701.65146  23058603.691    23058613.1714
  21184883.247   -23664255.272 9 -18415363.39147  21184883.260    21184890.5894
  25151345.832    15903249.273 7  12395222.62545  25151345.356    25151363.2444
 01  4 19 19 19  0.0010000  0  7 24 10 04 05 06 30 09
  21801611.720    -9576238.412 9  -7451805.09747  21801611.368    21801619.9144
  21806614.356   -19234766.972 9 -14947653.75447  21806613.396    21806623.2324
  24670190.445    17142458.361 7  13360096.94745  24670190.383    24670200.3544
  20558418.086   -23488070.280 9 -18290662.29348  20558417.364    20558425.1114
  23046229.456   -16624540.485 8 -12720373.32546  23046229.128    23046238.6334
  21175808.879   -23711941.567 9 -18452521.53047  21175808.853    21175816.1774
  25168700.417    15994444.220 7  12466283.10345  25168699.800    25168717.5984
 01  4 19 19 19 30.0010000  0  7 24 10 04 05 06 30 09
  21813954.050    -9511379.379 9  -7401265.63447  21813953.684    21813962.2244
  21794295.210   -19299504.348 9 -14998098.40247  21794294.244    21794304.0794
  24689171.055    17242202.528 7  13437819.60245  24689171.063    24689181.1114
  20562076.617   -23468844.623 9 -18275681.29748  20562075.881    20562083.6814
  23033864.382   -16689519.379 8 -12771006.16346  23033864.058    23033873.5334
  21166826.412   -23759144.184 9 -18489302.78047  21166826.441    21166833.7504
  25186034.165    16085530.447 7  12537258.84145  25186033.511    25186051.3614
 01  4 19 19 20  0.0010000  0  7 24 10 04 05 06 30 09
  21826340.423    -9446288.726 9  -7350545.68547  21826340.069    21826348.5924
  21782066.380   -19363767.308 9 -15048173.37647  21782065.380    21782075.2164
  24708147.369    17341923.800 7  13515524.41745  24708147.366    24708157.5034
  20565837.730   -23449079.905 9 -18260280.25348  20565837.007    20565844.8144
  23021509.006   -16754447.238 8 -12821599.23646  23021508.622    23021518.0424
  21157936.721   -23805860.173 9 -18525704.83947  21157936.735    21157943.9584
  25203346.691    16176506.050 7  12608148.38445  25203346.085    25203364.1324
 01  4 19 19 20 30.0010000  0  7 24 10 04 05 06 30 09
  21838770.526    -9380967.997 9  -7299646.45847  21838770.204    21838778.7444
  21769928.271   -19427552.942 9 -15097876.41647  21769927.293    21769937.1364
  24727119.140    17441620.889 7  13593210.37945  24727119.222    24727129.2664
  20569701.516   -23428775.832 9 -18244458.93448  20569700.782    20569708.5614
  23009163.439   -16819323.275 8 -12872151.93546  23009163.107    23009172.4924
  21149140.007   -23852087.356 9 -18561726.00847  21149139.975    21149147.2274
  25220637.748    16267369.144 8  12678950.23945  25220637.155    25220655.2764
 01  4 19 19 21  0.0010000  0  8 24 10 17 04 05 06 30 09
  21851243.545    -9315421.849 9  -7248571.57947  21851243.219    21851251.7714
  21757881.211   -19490860.739 9 -15147207.10947  21757880.213    21757889.9624
  25327411.225    -4228205.467 7  -3265622.12145  25327410.470    25327429.3954
  24746085.743    17541290.293 7  13670874.76945  24746085.751    24746095.8674
  20573667.478   -23407934.571 9 -18228219.02548  20573666.747    20573674.5804
  22996827.465   -16884149.288 8 -12922665.63946  22996827.148    22996836.5274
  21140436.194   -23897825.760 9 -18597366.31447  21140436.211    21140443.4694
  25237906.471    16358114.825 8  12749660.62245  25237905.870    25237924.0464
 01  4 19 19 21 30.0010000  0  8 24 10 17 04 05 06 30 09
  21863758.686    -9249654.668 9  -7197324.47147  21863758.345    21863766.8664
  21745924.967   -19553691.005 9 -15196165.70747  21745923.951    21745933.6894
  25309725.072    -4321145.789 7  -3338042.89145  25309724.213    25309743.0674
  24765046.104    17640927.198 7  13748513.82845  24765046.125    24765056.1664
  20577735.058   -23386559.286 9 -18211562.99848  20577734.341    20577742.2304
  22984500.481   -16948927.903 8 -12973142.41746  22984500.142    22984509.5494
  21131825.303   -23943076.190 9 -18632626.38647  21131825.342    21131832.6154
  25255151.883    16448737.705 8  12820275.29045  25255151.342    25255169.4604
 01  4 19 19 22  0.0010000  0  8 24 10 17 04 05 06 30 09
  21876316.972    -9183660.467 9  -7145900.45547  21876316.651    21876325.1984
  21734061.587   -19616032.613 9 -15244743.53247  21734060.603    21734070.4204
  25292064.098    -4413953.943 7  -3410360.66345  25292063.420    25292082.1204
  24784001.590    17740539.069 7  13826133.37945  24784001.623    24784011.6914
  20581905.850   -23364641.694 9 -18194484.38848  20581905.124    20581913.0314
  22972184.156   -17013650.019 8 -13023575.16446  22972183.858    22972193.1804
  21123309.240   -23987828.392 9 -18667498.22247  21123309.247    21123316.5474
  25272374.959    16539244.109 8  12890799.21545  25272374.488    25272392.7774
 01  4 19 19 22 30.0010000  0  8 24 10 17 04 05 06 30 09
  21888917.710    -9117443.262 9  -7094302.67347  21888917.398    21888925.9634
  21722291.476   -19677884.616 9 -15292939.84647  21722290.511    21722300.2804
  25274427.945    -4506630.365 7  -3482575.78045  25274427.608    25274445.8804
  24802951.698    17840122.429 7  13903730.71745  24802951.724    24802961.7914
  20586179.565   -23342183.495 9 -18176984.53048  20586178.845    20586186.7434
  22959878.403   -17078316.993 8 -13073964.95146  22959878.097    22959887.3564
  21114887.970   -24032082.082 9 -18701981.61147  21114888.017    21114895.3674
  25289574.939    16629629.765 8  12961229.04245  25289574.601    25289593.2454
 01  4 19 19 23  0.0010000  0  8 24 10 17 04 05 06 30 09
  21901560.343    -9051005.865 9  -7042533.31847  21901560.055    21901568.6574
  21710614.926   -19739245.328 9 -15340753.32547  21710613.935    21710623.6254
  25256817.095    -4599174.959 7  -3554688.18945  25256816.630    25256834.6464
  24821895.929    17939674.852 7  13981303.93845  24821895.840    24821906.1274
  20590555.904   -23319185.915 9 -18159064.37948  20590555.185    20590563.0734
  22947582.986   -17142929.257 8 -13124312.10646  22947582.680    22947591.9714
  21106561.840   -24075835.972 9 -18736075.54947  21106561.911    21106569.2844
  25306751.478    16719891.647 7  13031562.41245  25306751.170    25306770.3614
 01  4 19 19 23 30.0010000  0  8 24 10 17 04 05 06 30 09
  21914244.388    -8984350.814 9  -6990594.35547  21914244.134    21914252.7514
  21699032.142   -19800112.997 9 -15388182.61347  21699031.183    21699040.8024
  25239231.685    -4691587.372 7  -3626697.58745  25239231.104    25239249.1574
  24840833.818    18039194.137 7  14058851.33545  24840833.728    24840844.0614
  20595034.668   -23295650.027 9 -18140724.76248  20595033.955    20595041.7954
  22935297.866   -17207487.080 8 -13174616.84946  22935297.594    22935306.9224
  21098331.074   -24119089.087 9 -18769779.26747  21098331.119    21098338.4854
  25323903.768    16810026.440 7  13101796.76245  25323903.436    25323922.8384
 01  4 19 19 24  0.0010000  0  7 24 10 17 04 05 06 30
  21926969.082    -8917482.309 9  -6938489.07147  21926968.815    21926977.4534
  21687543.395   -19860486.903 9 -15435227.14747  21687542.417    21687552.0154
  25221671.291    -4783868.141 7  -3698604.43145  25221670.651    25221688.5544
  24859764.781    18138677.150 7  14136370.48745  24859764.862    24859775.2044
  20599615.503   -23271577.753 9 -18121967.18348  20599614.763    20599622.5824
  22923023.015   -17271991.806 8 -13224880.21246  22923022.722    22923032.0784
  21090195.624   -24161841.128 9 -18803092.54347  21090195.661    21090202.9904
 01  4 19 19 24 30.0010000  0  7 24 10 17 04 05 06 30
  21939734.325    -8850401.065 9  -6886218.01947  21939734.038    21939742.6274
  21676149.341   -19920363.049 9 -15481883.82247  21676148.305    21676157.8674
  25204136.202    -4876015.041 7  -3770406.89645  25204135.441    25204153.4404
  24878688.900    18238123.547 7  14213861.09345  24878688.902    24878699.1854
  20604298.571   -23246968.058 9 -18102790.83248  20604297.831    20604305.7134
  22910758.615   -17336441.748 8 -13275100.88746  22910758.322    22910767.6974
  21082156.089   -24204089.146 9 -18836013.07247  21082156.107    21082163.4174
 01  4 19 19 25  0.0010000  0  7 24 10 17 04 05 06 30
  21952539.779    -8783108.472 9  -6833782.27447  21952539.453    21952548.0654
  21664850.476   -19979738.484 9 -15528150.34047  21664849.477    21664859.0604
  25186626.792    -4968026.357 7  -3842103.71545  25186625.842    25186644.0784
  24897606.038    18337532.487 7  14291322.52045  24897606.036    24897616.2824
  20609083.942   -23221820.685 9 -18083195.50948  20609083.228    20609091.1374
  22898504.751   -17400835.902 8 -13325278.09846  22898504.495    22898513.8344
  21074213.011   -24245830.413 9 -18868538.73347  21074213.066    21074220.3314
 01  4 19 19 25 30.0010000  0  6 24 10 17 05 06 30
  21965384.766    -8715607.580 9  -6781184.22047  21965384.441    21965393.1554
  21653647.306   -20038611.469 9 -15574025.33047  21653646.243    21653655.8954
  25169143.243    -5059901.641 7  -3913694.57045  25169142.386    25169160.5254
  20613971.528   -23196136.752 9 -18063182.09348  20613970.785    20613978.6884
  22886261.382   -17465174.508 8 -13375412.02246  22886261.181    22886270.4914
  21066366.550   -24287064.117 9 -18900668.88647  21066366.568    21066373.8344
 01  4 19 19 26  0.0010000  0  6 24 10 17 05 06 30
  21978269.143    -8647899.867 9  -6728425.01147  21978268.811    21978277.6084
  21642540.148   -20096979.369 9 -15619506.75447  21642539.142    21642548.8664
  25151685.821    -5151639.726 7  -3985178.50045  25151685.081    25151703.2864
  20618961.098   -23169916.303 9 -18042750.61148  20618960.371    20618968.3164
  22874028.971   -17529456.635 8 -13425501.93146  22874028.650    22874037.9374
  21058617.057   -24327787.886 9 -18932401.68547  21058617.063    21058624.3604
 01  4 19 19 26 30.0010000  0  6 24 10 17 05 06 30
  21991192.420    -8579987.558 9  -6675506.36747  21991192.104    21991200.9644
  21631529.635   -20154839.508 9 -15664592.52247  21631528.654    21631538.4154
  25134254.713    -5243239.246 7  -4056554.45945  25134253.858    25134272.2354
  20624052.721   -23143159.393 9 -18021901.10848  20624052.036    20624060.0444
  22861807.362   -17593681.751 8 -13475547.42646  22861806.991    22861816.2694
  21050965.000   -24367999.600 9 -18963735.48547  21050965.060    21050972.3484
 01  4 19 19 27  0.0010000  0  6 24 10 17 05 06 30
  22004154.415    -8511871.729 9  -6622429.13947  22004154.111    22004163.0834
  21620616.403   -20212188.744 9 -15709280.16747  21620615.459    21620625.1884
  25116850.177    -5334698.520 7  -4127821.13245  25116849.588    25116867.9134
  20629246.593   -23115865.826 9 -18000633.42948  20629245.880    20629253.9464
  22849596.824   -17657848.573 8 -13525547.50746  22849596.454    22849605.6214
  21043410.945   -24407696.975 9 -18994668.50147  21043410.940    21043418.2244
 01  4 19 19 27 30.0010000  0  6 24 10 17 05 06 30
  22017154.588    -8443555.473 9  -6569195.74147  22017154.281    22017163.2704
  21609800.667   -20269025.609 9 -15753568.57147  21609799.697    21609809.4514
  25099472.744    -5426017.276 7  -4198978.31245  25099472.157    25099490.2874
  20634542.292   -23088036.898 9 -17978948.58948  20634541.584    20634549.6604
  22837397.252   -17721957.398 8 -13575502.38746  22837396.879    22837406.0424
  21035954.751   -24446879.070 9 -19025199.99847  21035954.752    21035962.0974
 01  4 19 19 28  0.0010000  0  6 24 10 17 05 06 30
  22030192.437    -8375041.582 9  -6515808.33347  22030192.115    22030201.0274
  21599082.821   -20325348.060 9 -15797456.12947  21599081.837    21599091.6054
  25082121.830    -5517195.089 7  -4270025.66945  25082121.270    25082139.2684
  20639939.677   -23059673.576 9 -17956847.33448  20639938.968    20639947.0834
  22825208.663   -17786008.496 8 -13625412.28846  22825208.297    22825217.4974
  21028596.820   -24485544.525 9 -19055328.91447  21028596.905    21028604.3444
 01  4 19 19 28 30.0010000  0  6 24 10 17 05 06 30
  22043267.585    -8306331.002 9  -6462267.66247  22043267.274    22043276.2184
  21588463.387   -20381153.399 9 -15840940.75347  21588462.409    21588472.1544
  25064798.148    -5608230.048 7  -4340961.72845  25064797.653    25064815.4684
  20645438.798   -23030775.577 9 -17934329.44848  20645438.101    20645446.2164
  22813031.339   -17850000.604 8 -13675276.20346  22813030.957    22813040.2464
  21021337.840   -24523690.650 9 -19085053.16147  21021337.931    21021345.3614
 01  4 19 19 29  0.0010000  0  6 24 10 17 05 06 30
  22056379.691    -8237425.996 9  -6408575.49347  22056379.426    22056388.4154
  21577942.811   -20436439.054 9 -15884020.42047  21577941.822    21577951.5364
  25047501.673    -5699121.245 7  -4411785.76445  25047501.267    25047519.1224
  20651039.588   -23001343.339 9 -17911395.27148  20651038.873    20651047.0014
  22800865.409   -17913932.937 8 -13725093.55946  22800864.990    22800874.2684
  21014178.002   -24561315.791 9 -19114371.44748  21014178.077    21014185.5044
 01  4 19 19 29 30.0010000  0  6 24 10 17 05 06 30
  22069528.497    -8168328.571 9  -6354733.38847  22069528.273    22069537.2534
  21567521.616   -20491202.585 9 -15926693.24147  21567520.636    21567530.2724
  25030233.079    -5789867.603 7  -4482496.94145  25030232.411    25030250.4144
  20656741.891   -22971377.472 9 -17888045.28448  20656741.195    20656749.3114
  22788710.735   -17977804.863 8 -13774863.85746  22788710.444    22788719.7954
  21007117.609   -24598418.405 9 -19143282.57148  21007117.685    21007125.1064
 01  4 19 19 30  0.0010000  0  6 24 10 17 05 06 30
  22082713.460    -8099041.613 9  -6300743.59047  22082713.205    22082722.1824
  21557200.025   -20545442.880 9 -15968958.34247  21557199.002    21557208.6094
  25012992.211    -5880469.050 7  -4553095.21345  25012991.467    25013009.2574
  20662545.560   -22940879.289 9 -17864280.50348  20662544.858    20662552.9684
  22776567.535   -18041616.931 8 -13824587.50046  22776567.361    22776576.7604
  21000156.793   -24634997.762 9 -19171785.96348  21000156.884    21000164.3044
 01  4 19 19 30 30.0010000  0  6 24 10 17 05 06 30
  22095934.102    -8029566.876 9  -6246607.47347  22095933.853    22095942.8554
  21546978.396   -20599157.291 9 -16010813.67547  21546977.438    21546987.0744
  24995778.847    -5970924.200 7  -4623579.47745  24995778.113    24995795.8054
  20668450.461   -22909848.902 9 -17840101.02348  20668449.770    20668457.8914
  22764436.118   -18105368.334 8 -13874263.86546  22764435.899    22764445.2124
  20993296.022   -24671051.453 9 -19199879.74348  20993296.094    20993303.5194
 01  4 19 19 31  0.0010000  0  6 24 10 17 05 06 30
  22109190.134    -7959906.094 9  -6192326.39247  22109189.886    22109198.9324
  21536857.347   -20652343.341 9 -16052257.29247  21536856.395    21536866.0574
  24978593.698    -6061231.776 7  -4693948.74145  24978593.060    24978610.6284
  20674456.562   -22878286.687 9 -17815507.13048  20674455.882    20674463.9774
  22752316.405   -18169058.331 8 -13923892.39146  22752316.089    22752325.3584
  20986535.593   -24706577.804 9 -19227562.61148  20986535.654    20986543.0234
 01  4 19 19 31 30.0010000  0  6 24 10 17 05 06 30
  22122481.266    -7890061.229 9  -6137901.86647  22122481.015    22122490.0624
  21526837.354   -20704998.400 9 -16093287.14147  21526836.392    21526846.0214
  24961436.925    -6151390.697 7  -4764202.19845  24961436.288    24961453.8614
  20680563.903   -22846193.013 9 -17790499.11348  20680563.184    20680571.2894
  22740208.401   -18232686.054 8 -13973472.38346  22740208.072    22740217.4254
  20979875.853   -24741574.801 9 -19254832.98848  20979875.914    20979883.3124
 01  4 19 19 32  0.0010000  0  6 24 10 17 05 06 30
  22135807.010    -7820034.615 9  -6083335.71647  22135806.730    22135815.7284
  21516918.703   -20757120.780 9 -16133901.92247  21516917.768    21516927.3804
  24944308.484    -6241400.321 7  -4834339.31045  24944307.806    24944325.4014
  20686771.998   -22813569.103 9 -17765077.92448  20686771.286    20686779.4224
  22728112.223   -18296251.361 8 -14023003.73946  22728111.946    22728121.3884
  20973317.002   -24776041.529 9 -19281690.17448  20973317.105    20973324.5114
 01  4 19 19 32 30.0010000  0  6 24 10 17 05 06 30
  22149166.954    -7749828.060 9  -6028629.35847  22149166.661    22149175.6284
  21507101.927   -20808708.000 9 -16174099.69547  21507101.014    21507110.6014
  24927208.704    -6331259.429 7  -4904359.10945  24927208.033    24927225.4714
  20693080.996   -22780415.242 9 -17739243.79148  20693080.318    20693088.4274
  22716028.175   -18359753.380 8 -14072485.78446  22716027.861    22716037.2184
  20966859.532   -24809975.880 9 -19308132.51948  20966859.615    20966867.0104
 01  4 19 19 33  0.0010000  0  6 24 10 17 05 06 30
  22162560.659    -7679443.861 9  -5973784.56947  22162560.359    22162569.3224
  21497387.424   -20859758.342 9 -16213879.11747  21497386.469    21497396.0344
  24910137.717    -6420967.448 7  -4974261.19745  24910136.952    24910154.2064
  20699490.623   -22746732.600 9 -17712997.61948  20699489.931    20699498.0404
  22703956.194   -18423192.019 8 -14121918.44046  22703955.869    22703965.1654
  20960503.592   -24843376.718 9 -19334159.13648  20960503.665    20960511.1084
 01  4 19 19 33 30.0010000  0  6 24 10 17 05 06 30
  22175987.824    -7608883.796 9  -5918802.75147  22175987.513    22175996.4794
  21487775.355   -20910269.427 9 -16253238.34647  21487774.414    21487784.0084
  24893095.710    -6510523.142 7  -5044044.57645  24893094.869    24893112.1384
  20706000.749   -22712521.581 9 -17686339.72548  20706000.065    20706008.2274
  22691896.305   -18486566.372 8 -14171300.99646  22691896.018    22691905.4304
  20954249.560   -24876241.848 9 -19359768.32348  20954249.645    20954257.0654
 01  4 19 19 34  0.0010000  0  6 24 10 17 05 06 30
  22189448.117    -7538149.467 9  -5863685.13847  22189447.815    22189456.8394
  21478266.391   -20960238.655 9 -16292175.35247  21478265.506    21478275.0904
  24876082.887    -6599924.990 7  -5113708.08745  24876082.207    24876099.2654
  20712611.373   -22677782.266 9 -17659270.17048  20712610.708    20712618.9064
  22679848.831   -18549875.443 8 -14220632.68146  22679848.628    22679858.0664
  20948097.810   -24908569.514 9 -19384958.70548  20948097.904    20948105.3104
 01  4 19 19 34 30.0010000  0  6 24 10 17 05 06 30
  22202941.130    -7467243.048 9  -5808433.44247  22202940.894    22202949.9064
  21468861.109   -21009664.017 9 -16330688.57047  21468860.197    21468869.7084
  24859099.379    -6689172.363 7  -5183251.21545  24859098.705    24859115.8404
  20719322.439   -22642515.424 9 -17631789.56048  20719321.782    20719330.0274
  22667814.080   -18613118.689 8 -14269913.08746  22667813.849    22667823.1564
  20942048.660   -24940358.185 9 -19409729.09548  20942048.731    20942056.1394
 01  4 19 19 35  0.0010000  0  6 24 10 17 05 06 30
  22216466.574    -7396166.583 9  -5753049.23247  22216466.330    22216475.3334
  21459559.650   -21058543.863 9 -16368776.71447  21459558.697    21459568.0944
  24842145.453    -6778264.339 7  -5252673.25845  24842144.782    24842161.7704
  20726133.713   -22606722.100 9 -17603898.69948  20726133.056    20726141.3584
  22655791.895   -18676295.847 8 -14319141.99246  22655791.632    22655800.7974
  20936102.223   -24971606.784 9 -19434078.64548  20936102.298    20936109.7464
 01  4 19 19 35 30.0010000  0  6 24 10 17 05 06 30
  22230024.024    -7324922.061 9  -5697534.07147  22230023.775    22230032.7884
  21450362.289   -21106875.663 9 -16406437.80347  21450361.374    21450370.8104
  24825221.142    -6867200.060 7  -5321973.53745  24825220.558    24825237.5394
  20733045.093   -22570402.968 9 -17575598.12348  20733044.432    20733052.7724
  22643782.368   -18739406.204 8 -14368318.82346  22643782.146    22643791.2204
  20930258.833   -25002313.828 9 -19458006.19848  20930258.903    20930266.4214
 01  4 19 19 36  0.0010000  0  6 24 10 17 05 06 30
  22243613.141    -7253511.010 9  -5641889.13947  22243612.877    22243621.9244
  21441269.660   -21154657.213 9 -16443670.12647  21441268.789    21441278.2434
  24808326.882    -6955978.179 7  -5391151.01445  24808326.374    24808343.3814
  20740056.386   -22533558.361 9 -17546888.08448  20740055.728    20740064.1344
  22631785.746   -18802448.681 8 -14417442.77746  22631785.531    22631794.5894
  20924518.931   -25032477.008 9 -19481509.96848  20924519.017    20924526.5514
 01  4 19 19 36 30.0010000  0  6 24 10 17 05 06 30
  22257233.457    -7181935.971 9  -5586116.43947  22257233.158    22257242.2254
  21432282.095   -21201887.320 9 -16480472.75347  21432281.180    21432290.6074
  24791462.778    -7044598.474 7  -5460205.51145  24791462.168    24791479.2494
  20747167.381   -22496189.957 9 -17517769.88748  20747166.735    20747175.1204
  22619802.069   -18865423.305 8 -14466513.86046  22619801.837    22619810.9134
  20918882.638   -25062095.799 9 -19504589.53748  20918882.729    20918890.2864
 01  4 19 19 37  0.0010000  0  6 24 10 17 05 06 30
  22270884.502    -7110199.493 9  -5530217.93747  22270884.208    22270893.2384
  21423399.787   -21248564.582 9 -16516844.58647  21423398.840    21423408.1974
  24774628.913    -7133060.693 7  -5529136.83845  24774628.502    24774645.1414
  20754377.876   -22458299.119 9 -17488244.61148  20754377.213    20754385.5684
  22607831.323   -18928330.255 8 -14515532.21646  22607831.025    22607840.1044
  20913350.046   -25091169.528 9 -19527244.38448  20913350.149    20913357.7494
 01  4 19 19 37 30.0010000  0  6 24 10 17 05 06 30
  22284565.918    -7038302.907 9  -5474194.66547  22284565.666    22284574.7044
  21414623.268   -21294685.639 9 -16552783.00947  21414622.286    21414631.5844
  24757825.506    -7221362.555 7  -5597943.22945  24757824.945    24757841.5224
  20761687.823   -22419885.480 9 -17458311.94948  20761687.153    20761695.4894
  22595873.666   -18991167.639 8 -14564496.35946  22595873.393    22595882.5314
  20907921.816   -25119695.139 9 -19549472.12648  20907921.937    20907929.5084
 01  4 19 19 38  0.0010000  0  6 24 10 17 05 06 30
  22298277.647    -6966247.656 9  -5418047.77047  22298277.404    22298286.4524
  21405952.816   -21340248.832 9 -16588286.74547  21405951.848    21405961.1544
  24741052.710    -7309503.394 7  -5666624.15445  24741052.106    24741068.3114
  20769097.058   -22380949.852 9 -17427972.54548  20769096.394    20769104.6944
  22583929.441   -19053934.829 8 -14613405.81146  22583929.191    22583938.3034
  20902598.194   -25147671.493 9 -19571271.87748  20902598.252    20902605.7654
 01  4 19 19 38 30.0010000  0  6 24 10 17 05 06 30
  22312019.090    -6894036.251 9  -5361779.19147  22312018.821    22312027.8704
  21397388.843   -21385252.415 9 -16623354.41647  21397387.897    21397397.1984
  24724310.513    -7397482.632 7  -5735179.14145  24724309.997    24724326.1364
  20776605.394   -22341493.623 9 -17397227.48148  20776604.736    20776613.0134
  22571998.740   -19116631.308 8 -14662260.15547  22571998.471    22572007.5414
  20897379.154   -25175097.445 9 -19592642.74448  20897379.226    20897386.8084
 01  4 19 19 39  0.0010000  0  6 24 10 17 05 06 30
  22325789.944    -6821670.111 8  -5305390.03647  22325789.687    22325798.7584
  21388931.773   -21429694.126 9 -16657984.25747  21388930.832    21388940.1514
  24707599.386    -7485299.013 7  -5803607.23445  24707598.846    24707615.1474
  20784212.693   -22301517.304 9 -17366077.15248  20784211.999    20784220.2574
  22560081.536   -19179256.394 8 -14711058.86447  22560081.271    22560090.3394
  20892265.134   -25201971.356 9 -19613583.45448  20892265.256    20892272.7924
 01  4 19 19 39 30.0010000  0  6 24 10 17 05 06 30
  22339589.785    -6749151.571 8  -5248882.13447  22339589.494    22339598.6754
  21380581.969   -21473571.883 9 -16692174.65847  21380581.042    21380590.4434
  24690919.313    -7572951.362 8  -5871907.53745  24690918.853    24690935.3864
  20791918.725   -22261021.862 9 -17334522.31148  20791918.045    20791926.3414
  22548178.015   -19241809.091 8 -14759801.17646  22548177.772    22548186.8974
  20887256.573   -25228291.721 9 -19634092.83048  20887256.663    20887264.2354
 01  4 19 19 40  0.0010000  0  6 24 10 17 05 06 30
  22353418.256    -6676482.398 8  -5192256.85747  22353417.991    22353427.2144
  21372339.860   -21516884.212 9 -16725924.46747  21372338.928    21372348.3904
  24674270.766    -7660439.181 7  -5940079.61445  24674270.338    24674286.9264
  20799723.326   -22220008.403 9 -17302563.82748  20799722.661    20799731.0094
  22536288.360   -19304288.980 8 -14808486.76246  22536288.153    22536297.2934
  20882353.496   -25254057.155 9 -19654169.79148  20882353.617    20882361.2234
 01  4 19 19 40 30.0010000  0  6 24 10 17 05 06 30
  22367274.984    -6603665.144 8  -5135516.18547  22367274.658    22367283.9174
  21364205.591   -21559629.786 9 -16759232.64847  21364204.639    21364214.1154
  24657653.596    -7747762.112 7  -6008123.20745  24657653.053    24657669.8134
  20807626.294   -22178478.291 9 -17270202.74948  20807625.630    20807633.9654
  22524412.637   -19366695.921 8 -14857115.48647  22524412.464    22524421.6164
  20877556.191   -25279267.239 9 -19673814.01048  20877556.318    20877563.9074
 01  4 19 19 41  0.0010000  0  6 24 10 17 05 06 30
  22381159.671    -6530700.677 9  -5078660.80947  22381159.366    22381168.6254
  21356179.611   -21601806.262 9 -16792097.38647  21356178.725    21356188.0784
  24641068.095    -7834918.702 7  -6076037.17945  24641067.564    24641084.1804
  20815627.463   -22136431.848 9 -17237439.34148  20815626.821    20815635.1934
  22512551.093   -19429028.556 8 -14905686.31847  22512550.895    22512560.0834
  20872864.961   -25303919.876 9 -19693023.86148  20872865.086    20872872.6774
 01  4 19 19 41 30.0010000  0  6 24 10 17 05 06 30
  22395071.940    -6457591.615 9  -5021692.75947  22395071.664    22395080.8214
  21348262.226   -21643412.440 9 -16824517.72747  21348261.316    21348270.6374
  24624514.331    -7921908.471 7  -6143821.16445  24624513.724    24624530.3084
  20823726.621   -22093870.711 9 -17204274.87248  20823725.964    20823734.3384
  22500703.782   -19491286.756 8 -14954199.15947  22500703.527    22500712.7144
  20868279.957   -25328014.339 9 -19711798.76648  20868280.080    20868287.6114
 01  4 19 19 42  0.0010000  0  6 24 10 17 05 06 30
  22409011.454    -6384339.804 9  -4964613.47947  22409011.114    22409020.2354
  21340453.715   -21684446.387 9 -16856492.18347  21340452.802    21340462.1284
  24607992.377    -8008730.746 8  -6211474.63945  24607991.742    24608008.2114
  20831923.519   -22050795.926 9 -17170710.15948  20831922.850    20831931.1974
  22488870.724   -19553469.858 8 -15002653.46747  22488870.439    22488879.6554
  20863801.448   -25351549.330 9 -19730137.72348  20863801.561    20863809.0154
 01  4 19 19 42 30.0010000  0  6 24 10 17 05 06 30
  22422977.664    -6310946.827 9  -4907424.20247  22422977.376    22422986.4934
  21332754.528   -21724905.911 9 -16888019.04147  21332753.592    21332762.8944
  24591502.684    -8095384.136 8  -6278996.52045  24591502.018    24591518.4134
  20840218.093   -22007207.948 9 -17136745.55648  20840217.418    20840225.7604
  22477052.127   -19615576.516 8 -15051048.21447  22477051.891    22477061.0454
  20859429.688   -25374523.109 9 -19748039.37248  20859429.777    20859437.2704
 01  4 19 19 43  0.0010000  0  6 24 10 17 05 06 30
  22436970.378    -6237414.623 9  -4850126.43547  22436970.129    22436979.2584
  21325164.893   -21764789.747 9 -16919097.32847  21325163.906    21325173.1984
  24575045.271    -8181868.046 8  -6346386.31545  24575044.651    24575060.9274
  20848610.098   -21963108.159 9 -17102382.14448  20848609.418    20848617.7834
  22465248.238   -19677606.199 8 -15099382.97847  22465248.022    22465257.1424
  20855164.840   -25396934.821 9 -19765503.04248  20855164.960    20855172.4894
 01  4 19 19 43 30.0010000  0  6 24 10 17 05 06 30
  22450989.272    -6163745.173 9  -4792721.72547  22450989.004    22450998.1734
  21317685.053   -21804096.130 9 -16949725.66247  21317684.084    21317693.3634
  24558620.141    -8268181.750 8  -6413643.48745  24558619.552    24558635.7844
  20857099.214   -21918497.775 9 -17067620.86548  20857098.551    20857106.9564
  22453459.180   -19739558.328 8 -15147657.30647  22453458.934    22453467.9924
  20851007.230   -25418783.310 9 -19782527.84348  20851007.348    20851014.8574
 01  4 19 19 44  0.0010000  0  6 24 10 17 05 06 30
  22465033.915    -6089940.344 9  -4735211.52347  22465033.651    22465042.8374
  21310315.540   -21842823.021 9 -16979902.42047  21310314.556    21310323.8434
  24542227.585    -8354324.248 8  -6480767.23945  24542226.940    24542243.1034
  20865685.308   -21873377.719 9 -17032462.43848  20865684.647    20865693.0454
  22441684.995   -19801432.014 8 -15195870.50947  22441684.745    22441693.8004
  20846957.016   -25440067.181 9 -19799112.68348  20846957.132    20846964.6404
 01  4 19 19 44 30.0010000  0  6 24 10 17 05 06 30
  22479103.944    -6016002.048 8  -4677597.32647  22479103.690    22479112.9004
  21303056.620   -21880968.797 9 -17009626.37447  21303055.672    21303064.9564
  24525867.776    -8440294.548 7  -6547756.81245  24525867.176    24525883.1154
  20874368.188   -21827748.754 9 -16996907.45948  20874367.556    20874376.0054
  22429925.894   -19863226.350 8 -15244021.88047  22429925.606    22429934.6894
  20843014.565   -25460785.106 9 -19815256.52248  20843014.651    20843022.1384
 01  4 19 19 45  0.0010000  0  6 24 10 17 05 06 30
  22493199.133    -5941931.675 8  -4619880.22447  22493198.862    22493208.0854
  21295908.590   -21918531.999 9 -17038896.38047  21295907.630    21295916.8984
  24509540.842    -8526091.679 8  -6614611.44545  24509540.358    24509556.2284
  20883147.668   -21781612.217 9 -16960956.96948  20883147.048    20883155.5824
  22418182.108   -19924940.634 8 -15292110.87847  22418181.776    22418190.8004
  20839179.968   -25480935.949 9 -19830958.48148  20839180.076    20839187.6124
 01  4 19 19 45 30.0010000  0  6 24 10 17 05 06 30
  22507319.145    -5867730.707 8  -4562061.34847  22507318.887    22507328.1454
  21288871.718   -21955510.624 9 -17067710.86747  21288870.792    21288880.0204
  24493247.084    -8611714.984 7  -6681330.63145  24493246.579    24493262.2494
  20892023.571   -21734969.069 9 -16924611.71848  20892022.963    20892031.5174
  22406453.617   -19986573.841 8 -15340136.69547  22406453.305    22406462.2574
  20835453.606   -25500518.231 9 -19846217.40748  20835453.725    20835461.2894
 01  4 19 19 46  0.0010000  0  6 24 10 17 05 06 30
  22521463.587    -5793401.808 8  -4504142.78647  22521463.275    22521472.5014
  21281946.265   -21991903.923 9 -17096069.25247  21281945.366    21281954.5224
  24476986.419    -8697164.101 7  -6747914.07445  24476985.906    24477001.6294
  20900995.633   -21687820.994 9 -16887873.02148  20900995.002    20901003.5314
  22394740.601   -20048125.714 8 -15388099.14147  22394740.344    22394749.2664
  20831835.555   -25519531.578 9 -19861033.00548  20831835.640    20831843.1704
 01  4 19 19 46 30.0010000  0  6 24 10 17 05 06 30
  22535632.121    -5718946.007 8  -4446125.34347  22535631.767    22535641.0424
  21275132.786   -22027709.302 9 -17123969.50647  21275131.843    21275140.9824
  24460759.160    -8782437.177 7  -6814360.34545  24460758.750    24460774.3854
  20910063.695   -21640168.258 9 -16850741.08248  20910063.074    20910071.5824
  22383043.413   -20109594.634 8 -15435996.94847  22383043.132    22383052.1214
  20828326.108   -25537973.962 9 -19875403.70148  20828326.180    20828333.6634
 01  4 19 19 47  0.0010000  0  6 24 10 17 05 06 30
  22549824.163    -5644365.596 8  -4388010.79147  22549823.882    22549833.2354
  21268431.265   -22062925.889 9 -17151410.96247  21268430.302    21268439.4634
  24444565.669    -8867534.489 7  -6880669.65845  24444565.130    24444580.6054
  20919227.452   -21592013.072 9 -16813217.62448  20919226.791    20919235.2654
  22371362.047   -20170980.685 8 -15483830.17947  22371361.719    22371370.6864
  20824925.311   -25555845.229 9 -19889329.37448  20824925.374    20824932.8474
 01  4 19 19 47 30.0010000  0  6 24 10 17 05 06 30
  22564039.637    -5569662.592 8  -4329800.72147  22564039.390    22564048.8144
  21261841.946   -22097552.444 9 -17178392.65847  21261841.024    21261850.1844
  24428405.594    -8952455.284 7  -6946841.44645  24428405.108    24428420.5484
  20928486.523   -21543356.704 9 -16775303.63948  20928485.880    20928494.3654
  22359696.559   -20232283.020 8 -15531598.17547  22359696.224    22359705.1564
  20821633.309   -25573144.563 9 -19902809.38548  20821633.413    20821640.9044
 01  4 19 19 48  0.0010000  0  6 24 10 17 05 06 30
  22578278.334    -5494838.613 8  -4271496.39047  22578278.033    22578287.4394
  21255365.313   -22131587.303 9 -17204913.30147  21255364.417    21255373.5534
  24412279.255    -9037198.370 7  -7012874.75345  24412278.662    24412294.2634
  20937840.830   -21494199.979 9 -16736999.76248  20937840.165    20937848.5934
  22348047.119   -20293500.415 8 -15579299.98847  22348046.859    22348055.7644
  20818450.524   -25589870.562 9 -19915842.63948  20818450.617    20818458.0914
 01  4 19 19 48 30.0010000  0  6 24 10 17 05 06 30
  22592539.704    -5419895.534 8  -4213099.24947  22592539.360    22592548.6644
  21249001.451   -22165029.181 9 -17230971.87247  21249000.573    21249009.7434
  24396186.829    -9121763.339 7  -7078769.26545  24396186.312    24396201.8154
  20947290.000   -21444544.390 9 -16698307.16948  20947289.353    20947297.7734
  22336413.967   -20354632.413 8 -15626935.25747  22336413.773    22336422.6874
  20815376.967   -25606022.251 9 -19928428.38548  20815377.054    20815384.5144
 01  4 19 19 49  0.0010000  0  6 24 10 17 05 06 30
  22606823.275    -5344834.838 8  -4154610.45446  22606822.952    22606832.2244
  21242750.901   -22197876.187 9 -17256566.91147  21242749.970    21242759.1324
  24380128.611    -9206148.868 8  -7144523.96945  24380128.039    24380143.6024
  20956833.949   -21394390.853 9 -16659226.55648  20956833.306    20956841.7614
  22324797.453   -20415677.500 8 -15674502.80747  22324797.254    22324806.1314
  20812412.962   -25621598.378 9 -19940565.63848  20812413.016    20812420.4634
 01  4 19 19 49 30.0010000  0  6 24 10 17 05 06 30
  22621128.774    -5269658.968 8  -4096031.92446  22621128.499    22621137.7774
  21236613.619   -22230127.916 9 -17281698.10447  21236612.679    21236621.7764
  24364104.555    -9290355.228 8  -7210139.07845  24364103.962    24364119.4014
  20966472.250   -21343741.470 9 -16619759.56948  20966471.604    20966480.1104
  22313197.539   -20476635.821 8 -15722002.75247  22313197.235    22313206.0784
  20809558.411   -25636598.955 9 -19952254.41348  20809558.492    20809565.9734
 01  4 19 19 50  0.0010000  0  6 24 10 17 05 06 30
  22635455.941    -5194369.375 8  -4037364.76046  22635455.670    22635464.9404
  21230589.970   -22261782.518 9 -17306363.99247  21230588.999    21230598.1044
  24348114.864    -9374381.213 8  -7275613.61945  24348114.212    24348129.4574
  20976204.682   -21292597.550 9 -16579907.22548  20976204.046    20976212.5794
  22301614.150   -20537506.443 8 -15769434.35147  22301613.844    22301622.6964
  20806813.703   -25651022.698 9 -19963493.69848  20806813.763    20806821.2754
 01  4 19 19 50 30.0010000  0  6 24 10 17 05 06 30
  22649804.540    -5118967.337 8  -3978609.98246  22649804.277    22649813.5864
  21224680.315   -22292838.271 9 -17330563.25247  21224679.290    21224688.3644
  24332159.422    -9458225.696 8  -7340946.77745  24332158.877    24332173.9344
  20986031.144   -21240959.721 9 -16539670.02648  20986030.443    20986038.9744
  22290047.783   -20598287.835 8 -15816796.43447  22290047.522    22290056.2724
  20804179.000   -25664868.032 9 -19974282.28748  20804179.076    20804186.5614
 01  4 19 19 51  0.0010000  0  6 24 10 17 05 06 30
  22664174.157    -5043454.650 8  -3919768.99546  22664173.849    22664183.2624
  21218884.774   -22323293.684 9 -17354294.70747  21218883.753    21218892.7794
  24316238.819    -9541887.739 8  -7406137.76345  24316238.259    24316253.4674
  20995951.221   -21188829.244 9 -16499048.94648  20995950.566    20995959.1774
  22278498.633   -20658979.063 8 -15864088.25247  22278498.367    22278507.0694
  20801654.609   -25678133.986 9 -19984619.40748  20801654.684    20801662.1674
 01  4 19 19 51 30.0010000  0  6 24 10 17 05 06 30
  22678564.540    -4967832.949 8  -3860843.05946  22678564.207    22678573.6614
  21213203.680   -22353147.574 9 -17377557.44847  21213202.725    21213211.7424
  24300352.925    -9625367.005 8  -7471186.35245  24300352.467    24300367.6484
  21005964.802   -21136207.830 9 -16458045.31948  21005964.143    21005972.7374
  22266966.729   -20719579.500 8 -15911309.33247  22266966.480    22266975.1694
  20799240.533   -25690820.042 9 -19994504.65948  20799240.625    20799248.1164
 01  4 19 19 52  0.0010000  0  6 24 10 17 05 06 30
  22692975.227    -4892104.535 8  -3801833.95946  22692974.940    22692984.3664
  21207637.239   -22382399.065 9 -17400350.78247  21207636.279    21207645.3684
  24284502.096    -9708662.850 8  -7536092.03745  24284501.740    24284516.6194
  21016071.506   -21083097.091 9 -16416660.39948  21016070.827    21016079.4284
  22255452.203   -20780088.609 8 -15958459.23547  22255451.921    22255460.6534
  20796936.960   -25702925.488 9 -20003937.48348  20796937.030    20796944.4924
 01  4 19 19 52 30.0010000  0  6 24 10 17 05 06 30
  22707405.908    -4816270.997 8  -3742742.95246  22707405.650    22707415.0334
  21202185.581   -22411047.137 9 -17422673.93347  21202184.673    21202193.8444
  24268686.368    -9791774.486 8  -7600854.16645  24268685.928    24268700.7794
  21026271.022   -21029498.336 9 -16374895.20548  21026270.366    21026279.0054
  22243955.314   -20840505.241 8 -16005537.08847  22243955.010    22243963.6924
  20794744.010   -25714449.392 9 -20012917.16148  20794744.088    20794751.5754
 01  4 19 19 53  0.0010000  0  6 24 10 17 05 06 30
  22721856.167    -4740334.829 8  -3683571.97146  22721855.886    22721865.2664
  21196848.976   -22439091.299 9 -17444526.50547  21196848.057    21196857.1704
  24252905.749    -9874702.353 8  -7665473.11645  24252905.183    24252919.8694
  21036563.012   -20975413.995 9 -16332751.63248  21036562.351    21036570.9644
  22232475.930   -20900829.526 8 -16052542.98647  22232475.628    22232484.2884
  20792661.664   -25725392.148 9 -20021443.99748  20792661.770    20792669.2654
 01  4 19 19 53 30.0010000  0  6 24 10 17 05 06 30
  22736325.775    -4664296.970 8  -3624321.75446  22736325.469    22736334.9184
  21191627.720   -22466529.369 9 -17465906.80147  21191626.732    21191635.8394
  24237160.345    -9957444.857 8  -7729947.63445  24237159.783    24237174.2344
  21046947.301   -20920844.701 9 -16290230.17448  21046946.632    21046955.2124
  22221014.493   -20961059.720 8 -16099475.55747  22221014.202    22221022.9114
  20790690.302   -25735752.161 9 -20029516.74748  20790690.384    20790697.8334
 01  4 19 19 54  0.0010000  0  6 24 10 17 05 06 30
  22750814.468    -4588158.679 8  -3564993.28546  22750814.139    22750823.6104
  21186522.000   -22493360.161 9 -17486813.88947  21186521.017    21186530.1354
  24221450.346   -10040001.018 8  -7794276.97445  24221449.690    24221464.2244
  21057423.619   -20865791.534 9 -16247331.67948  21057422.969    21057431.5844
  22209571.265   -21021194.584 8 -16146333.85447  22209570.894    22209579.6374
  20788829.975   -25745528.449 9 -20037134.64848  20788830.052    20788837.4984
 01  4 19 19 54 30.0010000  0  6 24 10 17 05 06 30
  22765321.873    -4511922.110 8  -3505588.23446  22765321.526    22765331.0124
  21181532.069   -22519582.580 9 -17507246.92547  21181531.091    21181540.1314
  24205775.956   -10122370.181 8  -7858460.61645  24205775.241    24205789.6534
  21067991.714   -20810256.112 9 -16204057.39848  21067991.073    21067999.7304
  22198146.231   -21081233.216 8 -16193117.16447  22198145.874    22198154.6224
  20787080.860   -25754720.062 9 -20044296.95748  20787080.933    20787088.4024
 01  4 19 19 55  0.0010000  0  6 24 10 17 05 06 30
  22779847.738    -4435588.220 8  -3446107.34246  22779847.460    22779856.8494
  21176658.067   -22545195.606 9 -17527205.08947  21176657.065    21176666.0884
  24190137.242   -10204551.661 8  -7922497.99345  24190136.527    24190150.8814
  21078651.294   -20754240.019 9 -16160408.56248  21078650.644    21078659.3224
  22186739.623   -21141174.883 8 -16239824.91947  22186739.310    22186748.0374
  20785443.129   -25763326.552 9 -20051003.32348  20785443.197    20785450.6534
 01  4 19 19 55 30.0010000  0  6 24 10 17 05 06 30
  22794391.787    -4359159.394 8  -3386552.47446  22794391.471    22794400.8084
  21171900.215   -22570198.095 9 -17546687.52147  21171899.229    21171908.2294
  24174534.317   -10286544.884 8  -7986388.69745  24174533.588    24174547.8774
  21089402.122   -20697744.671 9 -16116386.28448  21089401.441    21089410.0894
  22175351.737   -21201018.514 8 -16286456.28347  22175351.414    22175360.1474
  20783916.854   -25771347.304 9 -20057253.27748  20783916.934    20783924.3634
 01  4 19 19 56  0.0010000  0  6 24 10 17 05 06 30
  22808953.506    -4282637.616 8  -3326925.18146  22808953.150    22808962.4544
  21167258.676   -22594589.471 9 -17565693.75847  21167257.693    21167266.7054
  24158967.328   -10368349.585 8  -8050132.50845  24158966.616    24158980.8694
  21100243.725   -20640771.936 9 -16071992.01948  21100243.016    21100251.7214
  22163982.570   -21260763.550 8 -16333010.80647  22163982.245    22163991.0354
  20782502.072   -25778781.841 9 -20063046.43548  20782502.153    20782509.6274
 01  4 19 19 56 30.0010000  0  6 24 10 17 05 06 30
  22823532.737    -4206023.454 8  -3267225.89446  22823532.437    22823541.8054
  21162733.772   -22618367.782 9 -17584222.28847  21162732.825    21162741.7864
  24143436.381   -10449964.510 8  -8113728.42945  24143435.698    24143449.9104
  21111175.861   -20583323.079 9 -16027226.74547  21111175.187    21111183.9604
  22152632.416   -21320408.427 9 -16379487.29647  22152632.142    22152640.9344
  20781199.099   -25785628.984 9 -20068381.88348  20781199.175    20781206.6904
 01  4 19 19 57  0.0010000  0  6 24 10 17 05 06 30
  22838129.237    -4129318.516 8  -3207455.86646  22838128.942    22838138.4024
  21158325.741   -22641532.193 9 -17602272.45647  21158324.767    21158333.6314
  24127941.595   -10531388.895 8  -8177175.91145  24127940.964    24127955.1304
  21122198.469   -20525399.361 9 -15982091.45547  21122197.777    21122206.5594
  22141301.600   -21379951.995 9 -16425884.83647  22141301.306    22141310.1294
  20780008.018   -25791888.271 9 -20073259.27148  20780008.110    20780015.5924
 01  4 19 19 57 30.0010000  0  6 24 10 17 05 06 30
  22852742.548    -4052525.319 8  -3147617.07646  22852742.226    22852751.6904
  21154034.559   -22664082.149 9 -17619843.82147  21154033.597    21154042.5654
  24112483.383   -10612622.464 8  -8240474.69045  24112482.626    24112496.6994
  21133311.006   -20467002.765 9 -15936587.68947  21133310.303    21133319.1174
  22129990.120   -21439393.886 9 -16472203.15247  22129989.857    22129998.6294
  20778928.884   -25797559.516 9 -20077678.44148  20778928.937    20778936.4054
 01  4 19 19 58  0.0010000  0  6 24 10 17 05 06 30
  22867372.166    -3975645.811 8  -3087711.02546  22867371.908    22867381.4114
  21149860.397   -22686017.277 9 -17636936.10047  21149859.477    21149868.5174
  24097061.392   -10693665.069 8  -8303624.66745  24097060.612    24097074.8174
  21144513.082   -20408135.572 9 -15890717.21747  21144512.409    21144521.2334
  22118698.141   -21498733.445 9 -16518441.71547  22118697.894    22118706.6614
  20777961.620   -25802642.363 9 -20081639.11748  20777961.676    20777969.2394
 01  4 19 19 58 30.0010000  0  6 24 10 17 05 06 30
  22882018.126    -3898680.250 8  -3027737.93046  22882017.919    22882027.4604
  21145803.635   -22707335.991 9 -17653548.05847  21145802.675    21145811.6514
  24081675.897   -10774515.288 8  -8366624.72445  24081675.213    24081689.5064
  21155804.583   -20348798.426 9 -15844480.55247  21155803.912    21155812.7814
  22107426.008   -21557968.852 9 -16564599.12447  22107425.738    22107434.5034
  20777106.579   -25807135.573 9 -20085140.33748  20777106.648    20777114.2434
 01  4 19 19 59  0.0010000  0  6 24 10 17 05 06 30
  22896680.228    -3821630.771 8  -2967699.43946  22896679.988    22896689.5474
  21141864.250   -22728037.293 9 -17669678.92947  21141863.293    21141872.2644
  24066327.186   -10855172.454 8  -8429474.34345  24066326.619    24066340.9334
  21167185.222   -20288993.089 9 -15797879.06847  21167184.543    21167193.4694
  22096173.881   -21617099.081 9 -16610674.58447  22096173.627    22096182.3524
  20776363.822   -25811038.926 9 -20088181.93048  20776363.883    20776371.4564
 01  4 19 19 59 30.0010000  0  6 24 10 17 05 06 30
  22911360.914    -3744483.695 8  -2907584.90246  22911360.655    22911370.1904
  21138045.354   -22748105.302 9 -17685316.32047  21138044.446    21138053.4214
  24051018.160   -10935621.324 8  -8492161.66445  24051017.627    24051031.8684
  21178657.481   -20228706.295 9 -15750902.42847  21178656.791    21178665.7804
  22084944.736   -21676108.421 9 -16656655.83647  22084944.491    22084953.2744
  20775736.216   -25814336.810 9 -20090751.73448  20775736.297    20775743.8944
 01  4 19 20  0  0.0010000  0  6 24 10 17 05 06 30
  22926055.535    -3667263.403 8  -2847413.29446  22926055.252    22926064.8154
  21134342.962   -22767561.688 9 -17700477.10747  21134342.059    21134351.0294
  24035744.701   -11015883.492 8  -8554703.48445  24035744.221    24035758.4034
  21190216.748   -20167962.216 9 -15703569.45047  21190216.049    21190225.0834
  22073734.614   -21735018.389 9 -16702559.65147  22073734.312    22073743.0464
  20775219.692   -25817051.267 9 -20092866.91248  20775219.785    20775227.3604
 01  4 19 20  0 30.0010000  0  6 24 10 17 05 06 30
  22940764.380    -3589968.388 8  -2787183.48446  22940764.059    22940773.6244
  21130757.632   -22786402.723 9 -17715158.42047  21130756.712    21130765.6984
  24020507.504   -11095955.532 8  -8617097.16945  24020506.979    24020521.1724
  21201863.292   -20106759.587 9 -15655879.16947  21201862.616    21201871.6284
  22062544.118   -21793824.870 9 -16748382.84447  22062543.779    22062552.4804
  20774814.805   -25819178.833 9 -20094524.78248  20774814.905    20774822.4994
 01  4 19 20  1  0.0010000  0  6 24 10 17 05 06 30
  22955487.047    -3512600.289 8  -2726896.72146  22955486.747    22955496.3654
  21127289.553   -22804627.209 9 -17729359.29547  21127288.662    21127297.6404
  24005306.552   -11175836.411 8  -8679341.86045  24005306.032    24005320.2864
  21213596.842   -20045099.619 9 -15607832.51447  21213596.193    21213605.1944
  22051373.518   -21852526.363 9 -16794124.22547  22051373.202    22051381.8824
  20774521.774   -25820718.841 9 -20095724.81448  20774521.868    20774529.4564
 01  4 19 20  1 30.0010000  0  6 24 10 17 05 06 30
  22970224.167    -3435156.382 8  -2666550.87646  22970223.885    22970233.5334
  21123939.670   -22822231.172 9 -17743076.64447  21123938.732    21123947.6874
  23990142.799   -11255522.123 8  -8741434.47545  23990142.221    23990156.6064
  21225417.782   -19982980.616 9 -15559428.17547  21225417.119    21225426.1404
  22040223.694   -21911118.498 9 -16839780.38347  22040223.451    22040232.0754
  20774341.296   -25821667.499 9 -20096464.05148  20774341.403    20774348.9614
 01  4 19 20  2  0.0010000  0  6 24 10 17 05 06 30
  22984975.458    -3357638.240 8  -2606147.20046  22984975.153    22984984.8324
  21120708.017   -22839213.398 9 -17756309.52547  21120707.099    21120716.0664
  23975016.265   -11335011.904 8  -8803374.41745  23975015.722    23975030.0364
  21237325.724   -19920404.165 9 -15510667.38447  21237325.036    21237334.0784
  22029094.974   -21969600.110 9 -16885350.42047  22029094.725    22029103.3354
  20774273.398   -25822024.310 9 -20096742.10648  20774273.480    20774281.0944
 01  4 19 20  2 30.0010000  0  6 24 10 17 05 06 30
  22999740.444    -3280047.958 8  -2545687.30646  22999740.151    22999749.8284
  21117594.715   -22855573.888 9 -17769057.94047  21117593.774    21117602.7264
  23959927.112   -11414305.678 8  -8865161.62745  23959926.529    23959940.7244
  21249320.217   -19857372.745 9 -15461552.06947  21249319.552    21249328.6184
  22017987.444   -22027970.472 9 -16930833.78047  22017987.175    22017995.8014
  20774318.161   -25821789.187 9 -20096558.91548  20774318.269    20774325.8904
 01  4 19 20  3  0.0010000  0  6 24 10 17 05 06 30
  23014518.880    -3202386.542 8  -2485171.97046  23014518.660    23014528.3584
  21114599.955   -22871311.394 9 -17781320.90547  21114598.997    21114607.9394
  23944875.496   -11493402.137 8  -8926795.06845  23944874.878    23944889.0714
  21261401.135   -19793887.157 9 -15412082.85747  21261400.479    21261409.6454
  22006901.429   -22086227.769 9 -16976229.03947  22006901.129    22006909.8114
  20774475.791   -25820960.956 9 -20095913.55848  20774475.890    20774483.5324
 01  4 19 20  3 30.0010000  0  6 24 10 17 05 06 30
  23029310.599    -3124655.510 8  -2424602.40546  23029310.380    23029320.1234
  21111723.877   -22886425.131 9 -17793097.82147  21111722.938    21111731.8814
  23929861.570   -11572300.806 8  -8988274.38745  23929860.922    23929874.9994
  21273568.146   -19729949.199 9 -15362261.15547  21273567.486    21273576.6834
  21995837.096   -22144371.232 9 -17021535.59547  21995836.789    21995845.4684
  20774746.278   -25819539.753 9 -20094806.15048  20774746.352    20774753.9964
 01  4 19 20  4  0.0010000  0  6 24 10 17 05 06 30
  23044115.396    -3046856.161 8  -2363979.60246  23044115.191    23044124.9544
  21108966.655   -22900914.567 9 -17804388.26247  21108965.707    21108974.6694
  23914885.293   -11651001.239 8  -9049599.23945  23914884.600    23914898.6094
  21285820.919   -19665560.990 9 -15312088.61447  21285820.233    21285829.4224
  21984794.680   -22202399.787 9 -17066752.61547  21984794.324    21984802.9174
  20775129.636   -25817525.122 9 -20093236.32848  20775129.757    20775137.3264
 01  4 19 20  4 30.0010000  0  6 24 10 17 05 06 30
  23058932.834    -2968990.472 8  -2303305.08946  23058932.583    23058942.3814
  21106328.219   -22914779.240 9 -17815191.87747  21106327.294    21106336.2814
  23899946.801   -11729502.987 8  -9110769.26945  23899946.152    23899959.9944
  21298159.005   -19600724.312 9 -15261566.61047  21298158.332    21298167.4944
  21973774.148   -22260312.407 9 -17111879.30347  21973773.823    21973782.3934
  20775625.963   -25814917.299 9 -20091204.27848  20775626.063    20775633.6094
 01  4 19 20  5  0.0010000  0  6 24 10 17 05 06 30
  23073762.712    -2891059.258 8  -2242579.54146  23073762.417    23073772.2884
  21103808.866   -22928018.487 9 -17825508.14747  21103807.928    21103816.8824
  23885046.193   -11807805.385 8  -9171783.94845  23885045.508    23885059.2724
  21310582.182   -19535440.781 9 -15210696.40747  21310581.501    21310590.6224
  21962776.020   -22318107.670 9 -17156914.54047  21962775.737    21962784.2644
  20776235.239   -25811715.725 9 -20088709.56548  20776235.322    20776242.8564
 01  4 19 20  5 30.0010000  0  6 24 10 17 05 06 30
  23088604.635    -2813064.466 8  -2181804.43946  23088604.371    23088614.3504
  21101408.591   -22940632.054 9 -17835336.87847  21101407.640    21101416.5664
  23870183.579   -11885907.857 8  -9232642.84445  23870182.997    23870196.6944
  21323089.975   -19469712.447 9 -15159479.61447  21323089.292    21323098.4814
  21951800.462   -22375784.676 9 -17201857.63147  21951800.165    21951808.6854
  20776957.453   -25807920.160 9 -20085752.00648  20776957.582    20776965.1474
 01  4 19 20  6  0.0010000  0  6 24 10 17 05 06 30
  23103458.504    -2735007.317 8  -2120980.74246  23103458.179    23103468.2274
  21099127.482   -22952619.071 9 -17844677.38547  21099126.579    21099135.5374
  23855359.158   -11963809.726 8  -9293345.43845  23855358.639    23855372.2624
  21335682.044   -19403540.826 9 -15107917.39647  21335681.385    21335690.5724
  21940847.692   -22433342.016 9 -17246707.47047  21940847.357    21940855.8894
  20777792.880   -25803530.288 9 -20082331.33948  20777792.983    20777800.5444
 01  4 19 20  6 30.0010000  0  6 24 10 17 05 06 30
  23118323.921    -2656889.268 8  -2060109.59246  23118323.548    23118333.6644
  21096965.627   -22963979.580 9 -17853529.70147  21096964.705    21096973.6684
  23840572.841   -12041510.881 8  -9353891.62645  23840572.455    23840586.0434
  21348358.071   -19336928.245 9 -15056011.57147  21348357.420    21348366.5864
  21929917.732   -22490778.900 9 -17291463.45347  21929917.424    21929925.9694
  20778741.227   -25798546.484 9 -20078447.87248  20778741.327    20778748.9014
 01  4 19 20  7  0.0010000  0  6 24 10 17 05 06 30
  23133200.435    -2578712.514 8  -1999192.69846  23133200.089    23133210.2434
  21094923.021   -22974713.337 9 -17861893.64647  21094922.089    21094931.0434
  23825825.056   -12119010.922 8  -9414281.11245  23825824.555    23825838.1034
  21361117.590   -19269876.702 9 -15003763.70247  21361116.976    21361126.1504
  21919010.793   -22548094.468 9 -17336124.90147  21919010.565    21919019.1514
  20779802.610   -25792968.666 9 -20074101.53648  20779802.742    20779810.3644
 01  4 19 20  7 30.0010000  0  6 24 10 17 05 06 30
  23148087.969    -2500478.163 8  -1938230.93546  23148087.602    23148097.7544
  21092999.784   -22984820.117 9 -17869769.03647  21092998.851    21093007.7944
  23811115.595   -12196309.806 8  -9474513.85445  23811114.969    23811128.4904
  21373960.217   -19202388.442 9 -14951175.53947  21373959.566    21373968.7934
  21908127.256   -22605287.808 9 -17380691.10647  21908127.009    21908135.5774
  20780977.081   -25786796.915 9 -20069292.40048  20780977.189    20780984.8594
 01  4 19 20  8  0.0010000  0  6 24 10 17 05 06 30
  23162986.286    -2422187.172 8  -1877225.01546  23162985.978    23162996.0614
  21091196.124   -22994298.427 9 -17877154.70747  21091195.179    21091204.0984
  23796444.399   -12273406.038 8  -9534588.69345  23796443.795    23796457.4434
  21386885.752   -19134464.442 9 -14898247.82947  21386885.118    21386894.3854
  21897267.311   -22662356.924 9 -17425160.51047  21897267.107    21897275.6594
  20782264.742   -25780030.438 9 -20064019.83948  20782264.857    20782272.5054
 01  4 19 20  8 30.0010000  0  6 24 10 17 05 06 30
  23177895.217    -2343840.379 8  -1816175.62046  23177894.926    23177905.0054
  21089512.049   -23003148.236 9 -17884050.63647  21089511.095    21089519.9834
  23781811.842   -12350299.128 8  -9594505.23045  23781811.355    23781825.0574
  21399893.891   -19066106.681 9 -14844982.13247  21399893.222    21399902.5354
  21886431.268   -22719300.590 9 -17469532.16647  21886431.079    21886439.6244
  20783665.576   -25772669.252 9 -20058283.86948  20783665.688    20783673.3074
 01  4 19 20  9  0.0010000  0  6 24 10 17 05 06 30
  23192814.223    -2265440.984 8  -1755085.24246  23192813.909    23192824.0114
  21087947.447   -23011370.229 9 -17890457.35847  21087946.508    21087955.3454
  23767218.109   -12426989.650 8  -9654263.92746  23767217.568    23767231.1634
  21412983.909   -18997318.286 9 -14791380.86947  21412983.280    21412992.6224
  21875619.165   -22776118.644 9 -17513805.93147  21875618.924    21875627.4344
  20785179.327   -25764714.432 9 -20052085.32348  20785179.450    20785187.1094
 01  4 19 20  9 30.0010000  0  6 24 10 17 05 06 30
  23207743.073    -2186989.844 8  -1693954.53846  23207742.723    23207752.8004
  21086502.394   -23018963.880 9 -17896374.46647  21086501.469    21086510.2934
  23752663.034   -12503476.924 8  -9713864.24246  23752662.444    23752675.9694
  21426155.662   -18928100.924 9 -14737445.33947  21426155.011    21426164.3244
  21864831.184   -22832809.878 9 -17557980.88347  21864830.893    21864839.3534
  20786806.206   -25756165.537 9 -20045423.86748  20786806.303    20786813.9534
 01  4 19 20 10  0.0010000  0  6 24 10 17 05 06 30
  23222681.422    -2108488.180 8  -1632784.48046  23222681.122    23222691.1474
  21085177.047   -23025928.337 9 -17901801.29347  21085176.146    21085184.9534
  23738146.767   -12579760.125 8  -9773305.54746  23738146.154    23738159.6164
  21439408.719   -18858456.005 9 -14683176.65647  21439408.106    21439417.4544
  21854067.571   -22889372.680 9 -17602055.75247  21854067.324    21854075.7224
  20788546.070   -25747022.376 9 -20038299.35048  20788546.179    20788553.8234
 01  4 19 20 10 30.0010000  0  6 24 10 17 05 06 30
  23237629.364    -2029937.202 8  -1571575.98546  23237629.044    23237638.9934
  21083971.460   -23032263.596 9 -17906737.83647  21083970.551    21083979.3924
  23723669.247   -12655839.179 8  -9832587.78346  23723668.646    23723682.0074
  21452742.661   -18788385.988 9 -14628576.74247  21452742.036    21452751.3924
  21843328.552   -22945806.223 9 -17646029.90947  21843328.368    21843336.6974
  20790399.008   -25737285.252 9 -20030712.00548  20790399.086    20790406.7294
 01  4 19 20 11  0.0010000  0  6 24 10 17 05 06 30
  23252586.397    -1951338.152 8  -1510330.03146  23252586.030    23252595.9724
  21082885.687   -23037969.322 9 -17911183.83747  21082884.802    21082893.6184
  23709230.842   -12731713.015 8  -9891710.10146  23709230.321    23709243.5684
  21466157.260   -18717892.457 9 -14573646.81947  21466156.589    21466165.9604
  21832614.587   -23002108.791 9 -17689901.99947  21832614.375    21832622.6734
  20792365.018   -25726953.828 9 -20022661.57148  20792365.125    20792372.7684
 01  4 19 20 11 30.0010000  0  6 24 10 17 05 06 30
  23267552.045    -1872693.032 8  -1449048.16446  23267551.719    23267561.7034
  21081919.662   -23043045.885 9 -17915139.57847  21081918.771    21081927.5384
  23694831.571   -12807381.885 8  -9950672.69646  23694830.990    23694844.1134
  21479651.801   -18646978.052 9 -14518388.94447  21479651.167    21479660.5914
  21821925.674   -23058279.743 9 -17733671.53447  21821925.415    21821933.7114
  20794443.984   -25716028.946 9 -20014148.69748  20794444.066    20794451.7244
 01  4 19 20 12  0.0010000  0  6 24 10 17 05 06 30
  23282526.336    -1794002.374 8  -1387730.81946  23282526.003    23282536.0494
  21081073.439   -23047492.554 9 -17918604.49547  21081072.557    21081081.2974
  23680471.400   -12882844.507 8 -10009474.59346  23680470.852    23680483.8994
  21493226.248   -18575644.032 9 -14462804.09347  21493225.629    21493235.1054
  21811262.081   -23114317.179 9 -17777337.02847  21811261.818    21811270.1494
  20796635.974   -25704509.810 9 -20005172.77448  20796636.088    20796643.7844
 01  4 19 20 12 30.0010000  0  6 24 10 17 05 06 30
  23297509.134    -1715267.532 8  -1326379.07346  23297508.790    23297518.8224
  21080347.156   -23051309.288 9 -17921578.56247  21080346.270    21080354.9744
  23666150.445   -12958100.646 8 -10068115.59146  23666149.895    23666162.9814
  21506880.194   -18503892.486 9 -14406893.89747  21506879.557    21506889.0624
  21800624.040   -23170220.093 9 -17820897.70747  21800623.802    21800632.1704
  20798941.060   -25692396.815 9 -19995734.10748  20798941.163    20798948.8264
 01  4 19 20 13  0.0010000  0  6 24 10 17 05 06 30
  23312500.042    -1636489.988 8  -1264994.03046  23312499.752    23312509.7504
  21079740.680   -23054496.464 9 -17924062.05647  21079739.740    21079748.4864
  23651868.871   -13033150.219 8 -10126595.63846  23651868.292    23651881.4034
  21520613.104   -18431725.880 9 -14350660.27047  21520612.470    21520622.0154
  21790011.874   -23225987.370 9 -17864352.69447  21790011.599    21790019.9184
  20801359.015   -25679690.440 9 -19985833.05948  20801359.099    20801366.7884
 01  4 19 20 13 30.0010000  0  6 24 10 17 05 06 30
  23327498.740    -1557671.884 8  -1203577.38646  23327498.449    23327508.4364
  21079254.007   -23057054.021 9 -17926054.94247  21079253.037    21079261.8594
  23637626.710   -13107993.157 8 -10184914.66546  23637626.092    23637639.1264
  21534424.522   -18359146.545 9 -14294105.04947  21534423.908    21534433.4834
  21779425.676   -23281618.329 9 -17907701.46047  21779425.358    21779433.6324
  20803889.779   -25666391.413 9 -19975470.21248  20803889.867    20803897.5444
 01  4 19 20 14  0.0010000  0  6 24 10 17 05 06 30
  23342505.013    -1478814.293 8  -1142129.98446  23342504.610    23342514.5704
  21078886.984   -23058982.155 9 -17927557.36947  21078886.091    21078894.9174
  23623423.741   -13182629.352 8 -10243072.57646  23623423.115    23623436.2384
  21548314.127   -18286156.898 9 -14237230.10247  21548313.463    21548322.9914
  21768865.613   -23337111.852 9 -17950943.13347  21768865.308    21768873.5464
  20806533.255   -25652500.030 9 -19964645.78448  20806533.357    20806541.0184
 01  4 19 20 14 30.0010000  0  6 24 10 17 05 06 30
  23357518.581    -1399918.444 8  -1080652.76546  23357518.117    23357527.9214
  21078639.960   -23060280.441 9 -17928569.00647  21078639.042    21078647.8704
  23609260.296   -13257057.997 8 -10301068.76846  23609259.690    23609272.8614
  21562281.570   -18212758.484 9 -14180036.63447  21562280.843    21562290.3154
  21758331.974   -23392466.339 9 -17994076.47247  21758331.671    21758339.9184
  20809289.441   -25638016.157 9 -19953359.67848  20809289.539    20809297.2474
 01  4 19 20 15  0.0010000  0  6 24 10 17 05 06 30
  23372538.871    -1320985.213 8  -1019146.42646  23372538.529    23372548.4784
  21078512.700   -23060948.549 9 -17929089.59647  21078511.830    21078520.7204
  23595136.504   -13331278.209 8 -10358902.56246  23595135.897    23595149.1724
  21576326.313   -18138953.032 9 -14122525.99847  21576325.630    21576335.1264
  21747825.057   -23447680.117 9 -18037100.16547  21747824.804    21747833.1104
  20812158.355   -25622939.810 9 -19941611.90748  20812158.482    20812166.1984
 01  4 19 20 15 30.0010000  0  6 24 10 17 05 06 30
  23387566.119    -1242015.552 8   -957611.69846  23387565.955    23387575.9364
  21078505.465   -23060986.457 9 -17929119.12747  21078504.575    21078513.5294
  23581052.541   -13405289.478 8 -10416573.53446  23581051.978    23581065.1524
  21590448.111   -18064742.516 9 -14064699.73547  21590447.454    21590457.0054
  21737345.257   -23502751.703 9 -18080013.05847  21737344.999    21737353.3044
  20815140.116   -25607270.874 9 -19929402.37748  20815140.228    20815147.9314
 01  4 19 20 16  0.0010000  0  6 24 10 17 05 06 30
  23402600.266    -1163011.316 8   -896050.03246  23402600.066    23402610.0654
  21078618.039   -23060394.970 9 -17928658.21647  21078617.147    21078626.0644
  23567008.372   -13479091.883 8 -10474081.73746  23567007.760    23567020.8334
  21604646.589   -17990129.714 9 -14006559.99647  21604645.935    21604655.4694
  21726892.667   -23557680.343 9 -18122814.56547  21726892.406    21726900.7174
  20818234.407   -25591010.374 9 -19916731.89048  20818234.516    20818242.2164
 01  4 19 20 16 30.0010000  0  6 24 10 17 05 06 30
  23417640.765    -1083974.266 8   -834462.78946  23417640.484    23417650.5414
  21078850.279   -23059174.786 9 -17927707.40947  21078849.356    21078858.2104
  23553003.828   -13552685.901 8 -10531427.55646  23553003.206    23553016.0904
  21618921.000   -17915117.624 9 -13948109.12547  21618920.323    21618929.9024
  21716467.322   -23612465.638 9 -18165504.37747  21716467.073    21716475.4024
  20821441.034   -25574159.596 9 -19903601.45148  20821441.166    20821448.8214
 01  4 19 20 17  0.0010000  0  6 24 10 17 05 06 30
  23432687.041    -1004905.331 8   -772850.70846  23432686.818    23432696.9864
  21079202.254   -23057325.297 9 -17926266.23847  21079201.313    21079210.1044
  23539039.157   -13626070.658 8 -10588610.32046  23539038.503    23539051.2204
  21633271.034   -17839707.731 9 -13889348.28147  21633270.398    21633280.0514
  21706069.569   -23667105.839 9 -18208081.12847  21706069.351    21706077.6934
  20824760.069   -25556718.233 9 -19890010.81248  20824760.178    20824767.8014
 01  4 19 20 17 30.0010000  0  6 24 10 17 05 06 30
  23447739.252     -925805.537 8   -711214.59146  23447739.047    23447749.2124
  21079673.954   -23054846.413 9 -17924334.62947  21079673.036    21079681.7964
  23525114.373   -13699245.245 8 -10645629.31146  23525113.723    23525126.4624
  21647696.526   -17763901.793 9 -13830278.82547  21647695.892    21647705.5654
  21695699.863   -23721599.034 9 -18250543.32847  21695699.660    21695707.9564
  20828191.400   -25538686.380 9 -19875960.04948  20828191.513    20828199.1784
